[[{"header":{"parameterUnit":"m.s-1","parameterCategory":1,"la1":30.6,"la2":28.766,"lo1":-90.7593,"lo2":-88.6598,"dy":0.0162,"dx":0.0183,"nx":116,"ny":114,"refTime":"2024-04-17T06:00:00:Z","depth":0,"parameterNumber":2,"parameterNumberName":"U-component_of_WINDS"},"data":[0.0,0.0,0.0,0.0,0.0,0.0,0.0,0.0,0.0,0.0,0.0,0.0,0.0,0.0,0.0,0.0,0.0,0.0,0.0,0.0,0.0,0.0,0.0,0.0,0.0,0.0,0.0,0.0,0.0,0.0,0.0,0.0,0.0,0.0,0.0,0.0,0.0,0.0,0.0,0.0,0.0,0.0,0.0,0.0,0.0,0.0,0.0,0.0,0.0,0.0,0.0,0.0,0.0,0.0,0.0,0.0,0.0,0.0,0.0,0.0,0.0,0.0,0.0,0.0,0.0,0.0,0.0,0.0,0.0,0.0,0.0,0.0,0.0,0.0,0.0,0.0,0.0,0.0,0.0,0.0,0.0,0.0,0.0,0.0,0.0,0.0,0.0,0.0,0.0,0.0,0.0,0.0,0.0,0.0,0.0,0.0,0.0,0.0,0.0,0.0,0.0,0.0,0.0,0.0,0.0,0.0,0.0,0.0,0.0,0.0,0.0,0.0,0.0,0.0,0.0,0.0,0.0,0.0,0.0,0.0,0.0,0.0,0.0,0.0,0.0,0.0,0.0,0.0,0.0,0.0,0.0,0.0,0.0,0.0,0.0,0.0,0.0,0.0,0.0,0.0,0.0,0.0,0.0,0.0,0.0,0.0,0.0,0.0,0.0,0.0,0.0,0.0,0.0,0.0,0.0,0.0,0.0,0.0,0.0,0.0,0.0,0.0,0.0,0.0,0.0,0.0,0.0,0.0,0.0,0.0,0.0,0.0,0.0,0.0,0.0,0.0,0.0,0.0,0.0,0.0,0.0,0.0,0.0,0.0,0.0,0.0,0.0,0.0,0.0,0.0,0.0,0.0,0.0,0.0,0.0,0.0,0.0,0.0,0.0,0.0,0.0,0.0,0.0,0.0,0.0,0.0,0.0,0.0,0.0,0.0,0.0,0.0,0.0,0.0,0.0,0.0,0.0,0.0,0.0,0.0,0.0,0.0,0.0,0.0,0.0,0.0,0.0,0.0,0.0,0.0,0.0,0.0,0.0,0.0,0.0,0.0,0.0,0.0,0.0,0.0,0.0,0.0,0.0,0.0,0.0,0.0,0.0,0.0,0.0,0.0,0.0,0.0,0.0,0.0,0.0,0.0,0.0,0.0,0.0,0.0,0.0,0.0,0.0,0.0,0.0,0.0,0.0,0.0,0.0,0.0,0.0,0.0,0.0,0.0,0.0,0.0,0.0,0.0,0.0,0.0,0.0,0.0,0.0,0.0,0.0,0.0,0.0,0.0,0.0,0.0,0.0,0.0,0.0,0.0,0.0,0.0,0.0,0.0,0.0,0.0,0.0,0.0,0.0,0.0,0.0,0.0,0.0,0.0,0.0,0.0,0.0,0.0,0.0,0.0,0.0,0.0,0.0,0.0,0.0,0.0,0.0,0.0,0.0,0.0,0.0,0.0,0.0,0.0,0.0,0.0,0.0,0.0,0.0,0.0,0.0,0.0,0.0,0.0,0.0,0.0,0.0,0.0,0.0,0.0,0.0,0.0,0.0,0.0,0.0,0.0,0.0,0.0,0.0,0.0,0.0,0.0,0.0,0.0,0.0,0.0,0.0,0.0,0.0,0.0,0.0,0.0,0.0,0.0,0.0,0.0,0.0,0.0,0.0,0.0,0.0,0.0,0.0,0.0,0.0,0.0,0.0,0.0,0.0,0.0,0.0,0.0,0.0,0.0,0.0,0.0,0.0,0.0,0.0,0.0,0.0,0.0,0.0,0.0,0.0,0.0,0.0,0.0,0.0,0.0,0.0,0.0,0.0,0.0,0.0,0.0,0.0,0.0,0.0,0.0,0.0,0.0,0.0,0.0,0.0,0.0,0.0,0.0,0.0,0.0,0.0,0.0,0.0,0.0,0.0,0.0,0.0,0.0,0.0,0.0,0.0,0.0,0.0,0.0,0.0,0.0,0.0,0.0,0.0,0.0,0.0,0.0,0.0,0.0,0.0,0.0,0.0,0.0,0.0,0.0,0.0,0.0,0.0,0.0,0.0,0.0,0.0,0.0,0.0,0.0,0.0,0.0,0.0,0.0,0.0,0.0,0.0,0.0,0.0,0.0,0.0,0.0,0.0,0.0,0.0,0.0,0.0,0.0,0.0,0.0,0.0,0.0,0.0,0.0,0.0,0.0,0.0,0.0,0.0,0.0,0.0,0.0,0.0,0.0,0.0,0.0,0.0,0.0,0.0,0.0,0.0,0.0,0.0,0.0,0.0,0.0,0.0,0.0,0.0,0.0,0.0,0.0,0.0,0.0,0.0,0.0,0.0,0.0,0.0,0.0,0.0,0.0,0.0,0.0,0.0,0.0,0.0,0.0,0.0,0.0,0.0,0.0,0.0,0.0,0.0,0.0,0.0,0.0,0.0,0.0,0.0,0.0,0.0,0.0,0.0,0.0,0.0,0.0,0.0,0.0,0.0,0.0,0.0,0.0,0.0,0.0,0.0,0.0,0.0,0.0,0.0,0.0,0.0,0.0,0.0,0.0,0.0,0.0,0.0,0.0,0.0,0.0,0.0,0.0,0.0,0.0,0.0,0.0,0.0,0.0,0.0,0.0,0.0,0.0,0.0,0.0,0.0,0.0,0.0,0.0,0.0,0.0,0.0,0.0,0.0,0.0,0.0,0.0,0.0,0.0,0.0,0.0,0.0,0.0,0.0,0.0,0.0,0.0,0.0,0.0,0.0,0.0,0.0,0.0,0.0,0.0,0.0,0.0,0.0,0.0,0.0,0.0,0.0,0.0,0.0,0.0,0.0,0.0,0.0,0.0,0.0,0.0,0.0,0.0,0.0,0.0,0.0,0.0,0.0,0.0,0.0,0.0,0.0,0.0,0.0,0.0,0.0,0.0,0.0,0.0,0.0,0.0,0.0,0.0,0.0,0.0,0.0,0.0,0.0,0.0,0.0,0.0,0.0,0.0,0.0,0.0,0.0,0.0,0.0,0.0,0.0,0.0,0.0,0.0,0.0,0.0,0.0,0.0,0.0,0.0,0.0,0.0,0.0,0.0,0.0,0.0,0.0,0.0,0.0,0.0,0.0,0.0,0.0,0.0,0.0,0.0,0.0,0.0,0.0,0.0,0.0,0.0,0.0,0.0,0.0,0.0,0.0,0.0,0.0,0.0,0.0,0.0,0.0,0.0,0.0,0.0,0.0,0.0,0.0,0.0,0.0,0.0,0.0,0.0,0.0,0.0,0.0,0.0,0.0,0.0,0.0,0.0,0.0,0.0,0.0,0.0,0.0,0.0,0.0,0.0,0.0,0.0,0.0,0.0,0.0,0.0,0.0,0.0,0.0,0.0,0.0,0.0,0.0,0.0,0.0,0.0,0.0,0.0,0.0,0.0,0.0,0.0,0.0,0.0,0.0,0.0,0.0,0.0,0.0,0.0,0.0,0.0,0.0,0.0,0.0,0.0,0.0,0.0,0.0,0.0,0.0,0.0,0.0,0.0,0.0,0.0,0.0,0.0,0.0,0.0,0.0,0.0,0.0,0.0,0.0,0.0,0.0,0.0,0.0,0.0,0.0,0.0,0.0,0.0,0.0,0.0,0.0,0.0,0.0,0.0,0.0,0.0,0.0,0.0,0.0,0.0,0.0,0.0,0.0,0.0,0.0,0.0,0.0,0.0,0.0,0.0,0.0,0.0,0.0,0.0,0.0,0.0,0.0,0.0,0.0,0.0,0.0,0.0,0.0,0.0,0.0,0.0,0.0,0.0,0.0,0.0,0.0,0.0,0.0,0.0,0.0,0.0,0.0,0.0,0.0,0.0,0.0,0.0,0.0,0.0,0.0,0.0,0.0,0.0,0.0,0.0,0.0,0.0,0.0,0.0,0.0,0.0,0.0,0.0,0.0,0.0,0.0,0.0,0.0,0.0,0.0,0.0,0.0,0.0,0.0,0.0,0.0,0.0,0.0,0.0,0.0,0.0,0.0,0.0,0.0,0.0,0.0,0.0,0.0,0.0,0.0,0.0,0.0,0.0,0.0,0.0,0.0,0.0,0.0,0.0,0.0,0.0,0.0,0.0,0.0,0.0,0.0,0.0,0.0,0.0,0.0,0.0,0.0,0.0,0.0,0.0,0.0,0.0,0.0,0.0,0.0,0.0,0.0,0.0,0.0,0.0,0.0,0.0,0.0,0.0,0.0,0.0,0.0,0.0,0.0,0.0,0.0,0.0,0.0,0.0,0.0,0.0,0.0,0.0,0.0,0.0,0.0,0.0,0.0,0.0,0.0,0.0,0.0,0.0,0.0,0.0,0.0,0.0,0.0,0.0,0.0,0.0,0.0,0.0,0.0,0.0,0.0,0.0,0.0,0.0,0.0,0.0,0.0,0.0,0.0,0.0,0.0,0.0,0.0,0.0,0.0,0.0,0.0,0.0,0.0,0.0,0.0,0.0,0.0,0.0,0.0,0.0,0.0,0.0,0.0,0.0,0.0,0.0,0.0,0.0,0.0,0.0,0.0,0.0,0.0,0.0,0.0,0.0,0.0,0.0,0.0,0.0,0.0,0.0,0.0,0.0,0.0,0.0,0.0,0.0,0.0,0.0,0.0,0.0,0.0,0.0,0.0,0.0,0.0,0.0,0.0,0.0,0.0,0.0,0.0,0.0,0.0,0.0,0.0,0.0,0.0,0.0,0.0,0.0,0.0,0.0,0.0,0.0,0.0,0.0,0.0,0.0,0.0,0.0,0.0,0.0,0.0,0.0,0.0,0.0,0.0,0.0,0.0,0.0,0.0,0.0,0.0,0.0,0.0,0.0,0.0,0.0,0.0,0.0,0.0,0.0,0.0,0.0,0.0,0.0,0.0,0.0,0.0,0.0,0.0,0.0,0.0,0.0,0.0,0.0,0.0,0.0,0.0,0.0,0.0,0.0,0.0,0.0,0.0,0.0,0.0,0.0,0.0,0.0,0.0,0.0,0.0,0.0,0.0,0.0,0.0,0.0,0.0,0.0,0.0,0.0,0.0,0.0,0.0,0.0,0.0,0.0,0.0,0.0,0.0,0.0,0.0,0.0,0.0,0.0,0.0,0.0,0.0,0.0,0.0,0.0,0.0,0.0,0.0,0.0,0.0,0.0,0.0,0.0,0.0,0.0,0.0,0.0,0.0,0.0,0.0,0.0,0.0,0.0,0.0,0.0,0.0,0.0,0.0,0.0,0.0,0.0,0.0,0.0,0.0,0.0,0.0,0.0,0.0,0.0,0.0,0.0,0.0,0.0,0.0,0.0,0.0,0.0,0.0,0.0,0.0,0.0,0.0,0.0,0.0,0.0,0.0,0.0,0.0,0.0,0.0,0.0,0.0,0.0,0.0,0.0,0.0,0.0,0.0,0.0,0.0,0.0,0.0,0.0,0.0,0.0,0.0,0.0,0.0,0.0,0.0,0.0,0.0,0.0,0.0,0.0,0.0,0.0,0.0,0.0,0.0,0.0,0.0,0.0,0.0,0.0,0.0,0.0,0.0,0.0,0.0,0.0,0.0,0.0,0.0,0.0,0.0,0.0,0.0,0.0,0.0,0.0,0.0,0.0,0.0,0.0,0.0,0.0,0.0,0.0,0.0,0.0,0.0,0.0,0.0,0.0,0.0,0.0,0.0,0.0,0.0,0.0,0.0,0.0,0.0,0.0,0.0,0.0,0.0,0.0,0.0,0.0,0.0,0.0,0.0,0.0,0.0,0.0,0.0,0.0,0.0,0.0,0.0,0.0,0.0,0.0,0.0,0.0,0.0,0.0,0.0,0.0,0.0,0.0,0.0,0.0,0.0,0.0,0.0,0.0,0.0,0.0,0.0,0.0,0.0,0.0,0.0,0.0,0.0,0.0,0.0,0.0,0.0,0.0,0.0,0.0,0.0,0.0,0.0,0.0,0.0,0.0,0.0,0.0,0.0,0.0,0.0,0.0,0.0,0.0,0.0,0.0,0.0,0.0,0.0,0.0,0.0,0.0,0.0,0.0,0.0,0.0,0.0,0.0,0.0,0.0,0.0,0.0,0.0,0.0,0.0,0.0,0.0,0.0,0.0,0.0,0.0,0.0,0.0,0.0,0.0,0.0,0.0,0.0,0.0,0.0,-4.346,-4.3568,0.0,0.0,0.0,0.0,0.0,0.0,0.0,0.0,0.0,0.0,0.0,0.0,0.0,0.0,0.0,0.0,0.0,0.0,0.0,0.0,0.0,0.0,0.0,-3.8469,-3.9426,-3.9599,-3.9775,-3.9913,-4.0053,-3.9934,0.0,0.0,0.0,0.0,-3.8471,-3.7302,-3.6937,-3.7417,-3.6844,-3.5883,-3.4651,-3.656,-3.7533,-3.7745,0.0,0.0,0.0,0.0,0.0,0.0,0.0,0.0,0.0,0.0,0.0,0.0,0.0,0.0,0.0,0.0,0.0,0.0,0.0,0.0,0.0,0.0,0.0,0.0,0.0,0.0,0.0,0.0,0.0,0.0,0.0,0.0,0.0,0.0,0.0,0.0,0.0,0.0,0.0,0.0,0.0,0.0,0.0,0.0,0.0,0.0,0.0,0.0,0.0,0.0,0.0,0.0,0.0,0.0,0.0,0.0,0.0,0.0,0.0,0.0,0.0,0.0,0.0,0.0,0.0,0.0,0.0,0.0,0.0,0.0,-4.2411,-4.2577,0.0,0.0,0.0,0.0,0.0,0.0,0.0,0.0,0.0,0.0,0.0,0.0,0.0,0.0,0.0,0.0,0.0,0.0,0.0,0.0,0.0,-3.6164,-3.6164,-3.772,-3.8793,-3.8832,-3.9188,-3.94,-3.946,-3.9479,-3.9498,-3.9498,-3.842,-3.8098,-3.8693,-3.7267,-3.6381,-3.6089,-3.4621,-3.3612,-3.3078,-3.4031,-3.4547,-3.4807,-3.7994,0.0,0.0,0.0,0.0,0.0,0.0,0.0,0.0,0.0,0.0,0.0,0.0,0.0,0.0,0.0,0.0,0.0,0.0,0.0,0.0,0.0,0.0,0.0,0.0,0.0,0.0,0.0,0.0,0.0,0.0,0.0,0.0,0.0,0.0,0.0,0.0,0.0,0.0,0.0,0.0,0.0,0.0,0.0,0.0,0.0,0.0,0.0,0.0,0.0,0.0,0.0,0.0,0.0,0.0,0.0,0.0,0.0,0.0,0.0,0.0,0.0,0.0,0.0,-4.4927,-4.4595,-4.3687,-4.3824,-4.2799,-4.0963,-4.1312,-4.1528,-4.1686,-4.2195,0.0,0.0,0.0,0.0,0.0,0.0,0.0,0.0,0.0,0.0,0.0,0.0,0.0,0.0,0.0,0.0,0.0,0.0,0.0,-3.5612,-3.5612,-3.6716,-3.7542,-3.7775,-3.8263,-3.8654,-3.8891,-3.9066,-3.9178,-3.9178,-3.8132,-3.7418,-3.7112,-3.6272,-3.4847,-3.2813,-3.0316,-2.9047,-2.901,-3.097,-3.1554,-3.1166,-3.5242,-3.6684,-3.6169,0.0,0.0,0.0,0.0,0.0,0.0,0.0,0.0,0.0,0.0,0.0,0.0,0.0,0.0,0.0,0.0,0.0,0.0,0.0,0.0,0.0,0.0,0.0,0.0,0.0,0.0,0.0,0.0,0.0,0.0,0.0,0.0,0.0,0.0,0.0,0.0,0.0,0.0,0.0,0.0,0.0,-4.3561,-4.4671,0.0,0.0,0.0,0.0,0.0,0.0,0.0,0.0,0.0,0.0,0.0,0.0,0.0,-4.1786,-4.1862,-4.3154,-4.3251,-4.2169,-4.4172,-4.3735,-4.1203,-4.1896,-4.1397,-3.9999,-4.0033,0.0,-4.1099,-4.2313,0.0,0.0,0.0,0.0,0.0,0.0,0.0,0.0,0.0,0.0,0.0,0.0,0.0,0.0,0.0,0.0,0.0,0.0,0.0,0.0,0.0,-3.5972,-3.6575,-3.6702,-3.6533,-3.666,-3.7185,-3.7585,-3.7983,-3.841,-3.7578,-3.685,-3.6305,-3.4613,-3.2481,-2.995,-2.8794,-2.8174,-2.8129,-2.9438,-2.9875,-2.9692,-3.2405,-3.4382,-3.5719,-3.6584,0.0,0.0,0.0,0.0,0.0,0.0,0.0,0.0,0.0,0.0,0.0,0.0,0.0,0.0,0.0,0.0,0.0,0.0,0.0,0.0,0.0,0.0,0.0,0.0,0.0,0.0,0.0,0.0,0.0,0.0,0.0,0.0,0.0,0.0,0.0,0.0,0.0,0.0,0.0,-4.2482,-4.3209,-4.2943,-4.3644,-4.3211,0.0,0.0,0.0,0.0,0.0,0.0,0.0,0.0,0.0,-4.222,-4.252,-4.2732,-4.2884,-4.3488,-4.3763,-4.3606,-4.4249,-4.385,-4.2603,-4.2589,-4.1997,-4.1054,-4.1054,-4.098,-4.0884,-4.0689,-4.0841,-4.1229,0.0,0.0,0.0,0.0,-4.1843,-4.131,0.0,0.0,0.0,0.0,0.0,0.0,0.0,0.0,0.0,0.0,0.0,0.0,-3.4368,-3.4667,-3.4881,-3.4881,-3.4644,-3.4793,-3.5528,-3.6025,-3.6639,-3.7379,-3.6573,-3.574,-3.4974,-3.1933,-2.9245,-2.6962,-2.6724,-2.6767,-2.7048,-2.7924,-2.8432,-2.8748,-3.0093,-3.2071,-3.4387,-3.4976,-3.5735,-3.662,0.0,0.0,0.0,0.0,0.0,0.0,0.0,0.0,0.0,0.0,0.0,0.0,0.0,0.0,0.0,0.0,0.0,0.0,0.0,0.0,0.0,0.0,0.0,0.0,0.0,0.0,0.0,0.0,0.0,0.0,0.0,0.0,0.0,0.0,0.0,0.0,0.0,-4.3021,-4.3022,-4.1596,-4.337,-4.3267,0.0,0.0,0.0,0.0,0.0,0.0,-4.2138,-4.2451,-4.2766,-4.311,-4.3316,-4.3593,-4.3932,-4.3704,-4.3963,-4.4645,-4.4126,-4.3737,-4.3375,-4.2908,-4.2199,-4.1313,-4.1313,-4.103,-4.0431,-3.9465,-3.9671,-4.05,-3.9815,-4.0312,-4.1375,-4.1375,-4.1082,-4.0774,0.0,0.0,0.0,0.0,0.0,0.0,0.0,0.0,0.0,0.0,0.0,-3.251,-3.3198,-3.2407,-3.1828,-3.1828,-3.2772,-3.3696,-3.4427,-3.4804,-3.5332,-3.606,-3.4846,-3.3573,-3.2409,-2.7777,-2.478,-2.357,-2.2738,-2.304,-2.4438,-2.5779,-2.6925,-2.7789,-2.8703,-2.9628,-3.0646,-3.3273,-3.364,-3.2695,-3.5205,0.0,0.0,0.0,0.0,0.0,0.0,0.0,0.0,0.0,0.0,0.0,0.0,0.0,0.0,0.0,0.0,0.0,0.0,0.0,0.0,0.0,0.0,0.0,0.0,0.0,0.0,0.0,0.0,0.0,0.0,0.0,0.0,0.0,0.0,0.0,0.0,0.0,0.0,-4.2204,-4.4271,0.0,0.0,0.0,0.0,-4.2598,-4.1987,-4.2123,-4.3343,-4.2766,-4.2977,-4.4183,-4.3648,-4.3633,-4.4258,-4.3648,-4.3349,-4.3388,-4.3358,-4.2722,-4.152,-4.1475,-4.077,-3.9553,-3.9553,-3.9487,-3.948,-3.9739,-3.9868,-3.9869,-3.9215,-3.9447,-4.0196,-4.0196,-4.0171,-4.0146,0.0,0.0,0.0,0.0,0.0,-3.3666,-3.3258,-3.2952,-3.2697,-3.2538,-3.2023,-3.1774,-3.2066,-3.1383,-3.0892,-3.0892,-3.0823,-3.0931,-3.1243,-3.2085,-3.2716,-3.3028,-3.2039,-3.0154,-2.7313,-2.4625,-2.3162,-2.2902,-2.26,-2.2917,-2.3773,-2.4269,-2.5039,-2.5998,-2.6878,-2.7773,-2.873,-3.0809,-3.1899,-3.2383,-3.37,-3.4382,0.0,0.0,0.0,0.0,0.0,0.0,0.0,0.0,0.0,0.0,0.0,0.0,0.0,0.0,0.0,0.0,0.0,0.0,0.0,0.0,0.0,0.0,0.0,0.0,0.0,0.0,0.0,0.0,0.0,0.0,0.0,0.0,0.0,0.0,0.0,0.0,0.0,-4.3239,-4.5183,0.0,-4.1576,-4.2416,-4.32,-4.3074,-4.3244,-4.3741,-4.4594,-4.4824,-4.5125,-4.5589,-4.5337,-4.5155,-4.4945,-4.4287,-4.3708,-4.329,-4.291,-4.2462,-4.2021,-4.113,-4.0502,-4.0023,-3.9604,-3.9388,-3.9341,-3.8598,-3.8905,-3.9734,-3.863,-3.8968,-4.0096,-4.0096,-4.0096,-4.0096,0.0,0.0,0.0,0.0,0.0,-3.3606,-3.3045,-3.2697,-3.2301,-3.1786,-3.1148,-3.0762,-3.0863,-3.0045,-2.9517,-2.9517,-2.9051,-2.8976,-2.9505,-3.0032,-3.044,-3.0711,-2.9352,-2.6941,-2.3417,-2.2503,-2.1992,-2.1746,-2.1746,-2.2164,-2.2999,-2.2999,-2.3514,-2.4516,-2.5098,-2.5716,-2.6357,-2.7764,-2.933,-3.0936,-3.1768,-3.2392,-3.2901,0.0,0.0,0.0,0.0,0.0,0.0,0.0,0.0,0.0,0.0,0.0,0.0,0.0,0.0,0.0,0.0,0.0,0.0,0.0,0.0,0.0,0.0,0.0,0.0,0.0,0.0,0.0,0.0,0.0,0.0,0.0,0.0,0.0,0.0,0.0,-4.4465,-4.3376,-4.5518,-4.5758,-4.2353,-4.3492,-4.4419,-4.4302,-4.4695,-4.5274,-4.5933,-4.6411,-4.6651,-4.6651,-4.6217,-4.5753,-4.5289,-4.4421,-4.3723,-4.329,-4.2895,-4.262,-4.2366,-4.1235,-4.0606,-4.0367,-3.9709,-3.9388,-3.932,-3.7958,-3.82,-3.9281,-3.8219,-3.8569,-3.9731,-3.9995,-4.0096,-4.0096,0.0,0.0,0.0,0.0,0.0,-3.3522,-3.2632,-3.2501,-3.223,-3.1468,-3.0198,-2.9411,-2.9548,-2.8363,-2.7575,-2.76,-2.7522,-2.8062,-2.9421,-2.8772,-2.8573,-2.9193,-2.6809,-2.4047,-2.1019,-2.1395,-2.1059,-1.9856,-1.9894,-2.0619,-2.1952,-2.1952,-2.2478,-2.3441,-2.3441,-2.3478,-2.3551,-2.4412,-2.5954,-2.7975,-2.9341,-2.9857,-2.9962,0.0,0.0,0.0,0.0,0.0,0.0,0.0,0.0,0.0,0.0,0.0,0.0,0.0,0.0,0.0,0.0,0.0,0.0,0.0,0.0,0.0,0.0,0.0,0.0,0.0,0.0,0.0,0.0,0.0,0.0,0.0,0.0,0.0,-4.1681,-4.3316,-4.4022,-4.2698,-4.5349,-4.6292,-4.3663,-4.5173,-4.6309,-4.6309,-4.6309,-4.6636,-4.7279,-4.7309,-4.7309,-4.7309,-4.6022,-4.5319,-4.5289,-4.4003,-4.3319,-4.329,-4.329,-4.3,-4.241,-4.1722,-4.104,-4.0382,-3.9709,-3.9373,-3.929,-3.7958,-3.7849,-3.8489,-3.7965,-3.8218,-3.8962,-3.9756,-4.0045,-4.0045,0.0,0.0,0.0,-3.3807,-3.3807,-3.3522,-3.2632,-3.2501,-3.2052,-3.0841,-2.9483,-2.8674,-2.8859,-2.7639,-2.7023,-2.7534,-2.7142,-2.7013,-2.74,-2.6716,-2.5972,-2.5246,-2.3319,-2.1563,-2.0004,-2.0242,-2.0005,-1.9236,-2.0033,-2.0594,-2.0972,-2.0972,-2.1489,-2.2403,-2.2403,-2.2813,-2.3514,-2.3772,-2.421,-2.4917,-2.6841,-2.7598,-2.7805,0.0,0.0,0.0,0.0,0.0,0.0,0.0,0.0,0.0,0.0,0.0,0.0,0.0,0.0,0.0,0.0,0.0,0.0,0.0,0.0,0.0,0.0,0.0,0.0,0.0,0.0,0.0,0.0,0.0,0.0,0.0,-4.0785,-4.2546,-4.3571,-4.45,-4.5307,-4.5885,-4.6756,-4.701,-4.6277,-4.6711,-4.704,-4.704,-4.704,-4.7115,-4.7294,-4.7309,-4.7309,-4.7309,-4.6486,-4.5798,-4.5289,-4.4466,-4.3768,-4.329,-4.329,-4.32,-4.303,-4.1893,-4.128,-4.1055,-3.9903,-3.9125,-3.8601,-3.7764,-3.7271,-3.7059,-3.6971,-3.7411,-3.8149,-3.8346,-3.8761,-3.9139,0.0,0.0,0.0,-3.3807,-3.3807,-3.3578,-3.2905,-3.2632,-3.1863,-3.0092,-2.9239,-2.8497,-2.784,-2.7026,-2.6714,-2.7131,-2.6298,-2.5845,-2.611,-2.525,-2.405,-2.2575,-2.1576,-2.0644,-1.9759,-1.9602,-1.9357,-1.8997,-1.9599,-1.9923,-1.9923,-2.0401,-2.0895,-2.1413,-2.1413,-2.1745,-2.2301,-2.2301,-2.2301,-2.2429,-2.4029,-2.5205,-2.6165,-2.7769,-2.8495,-2.8911,-3.056,-3.1497,-3.2096,-3.2852,0.0,0.0,0.0,0.0,0.0,0.0,0.0,0.0,0.0,0.0,0.0,0.0,0.0,0.0,0.0,0.0,0.0,0.0,0.0,0.0,0.0,0.0,0.0,0.0,-4.1121,-4.2898,-4.4261,-4.5185,-4.6112,-4.7174,-4.7309,-4.7309,-4.7309,-4.7309,-4.7309,-4.7309,-4.7309,-4.7309,-4.7309,-4.7309,-4.7309,-4.7309,-4.6666,-4.6127,-4.5723,-4.4781,-4.4122,-4.3708,-4.3424,-4.329,-4.3245,-4.1983,-4.1422,-4.1347,-3.9993,-3.9035,-3.8347,-3.7689,-3.7045,-3.6502,0.0,0.0,0.0,0.0,-3.8064,-3.8386,0.0,0.0,0.0,-3.382,-3.3807,-3.3666,-3.3258,-3.2858,-3.1759,-2.9488,-2.9323,-2.8788,-2.6994,-2.6702,-2.6702,-2.679,-2.5521,-2.485,-2.5215,-2.4063,-2.2639,-2.1041,-2.1009,-2.065,-1.9829,-1.9256,-1.8957,-1.8798,-1.8957,-1.8997,-1.9036,-2.0079,-2.0605,-2.0605,-2.0605,-2.0518,-2.045,-2.0566,-2.044,-2.0312,-2.1262,-2.2838,-2.477,-2.5612,-2.6236,-2.6874,-2.8342,-2.898,-2.932,-3.1129,0.0,0.0,0.0,0.0,0.0,0.0,0.0,0.0,0.0,0.0,0.0,0.0,0.0,0.0,0.0,0.0,0.0,0.0,0.0,0.0,0.0,0.0,0.0,0.0,-4.1875,-4.3214,-4.4351,-4.5653,-4.6741,-4.7249,-4.7309,-4.7309,-4.7309,-4.7309,-4.7309,-4.7309,-4.7309,-4.7309,-4.7309,0.0,0.0,0.0,0.0,-4.6396,-4.6279,-4.5065,-4.4392,-4.4302,-4.3604,-4.329,-4.3245,-4.1983,-4.1422,-4.1309,-3.9903,-3.8916,-3.8227,-3.7569,-3.6941,-3.6397,-3.6457,-3.6477,-3.6554,-3.7279,-3.7571,-3.7549,0.0,0.0,0.0,-3.3842,-3.3807,-3.3666,-3.3258,-3.3105,-3.2245,-2.9946,-2.9702,-2.928,-2.8113,-2.7433,-2.7326,-2.7917,-2.6777,-2.5324,-2.3663,-2.2526,-2.1544,-2.0708,-2.0335,-1.9831,-1.9194,-1.9079,-1.855,-1.7626,-1.855,-1.8997,-1.9036,-2.0079,-2.0605,-2.0605,-2.0605,-2.0118,-1.9362,-2.0235,-1.955,-1.8063,-1.9471,-2.1024,-2.2706,-2.4386,-2.512,-2.5465,-2.7553,-2.8742,-2.9681,-3.1373,-3.2623,-3.3671,-3.5106,-3.5414,0.0,0.0,0.0,0.0,0.0,0.0,0.0,0.0,0.0,0.0,0.0,0.0,0.0,0.0,0.0,0.0,0.0,0.0,0.0,-4.1283,-4.3677,-4.5474,-4.525,-4.6756,-4.7758,-4.7354,-4.7309,-4.7309,-4.7309,-4.7309,-4.7309,-4.7309,-4.7309,-4.7309,-4.7309,-4.7309,-4.7309,-4.7309,-4.7174,-4.686,-4.6337,-4.5514,-4.484,-4.4302,-4.3604,0.0,-4.3245,-4.1983,-4.1422,-4.1317,-3.9394,-3.8212,-3.7554,-3.6926,-3.6282,-3.5684,-3.5729,-3.5701,-3.5733,-3.5878,-3.5984,-3.5943,0.0,0.0,0.0,-3.3815,-3.3807,-3.3734,-3.3536,-3.3332,-3.2547,-3.0783,-3.065,-3.0272,-2.9125,-2.8653,-2.8596,-2.8979,-2.7237,-2.5079,-2.2568,-2.1973,-2.1173,-1.9996,-2.0155,-2.0101,-1.9795,-1.9274,-1.8718,-1.8149,-1.8905,-1.9286,-1.9326,-2.0404,-2.0898,-2.0889,-2.0703,-2.0284,-1.9844,-2.0362,-1.9962,-1.9024,-2.0006,-2.1017,-2.1985,-2.2595,-2.3677,-2.5041,-2.6707,-2.7928,-2.9057,-3.075,-3.1965,-3.3013,-3.4647,-3.5307,-3.5669,0.0,0.0,0.0,0.0,0.0,0.0,0.0,0.0,0.0,0.0,0.0,0.0,0.0,0.0,-3.8309,-4.018,0.0,-4.2109,-4.2768,-4.4298,-4.5493,-4.584,-4.6439,-4.6948,-4.7252,-4.7593,-4.7668,-4.7339,-4.7309,-4.7309,-4.7309,-4.7309,-4.7309,-4.7309,-4.7309,-4.7309,-4.7309,-4.7309,-4.7145,-4.6815,-4.6157,-4.5469,-4.4796,-4.4137,-4.3604,-4.3245,-4.1983,-4.1422,-4.1332,-3.9634,-3.8332,-3.7345,-3.6387,-3.5804,-3.5504,-3.5504,-3.5504,-3.5459,-3.5115,-3.5026,-3.4957,0.0,0.0,0.0,-3.3807,-3.3807,-3.3807,-3.3807,-3.3574,-3.2955,-3.1694,-3.1836,-3.1581,-3.0318,-3.0197,-3.0075,-2.9824,-2.7423,-2.4891,-2.2506,-2.2145,-2.1355,-1.9899,-2.0682,-2.1088,-2.0895,-1.9816,-1.9186,-1.8997,-1.9313,-1.9467,-1.9507,-2.0595,-2.1064,-2.1094,-2.0723,-2.0479,-2.0284,-2.0518,-2.0362,-2.0029,-2.055,-2.1146,-2.1717,-2.1301,-2.267,-2.4999,-2.6337,-2.7371,-2.8339,-3.0037,-3.1187,-3.2199,-3.4011,-3.5134,-3.6021,-3.72,-3.786,0.0,0.0,0.0,0.0,0.0,0.0,0.0,0.0,0.0,-3.5326,-3.7099,-3.7369,-3.8239,-4.1226,-4.1894,-4.2653,-4.4646,-4.5067,-4.5547,-4.6637,-4.6505,-4.6619,-4.7388,-4.7848,-4.7878,-4.7354,-4.7309,-4.7309,-4.7309,-4.7309,-4.7309,-4.7309,-4.7309,-4.7309,-4.7309,-4.7309,-4.7309,-4.7309,-4.6516,-4.5843,-4.5289,-4.4496,-4.3798,-4.3245,-4.1983,-4.1422,-4.1294,-3.9709,-3.8272,-3.6956,-3.5923,-3.5504,-3.5504,-3.5504,-3.5504,-3.5429,-3.4876,-3.4533,-3.4234,0.0,0.0,0.0,0.0,0.0,-3.3807,-3.3807,-3.3968,-3.3679,-3.2522,-3.3154,-3.3271,-3.2044,-3.1926,-3.1441,-3.0248,-2.759,-2.5601,-2.4682,-2.3314,-2.2269,-2.1727,-2.2664,-2.2776,-2.1849,-2.0806,-1.9837,-1.8997,-1.9042,-1.906,-1.91,-2.0156,-2.0674,-2.0674,-2.0625,-2.0079,-1.9244,-2.0206,-1.9471,-1.7747,-1.8803,-2.0038,-2.1282,-2.1913,-2.3254,-2.5073,-2.7186,-2.8016,-2.8339,-3.0037,-3.0989,-3.1928,-3.4473,-3.5322,-3.5653,-3.702,0.0,-3.6718,-3.6739,-3.6167,-3.5896,-3.7136,-3.599,-3.5565,0.0,0.0,-3.7325,-3.9595,-3.9715,-4.0205,-4.2736,-4.3645,-4.4719,-4.6635,-4.7493,-4.7926,-4.8075,-4.8983,-4.9282,-4.8312,-4.7728,-4.7384,-4.7309,-4.7309,-4.7309,-4.7309,-4.7309,-4.7309,-4.7309,-4.7309,-4.7309,-4.7309,-4.7309,-4.7309,-4.7309,-4.6037,-4.5364,-4.5274,-4.4032,-4.3364,-4.3245,-4.1983,-4.1422,-4.1272,-3.8721,-3.6911,-3.5714,-3.5564,-3.5504,-3.5504,-3.5504,-3.5504,-3.5489,-3.5415,-3.4637,-3.3589,0.0,0.0,0.0,0.0,0.0,-3.3807,-3.3807,-3.4018,-3.4022,-3.3543,-3.4031,-3.422,-3.371,-3.3471,-3.2908,-3.1747,-2.9117,-2.6908,-2.5436,-2.3949,-2.2799,-2.2036,-2.2952,-2.3294,-2.2888,-2.2446,-2.1721,-2.0768,-2.1026,-2.0849,-2.0301,-2.0749,-2.0957,-2.0947,-2.0684,-2.0362,-1.9962,-2.0401,-2.0372,-2.0081,-2.0566,-2.1883,-2.3725,-2.4724,-2.5999,-2.7396,-2.8737,-2.9869,0.0,-3.1878,-3.24,-3.2948,-3.5036,-3.5416,-3.5295,-3.6517,-3.6686,0.0,-3.5833,-3.5912,0.0,0.0,-3.4353,-3.4328,-3.6009,-3.5658,-3.5625,-3.7857,-3.9089,-4.0605,-4.3514,-4.4523,-4.5702,0.0,-4.8356,-4.8416,-4.885,-4.8671,-4.8461,-4.8312,-4.7713,-4.7309,-4.7309,-4.7309,-4.7309,-4.7309,-4.7309,-4.7309,-4.7309,-4.7309,-4.7309,-4.7309,-4.7309,-4.7309,-4.7309,-4.6367,-4.5693,-4.5289,-4.4347,-4.3509,-4.2731,-4.1803,-4.0741,-3.9559,-3.8063,-3.6911,-3.6043,-3.5669,-3.5504,-3.5504,-3.5504,-3.5504,-3.5459,-3.5055,-3.4307,-3.3499,0.0,0.0,0.0,0.0,0.0,-3.3889,-3.3802,-3.4105,-3.4345,-3.4345,-3.4685,-3.4926,-3.4926,-3.4636,-3.4081,-3.315,-3.0745,-2.8558,-2.6865,-2.5356,-2.4282,-2.3713,-2.4292,-2.46,-2.4487,-2.4256,-2.3631,-2.2633,-2.2809,-2.2478,-2.1632,-2.1793,-2.1744,-2.1612,-2.1306,-2.1295,-2.149,-2.1518,-2.2046,-2.2885,-2.3243,-2.4565,-2.6397,-2.7644,-2.8859,-2.9929,-3.0097,-3.1121,-3.2364,-3.2555,-3.2982,-3.3591,-3.4768,-3.5022,-3.5082,-3.5971,-3.6207,-3.6023,-3.5192,0.0,0.0,-3.3873,-3.3575,-3.3717,-3.3804,-3.4186,-3.4968,-3.6415,-3.8197,-4.0542,-4.4129,-4.492,-4.6053,-4.907,-4.9134,-4.8925,-4.9269,-4.8596,-4.8162,-4.8267,-4.7863,-4.7504,-4.7324,-4.7309,-4.7309,-4.7309,-4.7309,-4.7309,-4.7309,-4.7309,-4.7309,-4.7309,-4.7309,-4.7219,-4.704,-4.6381,-4.5693,-4.5005,-4.4182,-4.3284,-4.2366,-4.1309,-3.9843,-3.8078,-3.7434,-3.6806,-3.6178,-3.5699,-3.5504,-3.5504,-3.5504,-3.5504,-3.5444,-3.4936,-3.4337,-3.3769,0.0,0.0,0.0,0.0,0.0,-3.4099,-3.3842,-3.4295,-3.4684,-3.4684,-3.5138,-3.5486,-3.5486,-3.5231,-3.4775,-3.403,-3.2099,-3.0576,-2.9716,-2.806,-2.7322,-2.7883,-2.7615,-2.7322,-2.6997,-2.6154,-2.5228,-2.4231,-2.3724,-2.3181,-2.2664,-2.3167,-2.3145,-2.2653,-2.2631,-2.3035,-2.3722,-2.3836,-2.4333,-2.5132,-2.6407,-2.7536,-2.856,-3.0105,-3.1319,-3.2079,-3.096,-3.1041,-3.1536,-3.0904,-3.1901,-3.337,-3.3243,-3.3973,0.0,-3.5403,-3.5534,-3.5424,0.0,0.0,-3.3789,-3.4929,-3.455,-3.4122,-3.4955,-3.615,-3.7034,-3.6828,-3.7941,-4.0296,-4.4645,-4.4962,-4.5735,-4.9558,-5.0151,-4.9972,-4.9404,-4.9778,-4.9643,-4.8431,-4.8267,-4.7997,0.0,-4.7309,-4.7309,-4.7309,-4.7309,-4.7309,-4.7309,-4.7309,-4.7309,-4.7309,-4.7309,-4.6995,-4.6324,-4.5678,-4.499,-4.4332,-4.3084,-4.244,-4.2336,-4.0367,-3.8736,-3.7404,-3.6791,-3.6148,-3.5534,-3.5519,-3.5504,-3.5504,-3.5504,-3.5504,-3.5504,-3.5489,-3.504,-3.4474,0.0,0.0,0.0,0.0,0.0,0.0,-3.4093,-3.4431,-3.4694,-3.4694,-3.5174,0.0,0.0,0.0,0.0,0.0,-3.2632,-3.1264,-3.0753,-2.9173,-2.833,-2.8499,-2.8896,-2.9065,-2.8951,-2.8715,-2.8103,-2.7154,-2.6926,-2.6409,-2.5615,-2.5753,-2.5736,-2.5531,-2.5318,-2.5192,-2.5213,-2.5851,-2.7109,-2.8624,-2.8868,-3.051,-3.2777,-3.2447,-3.2882,-3.3492,0.0,-3.2312,-3.2844,-3.2594,-3.2943,-3.3547,-3.39,-3.4011,-3.4088,-3.4661,-3.5459,-3.5978,0.0,0.0,-3.4717,-3.4856,-3.3447,-3.231,-3.3636,-3.4067,-3.4462,-3.5423,-3.7344,-3.9803,-4.3052,-4.4364,-4.6002,-4.9087,-4.9583,-4.9508,-4.9344,-4.9449,-4.9105,-4.7788,-4.8012,0.0,0.0,0.0,0.0,-4.7309,-4.7309,-4.7309,-4.7309,-4.7309,-4.7309,-4.7309,-4.7309,-4.6995,-4.6294,-4.5648,-4.496,-4.4287,-4.2551,-4.1512,-4.101,-3.9439,-3.8257,-3.7375,-3.6746,-3.6118,-3.5504,-3.5504,-3.5504,-3.5504,-3.5504,-3.5504,-3.5504,-3.5504,-3.5355,-3.516,0.0,0.0,0.0,0.0,0.0,0.0,0.0,0.0,0.0,0.0,0.0,0.0,0.0,0.0,0.0,0.0,0.0,-3.2383,-3.2078,-3.0647,-2.9889,-3.0087,-3.0297,-3.0505,-3.0709,-3.0478,-3.0186,-2.99,-2.975,-2.9415,-2.8943,-2.909,-2.9109,-2.9019,-2.8673,-2.8595,-2.8748,-2.9035,-3.0109,-3.1614,-3.1774,-3.3149,-3.5103,-3.5013,-3.5028,0.0,-3.4018,-3.3633,-3.3485,-3.2946,-3.3095,-3.3529,-3.3724,-3.3799,-3.3887,-3.3989,-3.5187,-3.6238,0.0,-3.5314,-3.5711,-3.5318,-3.4202,-3.3302,-3.3764,-3.4218,-3.4765,-3.547,-3.7299,-3.9555,-4.213,-4.3671,-4.5357,-4.7836,-4.8416,-4.8656,-4.8925,-4.876,-4.8341,-4.7728,-4.7818,-4.7773,0.0,0.0,0.0,-4.7309,-4.7309,-4.7309,-4.7309,-4.7309,-4.7309,-4.7309,-4.707,-4.6636,-4.5963,-4.5289,-4.4377,-4.3254,-4.1743,-4.0681,-4.0008,-3.8646,-3.7808,-3.736,-3.6507,-3.5893,-3.5504,-3.5504,-3.5504,-3.5504,-3.5504,-3.5504,-3.5504,-3.5504,-3.5504,-3.5504,0.0,0.0,0.0,0.0,0.0,0.0,0.0,0.0,0.0,0.0,0.0,0.0,0.0,0.0,0.0,0.0,0.0,0.0,-3.3666,-3.2428,-3.2002,-3.2621,-3.1867,-3.171,-3.2327,-3.1614,-3.1616,-3.2433,-3.218,-3.2194,-3.2457,-3.2962,-3.3091,-3.2903,-3.258,-3.2961,-3.3874,-3.3209,-3.3371,-3.4141,-3.5066,-3.5526,-3.5827,-3.7708,-3.7704,-3.6575,-3.5928,-3.4881,-3.356,-3.1995,-3.2348,-3.3347,-3.2705,-3.3436,-3.432,-3.3411,-3.476,-3.6231,-3.4899,-3.5624,-3.6682,-3.6242,-3.6544,-3.6552,-3.5222,-3.6383,-3.755,-3.6857,-3.775,-3.9381,0.0,0.0,-4.3979,-4.596,-4.6935,-4.7623,-4.8252,-4.7833,-4.7653,0.0,0.0,0.0,0.0,0.0,0.0,-4.7309,0.0,-4.7309,-4.7309,-4.7309,-4.7294,-4.7249,-4.6651,-4.5978,-4.5259,-4.4556,-4.3254,-4.1407,-4.0711,-4.0038,-3.9284,-3.8018,-3.7389,-3.7285,-3.6043,-3.5504,-3.5504,-3.5504,-3.5504,-3.5504,-3.5504,-3.5504,-3.5504,-3.5504,-3.5504,-3.5504,0.0,0.0,0.0,0.0,0.0,0.0,0.0,0.0,0.0,0.0,0.0,0.0,0.0,0.0,0.0,0.0,0.0,0.0,-3.4449,-3.3759,-3.3378,-3.3339,-3.3321,-3.3581,-3.4139,-3.4224,-3.4685,-3.5486,-3.5674,-3.5793,-3.5865,-3.5948,-3.5948,-3.5892,-3.5548,-3.5392,-3.5381,-3.5861,-3.6652,-3.7581,-3.7325,-3.8346,-3.9924,-3.9189,-3.8836,-3.8608,-3.7535,-3.6313,-3.479,0.0,0.0,0.0,0.0,-3.3354,-3.4301,-3.4046,-3.5287,-3.6649,-3.629,-3.6484,-3.6767,-3.6664,-3.5475,-3.4499,-3.5115,-3.5362,-3.5793,-3.6994,-3.7322,-3.804,0.0,0.0,0.0,-4.5878,-4.7698,0.0,-4.9045,-4.9284,0.0,-4.7713,0.0,-4.7848,-4.7354,-4.7309,0.0,0.0,-4.7309,-4.7309,-4.7309,-4.7309,-4.7085,-4.6591,-4.6369,-4.5753,-4.4571,-4.3434,-4.2396,-4.1407,-4.0711,-3.9783,-3.8631,-3.7778,-3.715,-3.6671,-3.5863,-3.5504,-3.5504,-3.5504,-3.5504,-3.5504,-3.5504,-3.5504,-3.5504,-3.5504,-3.5504,-3.5504,0.0,0.0,0.0,0.0,0.0,0.0,0.0,0.0,0.0,0.0,0.0,0.0,0.0,0.0,0.0,0.0,0.0,0.0,0.0,-3.4929,-3.4587,-3.4443,-3.4438,-3.4751,-3.5447,-3.6025,-3.6547,-3.6997,-3.7806,-3.8198,-3.8194,-3.83,-3.8432,-3.8516,-3.823,-3.8014,-3.7931,-3.8061,-3.8498,0.0,0.0,-3.9121,-4.0624,-4.0162,-4.0131,-4.0172,-3.8985,-3.6795,0.0,0.0,0.0,-3.2873,-3.312,-3.3847,-3.4632,-3.4426,0.0,-3.6745,-3.659,-3.7014,-3.7533,-3.7564,-3.6634,-3.5888,-3.6708,-3.6881,-3.7198,-3.8244,-3.8332,0.0,-3.9132,-4.0994,0.0,0.0,0.0,0.0,-4.9194,-4.909,-4.876,0.0,-4.7982,0.0,-4.7339,-4.7309,-4.7309,0.0,-4.7309,-4.7309,-4.7309,-4.704,-4.6711,-4.6294,-4.5753,-4.4945,-4.3858,-4.2581,-4.1782,-4.1407,-4.0427,-3.9409,-3.8362,-3.7704,-3.7075,-3.6447,-3.5789,-3.5504,-3.5504,-3.5504,-3.5504,-3.5504,-3.5504,-3.5504,-3.5504,-3.5504,-3.5504,-3.5459,0.0,0.0,0.0,0.0,0.0,0.0,0.0,0.0,0.0,0.0,-3.6442,-3.6865,0.0,0.0,0.0,0.0,0.0,0.0,0.0,0.0,-3.5759,-3.5707,-3.5404,-3.5611,-3.6446,-3.7169,-3.7632,-3.7782,-3.9045,-3.9679,-3.9735,-4.0032,-4.0285,-4.0527,-4.0258,-4.0285,-4.0477,-3.9754,-3.9442,-3.9361,-3.8833,-3.9096,-3.989,0.0,-4.1375,-4.1405,-4.0145,0.0,0.0,0.0,-3.3056,-3.3257,-3.3788,-3.4451,-3.5035,-3.4825,-3.577,-3.6783,-3.6615,-3.7531,-3.8609,-3.8708,-3.8676,-3.87,-3.893,-3.9351,-3.972,-3.981,0.0,-3.9463,-3.8777,-4.056,-4.2184,-4.2466,0.0,-4.6905,-4.9015,-4.8207,-4.7863,-4.9045,-4.8057,-4.7309,-4.7309,-4.7309,-4.7309,-4.7309,-4.7309,-4.7309,-4.7309,-4.6681,-4.6204,-4.6025,-4.484,-4.3873,-4.3305,-4.2043,-4.1422,-4.1369,-4.0053,-3.905,-3.8362,-3.7704,-3.7075,-3.6447,-3.5789,-3.5504,-3.5504,-3.5504,-3.5504,-3.5504,-3.5504,-3.5504,-3.5504,-3.5504,-3.5504,-3.54,0.0,0.0,0.0,0.0,0.0,0.0,0.0,0.0,0.0,0.0,-3.77,-3.7777,0.0,0.0,0.0,0.0,0.0,0.0,0.0,0.0,0.0,-3.6828,-3.6547,-3.6689,-3.7272,-3.766,-3.8288,-3.9238,-3.9762,-4.0129,-4.0345,-4.0406,-4.0511,-4.0649,-4.0488,-4.0511,-4.0649,-4.041,-4.0161,-3.9986,-4.0261,-4.0722,-4.1292,-4.1878,0.0,0.0,0.0,0.0,0.0,0.0,-3.4048,-3.2498,-3.3084,-3.3964,-3.4924,-3.589,-3.6577,-3.7261,-3.8122,-3.8896,-3.9486,-3.9495,-3.9172,-3.9019,-3.9736,-3.9439,0.0,0.0,-3.9537,-3.8995,-3.8806,-3.9483,-4.0749,-4.2803,0.0,0.0,0.0,0.0,-4.8192,0.0,0.0,0.0,0.0,-4.7309,0.0,0.0,-4.7309,-4.7309,-4.7309,-4.6681,-4.5771,-4.4691,-4.3858,-4.3409,-4.329,-4.2043,-4.1422,-4.1369,-4.0053,-3.905,-3.8362,-3.7704,-3.7075,-3.6447,-3.5789,0.0,-3.5504,-3.5504,-3.5504,-3.5504,-3.5504,-3.5504,-3.5504,-3.5504,-3.5504,-3.54,0.0,0.0,0.0,0.0,0.0,0.0,0.0,-3.6765,-3.7313,-3.8278,-3.8938,-3.9142,-3.8719,-3.9046,-3.9296,0.0,0.0,0.0,0.0,0.0,0.0,0.0,0.0,0.0,-3.8117,-3.8795,-3.9421,-4.0027,0.0,-4.1208,-4.0926,-4.1166,-4.1068,-4.0697,-4.0636,-4.0649,-4.0686,-4.0559,-4.0588,-4.0728,-4.0779,-4.1378,-4.2233,0.0,0.0,0.0,0.0,0.0,0.0,0.0,-3.6081,-3.4868,-3.4714,-3.5244,-3.6125,-3.6972,-3.7358,-3.7636,-3.8523,-3.9203,-3.98,-4.0225,-3.9916,-3.9731,-4.05,0.0,0.0,0.0,-3.9782,-3.9405,-3.8954,0.0,0.0,-4.2175,0.0,0.0,0.0,0.0,0.0,0.0,0.0,0.0,0.0,-4.7309,-4.7309,-4.7309,-4.6995,-4.68,-4.68,-4.5828,-4.4784,-4.3798,-4.3454,-4.329,-4.329,-4.2043,-4.1422,-4.1369,-4.0053,-3.905,-3.8377,-3.8063,-3.7389,-3.6477,-3.6148,-3.5818,-3.5504,-3.5504,-3.5504,-3.5504,-3.5504,-3.5504,-3.5504,-3.5504,-3.5504,-3.5355,0.0,0.0,0.0,0.0,0.0,0.0,-3.6521,-3.7361,-3.8201,-3.9059,-4.0115,-4.0535,-3.9892,-4.0392,-4.0785,0.0,0.0,0.0,0.0,0.0,0.0,0.0,0.0,0.0,0.0,0.0,0.0,-4.0758,-4.1881,0.0,0.0,0.0,0.0,0.0,-4.098,-4.087,-4.0718,-4.0596,-4.0788,0.0,0.0,-4.17,0.0,0.0,0.0,0.0,0.0,0.0,0.0,0.0,-3.8366,-3.7981,-3.7126,-3.7084,-3.738,-3.7755,-3.7935,-3.8145,-3.888,-3.9631,-4.0332,-4.0976,-4.0847,-4.0717,-4.1293,-4.073,0.0,0.0,-4.0096,-3.9833,-3.9059,0.0,-4.0372,0.0,-4.2023,0.0,0.0,0.0,0.0,0.0,0.0,0.0,0.0,-4.7174,0.0,-4.71,-4.6352,-4.5846,-4.5846,-4.4885,-4.4003,-4.3319,-4.329,-4.323,-4.3135,-4.1968,-4.1347,-4.116,-3.9978,-3.9125,-3.8601,-3.8317,-3.7629,-3.6671,-3.6387,-3.5983,-3.5504,-3.5504,-3.5504,-3.5504,-3.5504,-3.5504,-3.5504,-3.5504,-3.5504,-3.531,0.0,0.0,0.0,0.0,0.0,0.0,-3.7667,-3.8372,-3.9171,-4.021,-4.1107,-4.1654,-4.1585,-4.1643,-4.1681,0.0,0.0,0.0,0.0,0.0,0.0,0.0,0.0,0.0,0.0,0.0,0.0,-4.1946,-4.2064,0.0,0.0,0.0,0.0,0.0,0.0,-4.1468,-4.0796,-4.0704,0.0,0.0,0.0,0.0,0.0,0.0,0.0,0.0,0.0,0.0,0.0,0.0,0.0,-4.0338,-3.9536,-3.8702,-3.7983,-3.7796,0.0,0.0,-3.9943,-4.0998,-4.1805,-4.1869,-4.2012,-4.2132,-4.2185,0.0,0.0,-4.0096,-4.0096,-3.9833,-3.9059,0.0,0.0,0.0,0.0,-4.1339,0.0,0.0,0.0,0.0,0.0,0.0,0.0,-4.677,-4.6369,-4.6369,-4.5229,-4.4496,-4.4496,-4.4392,-4.4003,-4.3319,-4.329,-4.3045,-4.25,-4.1782,-4.1085,-4.0487,-3.9768,-3.9394,-3.929,-3.8063,-3.7434,-3.7255,-3.6103,-3.5564,0.0,-3.5504,-3.5504,-3.5504,-3.5504,-3.5504,-3.5504,-3.5504,-3.5504,-3.531,0.0,0.0,0.0,0.0,0.0,0.0,-3.8348,-3.8714,-3.9393,-4.0805,-4.1464,-4.2181,-4.3201,-4.3297,-4.3104,-4.2624,-4.1928,0.0,0.0,0.0,0.0,0.0,0.0,0.0,0.0,0.0,-4.1448,-4.2524,-4.2924,0.0,0.0,0.0,0.0,0.0,0.0,-4.2548,-4.2244,-4.2163,0.0,0.0,0.0,0.0,0.0,0.0,0.0,0.0,0.0,0.0,0.0,0.0,0.0,0.0,-3.9722,-3.9409,0.0,0.0,-3.8697,-3.9238,-3.9206,-4.0563,-4.1997,-4.1997,-4.2169,-4.2286,-4.2286,0.0,-4.0096,-4.0096,-4.0096,-3.9995,-3.9688,0.0,0.0,0.0,0.0,0.0,0.0,0.0,0.0,0.0,0.0,0.0,0.0,0.0,-4.595,-4.5185,-4.3995,-4.3121,-4.2685,-4.3326,-4.3559,-4.3305,-4.2955,-4.2626,-4.2396,-4.1309,-4.0651,-4.0382,-3.932,-3.902,-3.9328,-3.8018,-3.7404,-3.736,-3.6477,-3.5863,0.0,-3.5504,-3.5504,-3.5504,-3.5504,-3.5504,-3.5504,-3.5504,-3.5504,-3.531,0.0,0.0,0.0,0.0,0.0,-3.8299,-3.8866,-3.9199,-3.9877,-4.1274,-4.1869,-4.272,-4.4143,-4.4528,-4.4451,-4.3893,-4.2738,0.0,0.0,0.0,0.0,0.0,0.0,0.0,0.0,0.0,-4.2259,-4.3156,-4.3737,-4.4083,0.0,0.0,-4.4374,-4.357,0.0,0.0,0.0,0.0,0.0,0.0,0.0,0.0,0.0,0.0,0.0,0.0,0.0,0.0,0.0,0.0,0.0,0.0,0.0,0.0,0.0,0.0,-3.8981,-3.96,-3.9235,-4.0571,-4.2072,-4.2072,-4.2196,-4.2236,0.0,0.0,-4.0096,-4.0096,-4.0096,-4.0096,-4.0096,-3.8832,0.0,0.0,0.0,-3.8272,-4.0741,0.0,0.0,0.0,0.0,-4.4975,0.0,-4.5696,-4.5218,-4.4067,-4.3266,-4.2453,-4.1657,-4.2684,-4.3155,-4.2805,-4.2529,-4.2306,-4.2111,-4.0965,-4.0307,-4.0098,-3.9155,-3.8945,-3.9328,-3.8018,-3.7404,-3.736,-3.6552,-3.5938,0.0,-3.5504,-3.5504,-3.5504,-3.5504,-3.5504,-3.5504,-3.5504,-3.537,-3.504,0.0,0.0,0.0,0.0,0.0,-3.9296,-3.9296,-3.9969,-4.0796,-4.1673,-4.2547,-4.3393,-4.4201,-4.5075,-4.5575,-4.5575,-4.4469,0.0,0.0,0.0,0.0,0.0,0.0,0.0,0.0,0.0,-4.2851,-4.3998,-4.4401,-4.4769,-4.5088,-4.5419,-4.5182,-4.4479,0.0,0.0,0.0,0.0,0.0,0.0,0.0,0.0,0.0,0.0,0.0,0.0,0.0,0.0,0.0,0.0,0.0,0.0,0.0,-4.138,-4.0508,0.0,-3.877,-3.9955,-4.0688,-4.1529,-4.219,-4.219,-4.2261,-4.21,0.0,0.0,-4.0096,-4.0096,-4.0096,-4.0096,-4.0096,-3.8832,0.0,0.0,0.0,0.0,-4.0127,0.0,0.0,0.0,0.0,-4.3574,-4.4272,-4.4332,-4.4062,-4.3349,-4.3305,0.0,-4.167,-4.2684,-4.2765,-4.1629,-4.2144,-4.2096,-4.1437,-4.0726,-4.0068,-3.9388,-3.9388,-3.9373,-3.9328,-3.8018,-3.7404,-3.7345,-3.6073,-3.5519,0.0,-3.5504,-3.5504,-3.5504,-3.5504,-3.5504,-3.5504,-3.5504,-3.507,-3.4414,0.0,0.0,0.0,0.0,0.0,0.0,-4.0131,-4.0342,-4.1035,-4.2508,-4.2931,-4.3624,-4.5037,-4.5441,-4.5594,-4.5594,-4.4537,0.0,0.0,0.0,0.0,0.0,0.0,0.0,0.0,-4.2837,-4.329,-4.3662,-4.4035,-4.4387,-4.4776,-4.5096,-4.5256,-4.5244,-4.5244,-4.5109,0.0,0.0,0.0,0.0,0.0,0.0,0.0,0.0,0.0,0.0,0.0,0.0,0.0,0.0,0.0,0.0,0.0,0.0,0.0,-3.968,-3.96,-3.9803,-3.956,-4.041,-4.1387,-4.1387,-4.1466,-4.1491,-4.1255,0.0,-4.0096,-4.0096,-4.0096,-4.0096,-4.0096,-3.8832,0.0,0.0,0.0,0.0,0.0,0.0,0.0,0.0,0.0,-4.4586,0.0,0.0,-4.4007,-4.3349,-4.2589,-4.1643,-4.049,-4.106,-4.1497,-4.1587,-4.1661,-4.1632,-4.1422,-4.0277,-3.9634,-3.9373,-3.8945,-3.8721,-3.8676,-3.7375,-3.6776,-3.6731,-3.5878,-3.5504,-3.5504,-3.5504,-3.5504,-3.5504,-3.5504,-3.5504,-3.5504,-3.5504,-3.507,-3.4414,0.0,0.0,0.0,0.0,0.0,0.0,-4.0496,-4.0496,-4.1131,-4.2874,-4.3104,-4.3739,-4.5421,-4.5594,-4.5594,-4.5594,-4.4949,0.0,0.0,0.0,0.0,0.0,0.0,0.0,-4.2745,-4.3048,-4.3286,-4.3515,-4.3636,-4.3927,-4.4373,-4.4865,-4.5211,-4.5419,-4.5531,-4.5594,0.0,0.0,0.0,0.0,0.0,0.0,-4.3214,0.0,0.0,0.0,0.0,0.0,0.0,0.0,0.0,0.0,0.0,0.0,0.0,0.0,-4.005,-3.9939,0.0,-4.0386,-4.1084,-4.1084,-4.1121,0.0,0.0,0.0,-3.9584,-3.9279,-3.9226,-3.9226,-3.9226,-3.8189,0.0,0.0,0.0,0.0,0.0,0.0,0.0,0.0,0.0,0.0,0.0,-4.3793,-4.3738,-4.3319,-4.2644,-4.1726,-4.0618,-4.1011,-4.1082,-4.0617,-4.0891,-4.101,-4.101,-3.9948,-3.9388,-3.9373,-3.8721,-3.8392,-3.8347,-3.6689,-3.5946,-3.5883,-3.4835,-3.4591,0.0,-3.4953,-3.5166,-3.5504,-3.5504,-3.5504,-3.5474,-3.522,-3.4681,-3.4039,0.0,0.0,0.0,0.0,0.0,0.0,0.0,-4.0496,-4.1131,-4.2874,-4.3104,-4.3739,-4.5421,-4.5594,-4.5594,-4.5594,-4.5594,0.0,0.0,0.0,0.0,0.0,0.0,0.0,-4.3426,-4.292,-4.2902,-4.3444,-4.3261,-4.3426,-4.3967,-4.4688,-4.5052,-4.5107,-4.5429,-4.5577,-4.5559,-4.4919,-4.4618,-4.4527,-4.3823,-4.3196,0.0,0.0,0.0,0.0,0.0,0.0,0.0,0.0,0.0,0.0,0.0,0.0,0.0,0.0,0.0,0.0,0.0,-4.1067,-4.1119,-4.1119,-4.1119,-4.0735,-3.9235,0.0,0.0,0.0,0.0,0.0,0.0,0.0,0.0,0.0,0.0,0.0,0.0,0.0,0.0,0.0,-4.2111,0.0,-4.241,-4.291,-4.323,-4.323,-4.3185,-4.2632,-4.1416,-4.1852,-4.1113,-3.8822,-3.9629,-4.01,-4.0159,-3.946,-3.9154,-3.9226,-3.854,-3.8217,-3.8092,-3.5983,-3.4949,0.0,-3.3304,-3.3206,-3.4027,-3.4061,-3.4658,-3.5504,-3.5504,-3.5474,-3.5355,-3.4711,-3.4038,-3.3335,0.0,0.0,0.0,0.0,0.0,0.0,0.0,0.0,0.0,0.0,-4.3104,-4.3739,-4.5421,-4.5594,-4.5594,0.0,0.0,0.0,0.0,0.0,0.0,0.0,0.0,0.0,-4.2865,-4.2304,-4.2284,-4.2883,-4.2829,-4.3014,-4.3391,-4.3987,-4.4561,-4.5096,-4.5191,-4.5352,-4.5577,-4.515,-4.4837,-4.4553,-4.4076,-4.3403,0.0,0.0,0.0,0.0,-4.2144,-4.2124,0.0,0.0,0.0,0.0,0.0,0.0,0.0,0.0,-3.9662,-3.9199,-3.9381,0.0,-4.0367,-4.0367,-4.0367,-4.0104,0.0,0.0,0.0,0.0,0.0,0.0,0.0,0.0,0.0,0.0,0.0,0.0,0.0,0.0,0.0,-4.2126,-4.315,-4.3464,-4.2485,-4.2545,-4.262,-4.262,-4.2132,-4.1013,-3.9019,-3.9358,-3.8629,-3.6385,-3.6859,-3.7419,-3.7952,-3.688,-3.6707,-3.7412,-3.6844,-3.6291,-3.5761,-3.5247,-3.4341,-3.3191,-3.352,-3.3808,-3.4061,-3.4839,-3.5279,-3.5504,-3.5504,-3.519,-3.4728,-3.4563,-3.3739,-3.2721,0.0,0.0,0.0,0.0,0.0,0.0,0.0,0.0,0.0,0.0,-4.3104,-4.3739,-4.5421,-4.5594,-4.5594,0.0,0.0,0.0,0.0,0.0,0.0,0.0,0.0,-4.2577,-4.2302,-4.1703,-4.1686,-4.2282,-4.2,-4.2251,-4.2978,-4.343,-4.4071,-4.4884,-4.5201,-4.5429,-4.5577,-4.5243,-4.4908,-4.4553,-4.4161,0.0,0.0,0.0,0.0,0.0,-4.2,-4.1853,0.0,-4.1725,-4.1241,-4.0528,0.0,0.0,0.0,0.0,-3.9236,-3.8827,-3.8497,-3.8707,-3.9049,-3.9049,-3.9049,-3.8816,-3.8015,0.0,0.0,0.0,0.0,0.0,0.0,0.0,0.0,0.0,-3.6821,0.0,0.0,0.0,0.0,-4.2366,-4.3024,-4.3081,0.0,-4.1808,-4.1632,-4.1592,-4.0567,-3.9635,-3.8912,-3.8116,-3.7021,-3.5606,-3.5023,-3.5392,-3.6749,-3.585,-3.5649,-3.6165,-3.5319,-3.4696,-3.4335,-3.3575,-3.2767,-3.1997,-3.25,-3.2961,-3.3415,-3.4394,-3.4907,-3.5055,-3.5385,-3.4891,-3.4054,-3.4054,-3.338,-3.2467,0.0,0.0,0.0,0.0,0.0,0.0,0.0,0.0,0.0,0.0,0.0,0.0,0.0,0.0,0.0,0.0,0.0,0.0,0.0,0.0,0.0,0.0,-4.2616,-4.2282,-4.1664,-4.1064,-4.1064,-4.1664,-4.1155,-4.1468,-4.2559,-4.296,-4.3622,-4.454,-4.5171,-4.5485,-4.5504,-4.518,-4.4861,-4.4553,-4.4161,0.0,0.0,0.0,0.0,0.0,0.0,0.0,0.0,-4.1468,-4.0961,-4.0079,-3.9977,0.0,0.0,0.0,0.0,0.0,-3.7835,-3.7515,-3.7501,-3.7719,-3.7793,-3.7602,-3.6783,0.0,0.0,0.0,0.0,0.0,0.0,-3.5133,0.0,0.0,0.0,0.0,-3.9033,-4.0296,-4.1237,-4.1784,-4.1947,0.0,-4.1146,-4.0646,-4.0302,-4.012,-3.8736,-3.8181,-3.8859,-3.7065,-3.5655,-3.4987,-3.3512,-3.3621,-3.5448,-3.4942,-3.4733,-3.486,-3.3757,-3.3221,-3.3193,-3.1823,-3.1106,-3.1007,-3.1143,0.0,-3.2464,-3.3553,-3.4174,-3.4492,-3.5128,-3.4592,-3.3484,-3.338,-3.2931,-3.2258,0.0,0.0,0.0,0.0,0.0,0.0,0.0,0.0,0.0,0.0,0.0,0.0,0.0,0.0,0.0,0.0,0.0,0.0,0.0,0.0,0.0,-4.2751,-4.2203,-4.1643,-4.1064,-4.0497,-4.0497,-4.1041,-4.0949,-4.1268,-4.1958,-4.2503,-4.3264,-4.4102,-4.4567,-4.4919,-4.515,-4.4825,-4.4663,-4.4553,-4.4161,0.0,0.0,0.0,0.0,0.0,0.0,0.0,0.0,-4.085,-4.0625,-3.9994,-3.9385,0.0,0.0,0.0,0.0,0.0,-3.6994,-3.6321,-3.6179,-3.7472,-3.7793,-3.7602,-3.6783,0.0,0.0,0.0,0.0,0.0,0.0,-3.3567,-3.3199,0.0,0.0,-3.6816,0.0,0.0,-3.9313,-3.9452,0.0,-3.9858,-3.8755,-3.856,-3.8296,-3.7753,-3.6967,-3.5989,-3.4768,-3.438,-3.3525,-3.2092,-3.1797,-3.1815,-3.213,-3.162,-3.1746,-3.2518,-3.1878,-3.1559,-3.1559,-3.1318,-3.0758,-3.0075,0.0,-3.1278,-3.1536,-3.3276,-3.4037,-3.4124,-3.4483,-3.4158,-3.3425,-3.2871,-3.2213,-3.1645,0.0,0.0,0.0,0.0,0.0,0.0,0.0,0.0,0.0,0.0,0.0,0.0,0.0,0.0,0.0,0.0,0.0,0.0,0.0,0.0,-4.4105,-4.3032,-4.2213,-4.1512,-4.0903,-4.0368,-4.0229,-4.0473,-4.0859,-4.1312,-4.1814,-4.2905,-4.3619,-4.4031,-4.4433,-4.4701,-4.4825,-4.4676,-4.4474,-4.4261,0.0,0.0,0.0,0.0,0.0,0.0,0.0,0.0,0.0,0.0,-4.0492,-3.991,-3.8751,0.0,0.0,0.0,0.0,0.0,-3.5661,-3.5495,-3.5539,-3.571,-3.5759,-3.5537,-3.4629,0.0,0.0,0.0,0.0,0.0,0.0,0.0,-3.3904,-3.5118,0.0,-3.6974,-3.8171,-3.8337,-3.8503,0.0,0.0,-3.8553,-3.7765,-3.7086,-3.66,-3.6317,-3.4869,-3.3962,-3.3806,-3.2695,-3.1849,-3.1427,-3.1122,-3.0972,-3.0972,-3.0733,-3.0833,-3.1254,-3.0689,-3.0457,-3.0457,-3.0457,-3.0216,-2.9856,0.0,-3.1499,-3.2069,-3.3449,-3.3906,-3.378,-3.4316,-3.3649,-3.2363,-3.2064,-3.1765,-3.1511,0.0,0.0,0.0,0.0,0.0,0.0,0.0,0.0,0.0,0.0,0.0,0.0,0.0,0.0,0.0,0.0,0.0,0.0,0.0,-4.4861,-4.4317,-4.3424,-4.2571,-4.174,-4.0926,-4.0186,-3.9901,-4.0096,-4.0474,-4.1053,-4.1835,-4.3226,-4.3881,-4.3896,-4.4209,-4.4392,-4.446,-4.4378,-4.4209,-4.4001,0.0,0.0,0.0,0.0,0.0,0.0,0.0,0.0,0.0,0.0,0.0,0.0,0.0,0.0,0.0,-3.5878,-3.542,-3.5227,-3.4467,-3.4599,-3.4699,-3.3675,-3.3742,-3.3782,-3.2951,-3.2704,0.0,0.0,0.0,0.0,0.0,-3.3406,0.0,-3.5763,-3.6313,-3.6784,-3.7475,-3.7434,-3.7515,-3.8047,-3.7574,-3.7059,-3.6564,-3.5717,-3.509,-3.4731,-3.3173,-3.245,-3.3037,-3.1503,-3.0733,-3.1009,-3.0633,-3.0419,-3.0419,-3.0419,-3.0419,-3.0419,-2.9993,-2.9792,-2.9792,-2.9792,-2.9792,-2.9856,-3.0796,-3.1609,-3.2357,-3.3518,-3.3846,-3.3682,-3.4274,-3.3365,-3.1735,-3.1735,-3.163,-3.1511,0.0,0.0,0.0,0.0,0.0,0.0,0.0,0.0,0.0,0.0,0.0,0.0,0.0,0.0,0.0,0.0,0.0,0.0,0.0,-4.5074,-4.4726,-4.3982,-4.341,-4.2402,-4.0949,-3.9639,-3.9342,-4.0096,-3.9408,-4.001,-4.1832,-4.2977,-4.3531,-4.3531,-4.3582,-4.3758,-4.4013,-4.371,-4.3742,-4.3971,-4.3662,0.0,0.0,0.0,0.0,0.0,0.0,0.0,0.0,0.0,0.0,0.0,0.0,0.0,-3.6591,-3.5122,-3.4727,-3.4593,-3.3804,-3.3424,-3.3025,-3.2006,-3.2887,-3.3882,-3.3456,-3.2971,0.0,-3.3252,0.0,0.0,0.0,-3.1913,-3.2563,-3.3262,-3.4635,-3.5835,-3.6425,0.0,-3.5709,-3.5747,-3.5267,-3.4749,-3.418,-3.4067,-3.3588,-3.2529,-3.2294,-3.1817,-3.0891,-3.0698,-3.0394,-2.993,-2.9867,-2.9854,-2.9854,-2.9854,-2.9854,-2.9854,-2.9817,-2.9792,-2.9792,-2.9792,-2.9792,-2.9856,-3.0796,-3.1254,-3.1426,-3.3241,-3.4003,-3.4008,-3.4379,-3.3649,-3.2437,-3.2437,-3.2034,-3.1511,0.0,0.0,0.0,0.0,0.0,0.0,0.0,0.0,0.0,0.0,0.0,-4.597,-4.5633,0.0,0.0,0.0,0.0,0.0,0.0,-4.5096,-4.4977,-4.4701,-4.3726,-4.2922,-4.2326,-4.0902,-4.0144,-4.0096,-4.0144,-4.0789,-4.1997,-4.2675,-4.2995,-4.3014,-4.3357,-4.3563,-4.3677,-4.3546,-4.3563,-4.3695,-4.3548,-4.3515,0.0,0.0,0.0,0.0,0.0,0.0,0.0,0.0,-3.9507,-3.8123,-3.687,-3.6032,-3.5289,-3.4268,-3.3673,-3.3288,-3.2961,-3.2979,-3.2801,-3.1443,-3.1701,0.0,0.0,-3.1499,-3.1408,-3.1616,-3.1461,0.0,0.0,0.0,-3.293,-3.3495,-3.4399,-3.5056,-3.5316,-3.5165,-3.4994,-3.4994,-3.455,-3.4123,-3.3922,-3.3269,-3.2679,-3.224,-3.1599,-3.1047,-3.0633,-3.0281,-3.0168,-3.0306,-3.0306,-3.0306,-3.0306,-3.0306,-3.0131,-2.9792,-2.9792,-2.9792,-2.9792,-2.9792,-3.0101,-3.0696,-3.1044,-3.1852,-3.2996,-3.3705,-3.4114,-3.4292,-3.3988,-3.3305,-3.2512,-3.2512,-3.2064,-3.1511,0.0,0.0,0.0,0.0,0.0,0.0,0.0,0.0,-4.5568,0.0,0.0,0.0,0.0,-4.5314,0.0,0.0,0.0,0.0,-4.5243,-4.5253,-4.5211,-4.5096,-4.4158,-4.3504,-4.3221,-4.206,-4.1105,-4.0343,-4.0709,-4.1197,-4.1734,-4.2203,-4.2519,-4.2711,-4.2865,-4.3069,-4.325,-4.325,-4.325,-4.3268,-4.3427,-4.3515,0.0,0.0,0.0,0.0,0.0,0.0,0.0,0.0,-3.8989,-3.8005,-3.6463,-3.5225,-3.4248,-3.3752,-3.2936,-3.2139,-3.1886,-3.193,-3.1787,-3.063,0.0,0.0,-3.059,-3.0482,-3.0457,-3.0783,-3.1009,0.0,-3.1637,0.0,0.0,0.0,-3.4135,-3.468,-3.468,-3.4575,-3.4462,-3.4462,-3.3972,-3.3633,-3.3633,-3.2767,-3.2139,-3.1964,-3.1122,-3.0545,-3.0369,-2.9993,-3.0043,-3.0595,-3.0444,-3.0444,-3.062,-3.0444,-3.0168,-2.9792,-3.0113,-3.0241,-3.0241,-3.0241,-3.0771,-3.1669,-3.196,-3.282,-3.4027,-3.4361,-3.4607,-3.4756,-3.4307,-3.3589,-3.2826,-3.2826,-3.2243,-3.1511,0.0,0.0,0.0,0.0,0.0,0.0,0.0,0.0,-4.5485,-4.514,-4.5794,0.0,0.0,0.0,0.0,0.0,0.0,0.0,-4.5577,-4.5594,-4.5448,-4.5118,-4.4769,-4.4158,-4.322,-4.2868,-4.2101,-4.0903,-4.0903,-4.088,-4.0903,-4.1512,-4.2121,-4.2673,-4.2062,-4.2142,-4.2692,-4.2692,-4.2692,-4.275,-4.3268,-4.3479,-4.3479,0.0,0.0,0.0,0.0,0.0,0.0,0.0,-3.8658,-3.7503,-3.6968,-3.534,-3.3598,-3.3582,-3.261,-3.1322,-3.0524,-3.0048,-2.9709,0.0,0.0,0.0,-3.0344,-3.0181,-3.0105,-3.1185,-3.0972,-3.0608,-3.062,-3.1486,0.0,-3.2202,-3.3608,-3.4655,-3.4655,-3.4236,-3.3884,-3.3884,-3.3407,-3.3111,-3.3111,-3.2541,-3.1976,-3.1424,-3.0896,-3.0369,-2.9829,-2.9792,-3.0043,-3.0595,-3.008,-3.0055,-3.0608,-3.0068,-2.9792,-2.9792,-3.072,-3.118,-3.1217,-3.1217,-3.1742,-3.2664,-3.3602,-3.4027,-3.4095,-3.51,-3.5504,-3.5504,-3.5504,-3.4681,-3.3499,-3.3499,-3.2662,-3.1511,0.0,0.0,0.0,0.0,0.0,0.0,0.0,0.0,-4.5485,-4.514,-4.5306,0.0,0.0,0.0,0.0,0.0,0.0,0.0,-4.5222,-4.5476,-4.5559,-4.5467,-4.4889,-4.4482,-4.4205,-4.2795,-4.1686,-4.0903,-4.0504,-4.0336,-4.0343,-4.0897,-4.1268,-4.1446,-4.1686,-4.1895,-4.208,-4.208,-4.208,-4.2121,-4.2694,-4.2939,-4.2922,0.0,0.0,0.0,0.0,0.0,0.0,0.0,0.0,0.0,-3.6679,-3.5495,-3.4196,-3.3726,-3.2514,-3.1152,-3.0475,-2.9622,0.0,-2.8778,0.0,0.0,0.0,-2.9917,0.0,0.0,-3.0934,-3.0269,-3.1022,-3.1424,0.0,-3.1637,-3.2717,-3.3558,-3.3558,-3.342,-3.3319,-3.3319,-3.2817,-3.2466,-3.2466,-3.1637,-3.1022,-3.0859,-3.0344,-2.9967,-2.9804,-2.9792,-3.0043,-3.0595,-3.008,-3.0055,-3.0608,-3.0068,-2.9792,-2.9792,-3.0075,-3.0558,-3.1217,-3.1888,-3.2713,-3.3602,-3.3876,-3.4394,-3.51,-3.5392,-3.5504,-3.5504,-3.5504,-3.4681,-3.3499,-3.3499,-3.2662,-3.1511,0.0,0.0,0.0,0.0,0.0,0.0,-4.4884,-4.5055,-4.5129,-4.4931,-4.4769,-4.4535,0.0,0.0,0.0,0.0,0.0,0.0,-4.5263,-4.5495,-4.5594,-4.5594,-4.4966,-4.446,-4.4169,-4.2607,-4.1621,-4.1268,-4.049,-4.0096,-4.0096,-4.0441,-4.0703,-4.0903,-4.1059,-4.1241,-4.1446,-4.1446,-4.1271,-4.109,-4.1976,-4.2302,-4.2245,0.0,0.0,0.0,0.0,0.0,0.0,0.0,0.0,0.0,-3.7164,-3.5996,-3.4878,-3.4214,-3.2356,-3.0384,-2.9917,-2.8995,0.0,-2.83,-2.8637,-2.895,-2.9176,0.0,0.0,0.0,0.0,-3.0319,-3.0959,-3.1085,0.0,-3.1361,-3.2152,-3.2817,-3.3086,-3.3124,-3.3124,-3.3124,-3.2566,-3.2215,-3.2215,-3.1248,-3.062,-3.062,-3.0105,-2.9792,-2.9792,-2.9792,-3.0043,-3.0595,-3.008,-3.0055,-3.0608,-3.0068,-2.9792,-2.9792,-3.0177,-3.0658,-3.1217,-3.2177,-3.3101,-3.4027,-3.4428,-3.4953,-3.5504,-3.5504,-3.5504,-3.5474,-3.5205,-3.4442,-3.3469,-3.32,-3.2407,-3.1511,0.0,0.0,-4.2635,-4.3369,0.0,0.0,-4.454,-4.4637,-4.4631,-4.4593,-4.4276,-4.3912,0.0,0.0,0.0,0.0,0.0,0.0,0.0,-4.5594,-4.5594,-4.5594,-4.4966,-4.4252,-4.3495,-4.2386,-4.1771,-4.1707,-4.0642,-4.0096,-4.0096,-4.0028,-4.0317,-4.0786,-4.0243,-4.0266,-4.0723,-4.0723,-4.0291,-3.9737,-4.1016,-4.1403,-4.1319,-4.2131,0.0,0.0,0.0,0.0,0.0,0.0,0.0,0.0,-3.8105,-3.6735,-3.563,-3.4891,-3.2223,-2.9474,-2.9171,0.0,0.0,-2.8113,-2.8562,0.0,-2.955,-3.009,-3.0557,-3.0608,0.0,-3.0557,-3.0608,-3.062,-3.0771,-3.1248,-3.1825,-3.2378,-3.2855,-3.3011,-3.298,-3.293,-3.2416,-3.2064,-3.2064,-3.1135,-3.0545,-3.0545,-3.008,-2.9792,-2.9792,-2.9792,-3.0018,-3.052,-3.0055,-3.003,-3.0532,-3.0043,-2.9792,-2.9792,-3.0658,-3.1068,-3.1106,-3.2213,-3.3241,-3.4211,-3.51,-3.5474,-3.5415,-3.5474,-3.5429,-3.5265,-3.4696,-3.4038,-3.3335,-3.2796,-3.2123,-3.1511,0.0,0.0,-4.3313,-4.3478,0.0,0.0,-4.454,-4.4806,-4.4896,-4.4631,-4.4527,-4.4223,-4.3582,-4.3742,0.0,-4.4553,0.0,0.0,0.0,-4.5594,-4.5594,-4.5594,-4.4966,-4.4177,-4.3293,-4.2315,-4.1578,-4.1087,-4.0441,-4.0096,-4.0096,-3.952,-3.9611,-4.0245,-3.9553,-3.9306,-3.9411,-3.9411,-3.8986,-3.837,-3.9084,-3.9342,-3.9371,-4.0017,-4.0071,0.0,0.0,0.0,0.0,0.0,0.0,0.0,-3.8133,-3.753,-3.681,-3.4914,-3.2617,-3.052,-2.9831,-2.8544,0.0,0.0,-2.9189,-2.9423,-2.8652,-2.9244,-3.0093,-3.052,-3.0269,-3.0105,-3.0532,-3.062,-3.0658,-3.0758,-3.1587,-3.2102,-3.18,-3.2127,-3.224,-3.18,-3.1286,-3.0959,-3.0959,-3.0357,-2.9967,-2.9967,-2.9867,-2.9792,-2.9792,-2.9792,-2.9842,-2.9967,-2.9854,-2.9854,-2.9967,-2.9854,-2.9792,-2.9792,-2.9998,-3.0113,-3.0177,-3.2621,-3.4259,-3.518,-3.5407,-3.519,-3.4773,-3.528,-3.4876,-3.3963,-3.4369,-3.3754,-3.2766,-3.314,-3.2542,-3.1585,0.0,0.0,0.0,0.0,0.0,0.0,0.0,0.0,-4.4773,-4.436,-4.4165,-4.3931,-4.3548,-4.3662,0.0,0.0,0.0,0.0,0.0,-4.5513,-4.5522,-4.5381,-4.4884,-4.4158,-4.322,-4.2277,-4.1512,-4.0903,-3.9969,-3.9714,-4.0096,-3.9723,-3.974,-4.0079,-3.9326,-3.8988,-3.8971,-3.8616,-3.8041,-3.7422,-3.806,-3.8257,-3.8256,-3.8902,-3.9246,-3.9335,-3.9175,0.0,0.0,0.0,0.0,0.0,0.0,0.0,-3.7166,-3.5763,-3.3177,-3.0631,-3.0052,0.0,0.0,-2.8648,0.0,-2.9495,-2.8347,-2.8557,-2.8904,-2.869,-2.9248,-2.988,-3.0168,-3.0218,-3.0306,-3.057,-3.1085,-3.1436,-3.1399,-3.1637,-3.1712,-3.1424,-3.0934,-3.062,-3.062,-3.0118,-2.9792,-2.9792,-2.9792,-2.9792,-2.9792,-2.9792,-2.9792,-2.9792,-2.9792,-2.9792,-2.9792,-2.9792,-2.9792,-2.9792,-2.9792,-3.0292,-3.1206,-3.2642,-3.4109,-3.5504,-3.5504,-3.5295,-3.4996,-3.5355,-3.51,-3.4427,-3.4128,-3.3589,-3.2946,-3.2662,-3.2093,-3.1555,0.0,0.0,0.0,0.0,0.0,0.0,0.0,0.0,0.0,-4.4064,-4.3775,-4.3546,-4.3515,-4.3546,-4.3693,0.0,0.0,0.0,0.0,0.0,0.0,-4.5201,-4.4812,-4.4186,-4.3302,-4.2318,-4.1512,-4.0903,-3.9562,-3.9236,-3.9901,-3.9622,-3.9664,-3.9868,-3.8983,-3.8687,-3.8751,-3.8024,-3.728,-3.666,-3.7263,-3.7399,-3.7318,-3.794,-3.8531,-3.9014,-3.8722,-3.869,-3.876,-3.8601,0.0,0.0,0.0,0.0,-3.746,-3.6659,-3.39,-3.1022,0.0,0.0,-2.8268,-2.8759,-2.9199,0.0,-2.8068,-2.7804,-2.7522,-2.6431,-2.7839,-2.9209,-2.9209,-2.9209,-2.9436,-3.0052,-3.0254,-3.0508,-3.1072,-3.1198,-3.1223,-3.1122,-3.0733,-3.047,-3.047,-3.0068,-2.9792,-2.9792,-2.9792,-2.9792,-2.9792,-2.9792,-2.9792,-2.9792,-2.9792,-2.9792,-2.9792,-2.9792,-2.9792,-2.9792,-2.996,-3.102,-3.2855,-3.2855,-3.3822,-3.5504,-3.5504,-3.537,-3.5175,-3.5415,-3.531,-3.4891,-3.3888,-3.3499,-3.3365,-3.2243,-3.1765,-3.169,0.0,0.0,0.0,0.0,0.0,0.0,0.0,0.0,0.0,0.0,-4.3955,-4.3818,-4.3531,-4.3756,-4.3955,0.0,0.0,0.0,-4.4657,0.0,0.0,-4.5513,-4.4943,-4.4298,-4.3642,-4.2421,-4.1512,-4.0903,-3.9562,-3.8962,-3.9043,-3.7752,-3.7856,-3.8993,-3.7612,-3.7394,-3.8007,-3.7246,-3.6485,-3.5769,-3.587,-3.5904,-3.5869,-3.5971,-3.6345,-3.6817,-3.6774,-3.7062,-3.752,-3.7896,-3.8538,0.0,0.0,0.0,-3.8508,-3.669,-3.4936,-3.3351,0.0,0.0,-2.9722,0.0,-2.8611,-2.8056,0.0,0.0,-2.6378,0.0,-2.6047,-2.6935,-2.6935,-2.6935,-2.7273,-2.8271,-2.8826,-2.9343,-2.9925,-3.0419,-3.0532,-3.0068,-2.9942,-2.9905,-2.9905,-2.9829,-2.9792,-2.9792,-2.9792,-2.9792,-2.9792,-2.9792,-2.9792,-2.9792,-2.9792,-2.9792,-2.9792,-2.9792,-2.9792,-2.9792,-3.062,-3.1997,-3.3808,-3.3808,-3.4442,-3.5504,-3.5504,-3.4846,-3.3858,-3.5026,-3.4472,-3.2946,-3.3335,-3.3499,-3.3469,-3.3305,-3.2871,-3.2437,0.0,0.0,0.0,0.0,0.0,0.0,0.0,0.0,0.0,0.0,0.0,-4.3662,-4.3513,-4.3629,0.0,-4.3098,-4.3371,-4.349,-4.3215,-4.3973,-4.4494,-4.4633,-4.4626,-4.4325,-4.37,-4.2045,-4.0883,-4.0279,-3.815,-3.7313,-3.7647,-3.6146,-3.6454,-3.8209,-3.6783,-3.6535,-3.7136,-3.6035,-3.5595,-3.5566,-3.5165,-3.4979,-3.4979,-3.4979,-3.5115,-3.5446,-3.6136,-3.656,-3.6843,-3.7341,-3.7738,-3.8007,-3.7899,0.0,0.0,0.0,-3.5379,0.0,-3.2155,-3.1116,-3.0323,0.0,-2.9247,-2.8793,-2.6925,0.0,-2.6016,-2.4221,-2.4264,-2.4978,-2.6265,-2.6524,-2.6842,-2.7936,-2.8286,-2.8783,-2.9661,-2.9993,-3.0068,-2.9829,-2.9792,-2.9792,-2.9792,-2.9792,-2.9792,-2.9792,-2.9792,-2.9792,-2.9792,-2.9792,-2.9792,-2.9792,-2.9792,-2.9792,-2.9792,-2.9792,-3.0075,-3.0595,-3.1536,-3.2713,-3.4027,-3.4576,-3.51,-3.5504,-3.5504,-3.5175,-3.4666,-3.5265,-3.4996,-3.4173,-3.4083,-3.4038,-3.3993,-3.3634,-3.308,-3.2557,0.0,0.0,0.0,0.0,0.0,0.0,0.0,0.0,0.0,0.0,0.0,0.0,0.0,0.0,0.0,0.0,-4.2522,-4.2476,-4.1995,-4.2813,-4.3482,-4.388,-4.4064,-4.4078,-4.3922,-4.1813,-4.0496,-4.0022,-3.7285,-3.6308,-3.6945,-3.5444,-3.5722,-3.7438,-3.6216,-3.6032,-3.662,-3.5192,-3.4896,-3.5268,-3.438,-3.4035,-3.4002,-3.3818,-3.3773,-3.3924,-3.5219,-3.5685,-3.583,-3.6696,-3.6877,-3.6738,-3.6853,-3.6484,0.0,0.0,0.0,0.0,0.0,0.0,-3.0902,-3.0003,-2.9751,-2.9237,0.0,0.0,-2.5332,0.0,-2.2847,-2.3348,-2.5154,-2.5565,-2.6099,-2.7481,-2.7683,-2.8199,-2.9585,-2.9792,-2.9792,-2.9792,-2.9792,-2.9792,-2.9792,-2.9792,-2.9792,-2.9792,-2.9792,-2.9792,-2.9792,-2.9792,-2.9792,-2.9792,-2.9792,-2.9792,-2.9792,-2.9792,-3.0394,-3.1573,-3.2285,-3.3241,-3.4394,-3.5166,-3.5415,-3.525,-3.5429,-3.54,-3.525,-3.5429,-3.54,-3.519,-3.4713,-3.4608,-3.4651,-3.3993,-3.344,-3.2991,0.0,0.0,0.0,0.0,0.0,0.0,0.0,0.0,0.0,0.0,0.0,0.0,-4.3515,-4.3515,-4.3167,-4.2378,-4.2321,-4.2129,-4.1675,-4.168,-4.2359,-4.384,-4.3245,0.0,-4.4535,-4.2014,-4.0681,-4.0645,-3.7959,-3.7025,-3.7722,-3.618,-3.5889,-3.6645,-3.5857,-3.5958,-3.6606,-3.5209,-3.4627,-3.4541,-3.3237,-3.2715,-3.2635,-3.1999,-3.1742,-3.1917,-3.3284,-3.3756,-3.4022,-3.5826,-3.5972,0.0,0.0,-3.5545,-3.503,0.0,0.0,0.0,0.0,-3.2635,0.0,-3.0958,0.0,0.0,0.0,0.0,-2.3992,-2.2784,-2.2227,-2.2112,-2.263,-2.3034,-2.4016,-2.6224,-2.6595,-2.7342,-2.9507,-2.9792,-2.9792,-2.9792,-2.9792,-2.9792,-2.9792,-2.9792,-2.9792,-2.9792,-2.9792,-2.9792,-2.9792,-2.9792,-2.9792,-2.9792,-2.9792,-2.9792,-2.9792,-2.9792,-3.0709,-3.2522,-3.2558,-3.3581,-3.5424,-3.5472,-3.5145,-3.4593,-3.522,-3.513,-3.4608,-3.5235,-3.5115,-3.4563,-3.4518,-3.4876,-3.537,-3.4713,-3.4444,-3.4324,0.0,0.0,0.0,0.0,0.0,0.0,0.0,0.0,0.0,0.0,0.0,0.0,0.0,-4.3039,-4.2415,-4.159,-4.0598,-3.9908,-3.9745,-4.0416,-4.1402,-4.2689,-4.3001,-4.3589,-4.4574,-4.2115,-4.0545,-3.9979,-3.7221,-3.6046,-3.6368,-3.539,-3.5275,-3.5925,-3.4741,-3.4618,-3.5209,-3.3889,-3.3561,-3.387,-3.2917,-3.2533,-3.2501,-3.227,-3.219,-3.2295,-3.3257,-3.3615,0.0,-3.4878,0.0,0.0,0.0,0.0,0.0,0.0,0.0,0.0,0.0,0.0,0.0,-3.2391,-3.1558,-3.037,-2.853,-2.7261,-2.5773,-2.3491,-2.29,-2.2655,-2.2195,-2.2451,-2.3318,-2.5125,-2.542,-2.616,-2.8398,-2.8727,-2.8976,-2.9702,-2.9792,-2.9792,-2.9792,-2.9792,-2.9792,-2.9792,-2.9792,-2.9792,-2.9792,-2.9792,-2.9792,-2.9792,-2.9792,-2.9792,-2.9792,-2.9792,-3.0419,-3.1706,-3.1706,-3.2713,-3.4528,-3.4134,-3.4168,-3.4503,-3.4292,-3.4083,-3.3903,-3.4562,-3.4728,-3.4548,-3.4966,-3.5295,-3.5429,-3.4758,-3.4234,-3.3754,0.0,0.0,0.0,-4.3515,0.0,-4.3515,-4.3515,-4.3515,-4.3515,-4.3515,0.0,0.0,0.0,0.0,-4.2268,-4.1187,-3.9627,-3.8707,-3.8707,-3.9401,-4.0342,-4.1481,-4.2289,-4.3136,-4.3987,-4.1957,-4.0467,-3.9591,-3.6997,-3.5836,-3.5999,-3.5277,-3.5314,-3.5911,-3.4496,-3.4094,-3.4434,-3.3126,-3.2817,-3.3157,-3.2222,-3.1821,-3.1805,-3.1612,-3.1534,-3.1638,-3.2598,0.0,0.0,0.0,0.0,0.0,0.0,0.0,0.0,0.0,0.0,0.0,-3.3768,0.0,0.0,0.0,0.0,-3.1629,-2.98,0.0,-2.6846,-2.4492,-2.3669,-2.3228,-2.2764,-2.2594,-2.302,-2.4378,-2.4609,-2.5268,-2.7296,-2.7562,-2.7988,-2.9106,-2.9236,-2.9365,-2.9753,-2.9792,-2.9792,-2.9792,-2.9792,-2.9792,-2.9792,-2.9792,-2.9792,-2.9792,-2.9792,-2.9792,-2.9792,-2.9792,-3.0279,-3.1217,-3.1217,-3.2033,-3.3504,-3.3226,-3.3314,-3.3659,-3.3317,-3.329,-3.3529,-3.3994,-3.4174,-3.4219,-3.4651,-3.4831,-3.4771,-3.4322,-3.3873,-3.3395,-4.4654,-4.403,-4.3497,-4.3479,-4.348,-4.348,-4.348,-4.348,-4.348,-4.348,0.0,0.0,0.0,0.0,0.0,-4.1224,-3.9646,-3.8744,-3.8744,-3.8707,-3.9217,-4.0356,-4.1153,-4.194,-4.2779,-4.1542,-4.0466,-3.9591,-3.7475,-3.6535,-3.6738,-3.5966,-3.5992,-3.6617,-3.5227,-3.4541,-3.4374,-3.3063,-3.2482,-3.2377,-3.1061,-3.0552,-3.0492,-2.9894,-2.9711,-2.9868,-3.1159,-3.1641,0.0,-3.3143,0.0,0.0,0.0,0.0,0.0,0.0,0.0,0.0,0.0,0.0,0.0,0.0,0.0,0.0,-3.0836,0.0,-2.6889,-2.5745,-2.4484,-2.3734,-2.4142,-2.3432,-2.3082,-2.4049,-2.4177,-2.4687,-2.6218,-2.6472,-2.6883,-2.7976,-2.8136,-2.8597,-2.9702,-2.9792,-2.9792,-2.9792,-2.9792,-2.9792,-2.9792,-2.9792,-2.9792,-2.9792,-2.9792,-2.9792,-2.9792,-2.9792,-3.0241,-3.118,-3.118,-3.1633,-3.2579,-3.286,-3.2647,-3.2112,-3.2358,-3.2811,-3.344,-3.3455,-3.3469,-3.3469,-3.3484,-3.3499,-3.3499,-3.3469,-3.3469,-3.3365,-4.3828,-4.3662,-4.3375,-4.2995,-4.292,-4.292,-4.292,-4.292,-4.292,0.0,0.0,0.0,-4.1577,-4.1305,-4.1158,-4.1097,-4.0157,-3.957,-3.957,-3.9019,-3.9217,-4.0356,-4.0612,-4.1381,-4.2779,-4.1314,-4.0237,-3.9591,-3.7837,-3.6623,-3.5943,-3.5704,-3.5713,-3.5874,-3.4987,-3.4325,-3.3773,-3.2943,-3.2253,-3.1735,-3.1376,-3.1496,-3.1943,-3.1764,0.0,0.0,0.0,-3.2234,-3.2332,0.0,-3.2337,-3.1675,0.0,0.0,0.0,0.0,0.0,0.0,-3.2716,0.0,0.0,0.0,0.0,0.0,-3.2743,-3.1302,-2.9659,-2.8072,-2.7004,-2.6043,-2.4838,-2.4406,-2.4198,-2.4211,-2.3492,-2.3397,-2.4656,-2.5796,-2.6883,-2.7976,-2.8819,-2.9443,-2.9753,-2.9792,-2.9792,0.0,-2.9792,-2.9792,-2.9792,-2.9792,-2.9792,-2.9792,-2.9792,-2.9792,-2.9792,-2.9792,-2.9934,-3.0177,-3.0177,-3.0658,-3.1569,-3.0778,-3.1031,-3.2051,-3.1264,-3.1323,-3.2079,-3.2587,-3.2781,-3.2826,-3.3305,-3.3499,-3.344,-3.2961,-3.2781,-3.2691,-4.3515,-4.3322,-4.3087,-4.2751,-4.248,-4.2322,-4.2322,-4.2322,-4.2322,0.0,0.0,0.0,-4.1236,-4.0713,-4.0557,-4.0854,-4.0361,-3.9881,-3.9534,-3.9312,-3.9347,-3.9674,-4.0156,-4.077,-4.156,-4.0807,-3.9966,-3.911,-3.7813,-3.6507,-3.5184,-3.547,-3.5447,-3.5184,-3.5075,-3.4496,-3.3556,-3.3198,-3.2422,-3.1525,-3.1795,-3.2138,-3.2542,-3.2826,-3.3155,0.0,0.0,0.0,-3.2871,-3.2646,-3.2054,0.0,0.0,0.0,0.0,0.0,0.0,0.0,0.0,0.0,0.0,0.0,0.0,0.0,-3.3567,-3.251,-3.1319,-2.9973,-2.9305,-2.8532,-2.723,-2.6655,-2.621,-2.5646,-2.4835,-2.436,-2.4727,-2.579,-2.6883,-2.7976,-2.8882,-2.9621,-3.0091,-3.0131,-3.0131,-3.0131,-2.993,-2.9792,-2.9792,-2.9792,-2.9792,-2.9792,-2.9792,-2.9792,-2.9792,-2.9792,-2.9792,-2.9792,-2.9792,-3.0113,-3.0581,-2.9778,-3.0166,-3.1439,-3.0647,-3.0777,-3.1555,-3.2213,-3.2333,-3.2108,-3.2497,-3.2677,-3.2632,-3.2213,-3.2243,-3.2422,0.0,-4.3087,-4.2674,-4.2616,-4.2101,-4.1686,-4.1686,-4.1686,-4.1686,0.0,-4.159,-4.1533,-4.1686,-4.0994,-4.057,-4.0721,-4.0365,-3.9823,-3.9103,-3.9446,-3.936,-3.863,-3.9641,-4.0111,-3.9898,-4.0096,-3.9625,-3.8398,-3.7581,-3.6312,-3.46,-3.5207,-3.5121,-3.4503,-3.5184,-3.4728,-3.3479,-3.3572,-3.2846,-3.166,-3.2243,-3.2527,0.0,0.0,-3.3649,-3.3709,-3.3634,-3.3604,-3.3499,-3.2766,-3.1985,0.0,0.0,0.0,0.0,0.0,-3.1358,0.0,0.0,0.0,0.0,0.0,-3.4368,0.0,-3.3839,-3.3107,-3.2367,-3.1716,-3.1435,-3.1091,-3.0367,-2.9565,-2.8775,-2.8015,-2.7494,-2.6817,-2.5808,-2.63,-2.7047,-2.8004,-2.8621,-2.9415,-3.0488,-3.0557,-3.0557,-3.0608,-3.0105,-2.9792,-2.9792,-2.9792,-2.9792,-2.9792,-2.9792,-2.9792,-2.9792,-2.9792,-2.9792,-2.9792,-2.9792,-2.9754,-2.9692,-2.938,-2.9726,-3.0512,-3.0262,-3.0717,-3.166,-3.2243,-3.2138,-3.1615,-3.1615,-3.1615,-3.1615,-3.1615,-3.1989,-3.2497,-4.3515,-4.3087,-4.2557,-4.2059,-4.1468,-4.1087,-4.1087,-4.1087,-4.1087,-4.1087,-4.0162,-3.9941,-4.0949,-4.0426,-4.0394,-4.1464,-4.037,-3.956,-3.94,-3.869,-3.8228,-3.8065,-3.8687,-3.9295,-3.9898,-3.9332,-3.8828,-3.8398,-3.7581,-3.6312,-3.46,-3.4736,-3.4447,-3.3836,-3.4496,-3.4037,-3.2841,-3.3365,-3.3111,-3.2303,-3.2437,-3.2826,-3.338,-3.4038,-3.4637,-3.504,-3.4487,-3.4309,-3.4098,-3.2916,-3.1701,-3.0752,0.0,0.0,0.0,-3.126,0.0,0.0,0.0,0.0,0.0,0.0,-3.3352,0.0,-3.4974,-3.4644,-3.4113,-3.3966,-3.3482,-3.2829,-3.1992,-3.1698,-3.1302,-3.0455,-3.0152,-2.9107,-2.6532,-2.7332,-2.8183,-2.8116,-2.8983,-2.987,-3.053,-3.0218,-3.0143,-3.0583,-3.0105,-2.9792,-2.9792,-2.9792,-2.9792,-2.9792,-2.9792,-2.9792,-2.9792,-2.9792,-2.9792,-2.9792,-2.9792,-2.9553,-2.9076,-2.8582,-2.8935,-2.994,-2.9479,-3.042,-3.2303,-3.2437,-3.2407,-3.2288,-3.2288,-3.2288,-3.2288,-3.2288,-3.2378,-3.2587,-4.3515,-4.2828,-4.2162,-4.1853,-4.1082,-4.0497,-4.0497,-4.0497,-4.0497,-4.0497,-3.9955,-3.9797,-4.0439,-4.0155,-4.0229,-4.088,-4.0498,-3.9865,-3.9094,-3.8827,-3.8474,-3.7912,-3.8167,-3.8615,-3.9294,-3.865,-3.8145,-3.7813,-3.7134,-3.5869,-3.4096,-3.4118,-3.3567,-3.2625,-3.3304,-3.3045,-3.2133,-3.2818,-3.269,-3.2049,-3.2736,0.0,-3.4053,-3.4726,-3.5205,-3.5415,-3.4726,-3.4053,-3.3395,-3.2736,-3.1809,0.0,-3.1336,-3.1247,-3.1058,0.0,-3.1195,-3.0933,0.0,0.0,0.0,-3.2264,0.0,0.0,0.0,-3.4582,-3.4572,-3.4568,-3.4575,-3.4366,-3.3581,-3.3438,-3.3175,-3.2415,-3.2244,-3.1589,-2.9928,-2.9937,-3.015,-3.0313,-3.0675,-3.101,-3.1267,-3.0646,-3.0206,-3.0206,-2.9942,-2.9792,-2.9792,-2.9792,-2.9792,-2.9792,-2.9792,-2.9792,-2.9792,-2.9792,-2.9792,-2.9792,-2.9503,-2.9176,-2.8863,-2.8072,-2.8392,-2.9592,-2.9512,-3.0573,-3.2364,-3.3151,-3.3499,-3.3455,-3.3125,-3.3006,-3.3006,-3.3006,-3.3215,-3.3544,-4.3515,-4.2581,-4.181,-4.181,-4.0861,-4.0096,-4.0096,-4.0096,-4.0096,-4.0096,-3.986,-3.975,-3.9868,-3.964,-3.9531,-3.9648,-3.9932,-3.9629,-3.8537,-3.8737,-3.8522,-3.765,-3.779,-3.8044,-3.8327,-3.8143,-3.7773,-3.7209,-3.6764,-3.5603,-3.3795,-3.3672,-3.2957,-3.1834,-3.2361,-3.2232,-3.1624,-3.2315,0.0,-3.1974,0.0,-3.3739,-3.4188,-3.4996,-3.5235,-3.504,-3.4487,-3.3422,-3.2288,-3.2437,-3.2123,-3.1675,-3.154,-3.1585,0.0,0.0,0.0,0.0,0.0,0.0,0.0,0.0,0.0,-3.2423,0.0,0.0,0.0,-3.4527,0.0,0.0,0.0,0.0,0.0,-3.4282,0.0,0.0,0.0,-3.3072,0.0,-3.2799,-3.2404,-3.2222,-3.2487,-3.1487,-3.0553,-2.9829,-2.9792,-2.9792,-2.9792,-2.9792,-2.9792,-2.9792,-2.9792,-2.9792,-2.9792,-2.9792,-2.9792,-2.9779,-2.9315,-2.9001,-2.8863,-2.8009,-2.8247,-2.9425,-2.9921,-3.0984,-3.2403,-3.3871,-3.4593,-3.4638,-3.3948,-3.3679,-3.3679,-3.3679,-3.4054,-3.4533,-4.3515,-4.2581,-4.181,-4.181,-4.0861,-4.0096,-4.0096,-4.0096,-4.0096,-4.0096,-3.9023,-3.8452,-3.9057,-3.7962,-3.7436,-3.8094,-3.7604,-3.7464,-3.795,-3.7197,-3.6692,-3.658,-3.7415,-3.7621,-3.7035,-3.8068,-3.8152,-3.7209,-3.7152,-3.6208,-3.4479,-3.3881,-3.3202,-3.2505,-3.2586,-3.2176,-3.1548,0.0,-3.2863,0.0,-3.344,-3.3185,0.0,-3.4113,-3.4233,-3.3709,-3.3634,-3.2653,-3.1455,0.0,-3.2437,-3.2273,0.0,-3.1914,-3.2258,-3.1675,0.0,0.0,0.0,0.0,0.0,0.0,-3.1254,0.0,0.0,0.0,-3.4607,-3.4596,0.0,0.0,0.0,0.0,0.0,0.0,0.0,0.0,-3.7016,-3.6101,-3.4845,-3.3802,-3.3042,-3.305,-3.4199,-3.2796,-3.1267,-2.9907,-2.9792,-2.9792,-2.9792,-2.9792,-2.9792,-2.9792,-2.9792,-2.9792,-2.9792,-2.9792,-2.9792,-2.9792,-2.9729,-2.9428,-2.8888,-2.8762,-2.8988,-2.9451,-3.0324,-3.1564,-3.3066,-3.4078,-3.4846,-3.5325,-3.4668,-3.4399,-3.4399,-3.4399,-3.4444,-3.4593,-4.3032,-4.2364,-4.1686,-4.1335,-4.0625,-4.0096,-4.0096,-4.0096,-3.9927,-3.9463,-3.8891,-3.8331,-3.7781,-3.7521,-3.7357,0.0,0.0,-3.7567,0.0,-3.7489,-3.7391,-3.7672,-3.7679,-3.7801,-3.8075,-3.7613,-3.7304,-3.7209,-3.6583,-3.5703,-3.4576,-3.3517,-3.2659,-3.1997,-3.1564,0.0,-3.1524,0.0,-3.234,0.0,0.0,-3.2527,0.0,-3.3829,-3.3535,-3.2094,-3.1625,-3.1113,-3.0674,0.0,-3.1112,0.0,0.0,0.0,0.0,-3.1585,0.0,0.0,0.0,0.0,0.0,0.0,0.0,0.0,-3.2634,0.0,-3.3659,0.0,0.0,0.0,0.0,0.0,0.0,0.0,-3.5973,0.0,0.0,0.0,-3.6753,-3.6199,0.0,0.0,-3.4162,-3.3073,-3.2129,-3.1462,-3.0908,-3.062,-3.062,-3.0113,-2.9792,-2.9792,-2.9792,-2.9792,-2.9792,-2.9792,-2.9792,-2.9792,-2.9453,-2.9164,-2.8888,-2.8562,-2.8671,-2.9198,-3.0715,-3.1909,-3.2909,-3.4442,-3.525,-3.5474,-3.519,-3.507,-3.507,-3.507,-3.507,-3.5115,-4.2282,-4.1853,-4.1424,-4.0972,-4.0449,-4.002,-3.9808,-3.9782,-3.9542,-3.8962,-3.8357,-3.7691,-3.6896,-3.6707,0.0,0.0,-3.6406,-3.69,0.0,0.0,-3.7354,-3.7467,-3.7694,-3.7775,-3.7684,-3.7185,-3.6933,-3.698,-3.6207,-3.5504,-3.483,-3.3502,-3.2603,-3.2092,-3.118,-3.1137,-3.1765,0.0,-3.2258,-3.3051,-3.3051,-3.2497,-3.1797,-3.2924,-3.2309,-3.0757,-2.9997,-2.9662,-2.9535,-2.9129,-2.9941,0.0,-3.019,-3.0475,-3.1071,0.0,0.0,0.0,-3.1117,0.0,0.0,0.0,0.0,0.0,0.0,0.0,0.0,0.0,0.0,0.0,0.0,0.0,0.0,0.0,0.0,-3.7015,0.0,-3.799,0.0,0.0,0.0,0.0,0.0,-3.4065,-3.343,-3.2954,-3.2078,-3.1573,-3.1573,-3.0696,-3.0177,-3.0177,-2.9934,-2.9792,-2.9792,-2.9792,-2.9792,-2.9779,-2.9365,-2.9164,-2.9151,-2.9022,-2.9146,-2.964,-3.1572,-3.2611,-3.3101,-3.4806,-3.5504,-3.5504,-3.5504,-3.5504,-3.5504,-3.5504,-3.5504,-3.5504,-4.1201,-4.0949,0.0,-4.0903,-4.0449,-3.9833,-3.9059,-3.8935,-3.8935,-3.8908,-3.7023,-3.5969,0.0,0.0,0.0,0.0,0.0,-3.4334,-3.5663,0.0,-3.5416,-3.4658,0.0,-3.7247,-3.4417,-3.6904,-3.7657,-3.6416,-3.6374,-3.6097,-3.5554,-3.4211,-3.355,-3.3489,-3.2086,-3.1839,-3.2482,-3.2482,-3.323,-3.4444,-3.4444,-3.3539,-3.2064,0.0,-3.0253,-2.9947,-2.9269,0.0,0.0,-2.8716,-2.9453,0.0,0.0,0.0,0.0,0.0,0.0,0.0,0.0,0.0,0.0,-3.1158,0.0,0.0,0.0,0.0,-3.1823,0.0,0.0,0.0,0.0,0.0,0.0,0.0,0.0,0.0,0.0,0.0,0.0,0.0,0.0,0.0,0.0,-3.6416,-3.5365,0.0,-3.3017,-3.2558,-3.2558,-3.1683,-3.1143,-3.1143,-3.0279,-2.9792,-2.9792,-2.9792,-2.9792,-2.9792,-2.9779,-2.9767,-2.9793,-3.0681,-3.1103,-3.1214,-3.3108,-3.393,-3.4027,-3.5067,-3.5504,-3.5504,-3.5504,-3.5504,-3.5504,-3.5504,-3.5504,-3.5504,-4.0972,-4.0607,-4.0368,-4.0368,-4.0229,-3.9833,-3.9032,-3.8908,-3.8536,-3.7496,-3.6324,0.0,0.0,-3.3965,-3.351,0.0,0.0,-3.4198,-3.5608,-3.5716,0.0,0.0,0.0,-3.754,0.0,-3.6986,-3.7021,-3.6395,-3.6032,-3.5783,-3.5577,-3.4664,-3.4037,-3.3556,-3.2625,-3.233,0.0,0.0,0.0,0.0,0.0,-3.2119,-3.1632,0.0,-2.9031,-2.8384,-2.7616,-2.7517,0.0,-2.7417,-2.825,-2.9201,-2.8398,-2.8692,-2.9297,-2.9058,-2.9002,-2.9066,0.0,0.0,-2.9374,-3.0436,0.0,0.0,0.0,0.0,0.0,0.0,0.0,0.0,0.0,0.0,0.0,0.0,0.0,0.0,0.0,0.0,0.0,0.0,0.0,0.0,0.0,0.0,0.0,0.0,-3.4366,0.0,-3.3539,-3.2629,-3.1852,-3.1217,-3.0895,-3.0419,-2.9792,-2.9792,-2.9792,-2.9792,-2.9792,-2.9792,-2.983,-3.0758,-3.1217,-3.1278,-3.3171,-3.3993,-3.4061,-3.51,-3.5504,-3.5504,-3.5504,-3.5504,-3.5504,-3.5504,-3.5504,-3.5504,-4.0655,-4.0336,-4.0096,0.0,0.0,-3.9833,-3.9032,-3.869,-3.8145,0.0,-3.5966,0.0,-3.403,0.0,-3.3152,0.0,-3.3187,-3.3791,-3.5173,-3.5324,0.0,-3.5612,-3.6786,-3.7012,0.0,0.0,0.0,-3.653,-3.64,-3.6219,-3.6005,-3.5051,-3.4235,-3.3556,-3.2895,-3.2708,-3.2856,-3.2856,-3.3166,0.0,0.0,-3.0973,0.0,0.0,-2.8302,-2.7833,0.0,-2.685,-2.7196,-2.6692,-2.7229,-2.8019,-2.7451,-2.767,-2.8117,-2.8117,-2.8117,-2.8182,-2.846,-2.8524,0.0,-2.9628,-2.9858,0.0,-3.1145,0.0,-3.1411,0.0,0.0,0.0,0.0,0.0,0.0,0.0,0.0,0.0,0.0,-4.0457,0.0,0.0,0.0,0.0,0.0,0.0,0.0,0.0,0.0,0.0,0.0,-3.331,-3.2321,-3.1706,-3.1044,-3.0419,-2.9792,-2.9792,-2.9792,-2.9792,-2.9792,-2.996,-3.0317,-3.1254,-3.1888,-3.2285,-3.3856,-3.4543,-3.4576,-3.5246,-3.5504,-3.5504,-3.5504,-3.5504,-3.5504,-3.5504,-3.5504,-3.5504,-4.0204,-4.0096,-4.007,-4.0045,-4.0045,-3.9756,-3.8908,0.0,-3.7735,0.0,-3.5784,-3.4514,-3.4622,-3.3332,-3.2452,-3.2512,-3.2512,-3.3034,-3.4332,-3.4556,0.0,0.0,-3.5554,-3.5745,-3.3597,0.0,0.0,0.0,-3.7352,-3.733,-3.6755,-3.5364,-3.4317,-3.3556,-3.2933,0.0,-3.3455,-3.3454,-3.36,-3.3659,-3.1587,-3.0214,-2.9337,-2.8118,-2.7979,-2.8284,-2.6972,-2.6499,-2.6499,-2.6499,-2.6499,-2.6499,-2.6499,-2.6499,-2.6499,-2.6499,-2.6499,-2.6692,-2.7417,-2.7637,-2.7855,-2.8716,-2.8939,0.0,0.0,0.0,-3.0901,0.0,0.0,0.0,0.0,0.0,0.0,0.0,0.0,0.0,0.0,0.0,-4.175,0.0,0.0,0.0,0.0,0.0,0.0,0.0,0.0,0.0,0.0,-3.3754,-3.2713,-3.2664,-3.0959,-2.9972,-2.9934,-2.9895,-2.9869,-2.9869,-2.983,-3.0279,-3.1217,-3.2177,-3.3101,-3.4061,-3.5067,-3.5504,-3.5504,-3.5504,-3.5504,-3.5504,-3.5504,-3.5504,-3.5504,-3.5504,-3.5504,-3.5504,-4.0121,-4.0096,-3.9901,-3.9315,-3.9193,-3.8745,-3.7395,-3.7024,0.0,0.0,-3.4739,-3.3771,-3.3789,-3.2586,-3.1959,-3.2452,-3.2512,0.0,0.0,0.0,0.0,-3.285,-3.4862,-3.5467,-3.4345,-3.6801,-3.7687,-3.6795,0.0,-3.746,-3.6795,-3.6413,-3.5281,-3.3582,-3.3417,-3.3118,-3.2736,-3.2551,-3.2249,-3.178,-3.0408,-2.9516,-2.8893,0.0,-2.716,-2.7497,-2.6757,-2.6499,-2.6499,-2.6499,-2.6499,-2.6499,-2.6499,-2.6499,-2.6499,-2.6499,-2.6499,-2.6555,-2.6748,-2.6816,-2.7007,-2.7835,-2.8019,-2.8306,0.0,0.0,0.0,0.0,0.0,0.0,0.0,0.0,0.0,0.0,0.0,0.0,0.0,0.0,0.0,-4.099,0.0,0.0,0.0,0.0,0.0,0.0,0.0,0.0,0.0,0.0,-3.4409,-3.3671,-3.3171,-3.2585,-3.1901,-3.1193,-3.0833,-3.0833,-3.0139,-3.0279,-3.1217,-3.2177,-3.3101,-3.4061,-3.5067,-3.5504,-3.5504,-3.5504,-3.5504,-3.5504,-3.5504,-3.5504,-3.5504,-3.5504,-3.5504,-3.5504,-4.0096,-3.9808,-3.9315,-3.8553,0.0,-3.7729,-3.7203,-3.7114,0.0,-3.6086,-3.4798,0.0,-3.3529,-3.2572,-3.2198,-3.2886,-3.2946,0.0,-3.335,0.0,0.0,-3.2564,-3.372,-3.4308,-3.4178,-3.6231,0.0,-3.728,0.0,-3.7916,-3.7263,-3.6632,-3.5341,-3.3582,0.0,-3.2931,-3.2467,-3.1818,-3.1282,-3.0718,-2.9181,-2.84,0.0,-2.6939,-2.6688,-2.6914,-2.6612,-2.6499,-2.6499,-2.6499,-2.6499,-2.6499,-2.6499,-2.6499,-2.6499,-2.6499,-2.6499,-2.6499,-2.6499,-2.6499,-2.6624,-2.7074,-2.7196,-2.7482,-2.8602,-2.9682,-3.0638,0.0,-3.2966,-3.4339,0.0,0.0,0.0,0.0,0.0,0.0,0.0,0.0,0.0,0.0,-4.1123,0.0,0.0,0.0,0.0,0.0,0.0,0.0,0.0,0.0,-3.4576,-3.4027,-3.3206,-3.2522,-3.1997,-3.1044,-3.0595,-3.0595,-3.0037,-3.0495,-3.1815,-3.2357,-3.3345,-3.4691,-3.5246,-3.5504,-3.5504,-3.5504,-3.5504,-3.5504,-3.5504,-3.5504,-3.5504,-3.5504,-3.5504,-3.5504,-3.9952,-3.9368,0.0,0.0,0.0,0.0,-3.7442,-3.7501,-3.7265,-3.6569,0.0,-3.4294,-3.3679,-3.2961,-3.2781,-3.344,-3.3499,-3.3709,-3.4219,-3.3769,-3.3155,-3.2392,-3.2509,-3.2922,-3.3582,-3.5492,-3.6952,0.0,-3.8471,-3.85,-3.8,-3.6513,-3.5092,0.0,0.0,0.0,0.0,-3.126,-3.0614,-2.9935,-2.8041,-2.7281,-2.7218,-2.67,-2.6499,-2.6499,-2.6499,-2.6499,-2.6499,-2.6499,-2.6499,-2.6499,-2.6499,-2.6499,-2.6499,-2.6499,-2.6499,-2.6499,-2.6499,-2.6499,-2.6499,-2.6499,-2.6499,-2.6853,-2.8111,-2.899,-2.9864,-3.1233,-3.2728,-3.3684,-3.3269,0.0,0.0,0.0,0.0,0.0,0.0,0.0,0.0,0.0,0.0,0.0,0.0,0.0,0.0,0.0,0.0,0.0,0.0,0.0,-3.425,-3.4027,-3.2429,-3.1499,-3.1389,-3.0457,-2.996,-2.9972,-2.9869,-3.0771,-3.2593,-3.2593,-3.365,-3.5504,-3.5504,-3.5504,-3.5504,-3.5504,-3.5504,-3.5504,-3.5504,-3.5504,-3.5504,-3.5504,-3.5504,-3.5504,-3.9236,-3.8989,0.0,0.0,0.0,-3.7917,-3.6164,-3.591,-3.5846,-3.5701,-3.4986,-3.4459,-3.4354,-3.323,-3.2781,-3.344,-3.3499,0.0,0.0,0.0,0.0,-3.1735,-3.2265,-3.2922,-3.3582,-3.507,-3.6527,-3.7905,-3.8601,-3.8907,-3.8785,-3.7311,-3.5852,0.0,0.0,0.0,-3.0327,-3.1243,0.0,-2.844,-2.7616,-2.7281,-2.7218,-2.67,-2.6499,-2.6499,-2.6499,-2.6499,-2.6499,-2.6499,-2.6499,-2.6499,-2.6499,-2.6499,-2.6499,-2.6499,-2.6499,-2.6499,-2.6499,-2.6499,-2.6499,-2.6499,-2.6499,-2.6593,-2.684,-2.8244,-2.9583,-2.9851,-3.1484,-3.3073,-3.3713,0.0,0.0,0.0,0.0,0.0,0.0,0.0,0.0,0.0,0.0,-3.9029,0.0,0.0,0.0,0.0,0.0,-3.7318,-3.663,0.0,-3.5486,0.0,-3.3671,-3.3136,0.0,0.0,-3.097,-3.0932,-3.0177,-3.0771,-3.2593,-3.2593,-3.365,-3.5504,-3.5504,-3.5504,-3.5504,-3.5504,-3.5504,-3.5504,-3.5504,-3.5504,-3.5504,-3.5504,-3.5504,-3.5504,-3.8962,0.0,0.0,0.0,0.0,0.0,-3.6228,-3.6054,-3.5911,-3.5554,-3.522,-3.4876,-3.4548,-3.3903,-3.3529,-3.3499,-3.3799,-3.3589,-3.2587,-3.3125,-3.2901,-3.157,-3.1853,-3.2367,-3.3066,-3.4098,-3.5497,-3.7319,-3.8082,-3.8633,-3.8963,-3.7491,-3.6066,-3.4595,0.0,-3.0988,0.0,0.0,0.0,-2.7632,-2.7115,-2.6889,-2.6864,-2.66,-2.6499,-2.6499,-2.6499,-2.6499,-2.6499,-2.6499,-2.6499,-2.6499,-2.6499,-2.6499,-2.6499,-2.6499,-2.6499,-2.6499,-2.6499,-2.6499,-2.6499,-2.6499,-2.6499,-2.6499,-2.6499,-2.7452,-2.8434,-2.8718,-3.0222,-3.1823,-3.3045,-3.4075,0.0,0.0,0.0,0.0,0.0,0.0,-3.8567,0.0,0.0,0.0,0.0,0.0,0.0,0.0,0.0,-3.7476,-3.6711,0.0,-3.6025,0.0,0.0,0.0,-3.3345,0.0,-3.1217,-3.118,-3.0241,-3.0771,-3.2593,-3.2593,-3.365,-3.5504,-3.5504,-3.5504,-3.5504,-3.5504,-3.5504,-3.5504,-3.5504,-3.5504,-3.5504,-3.5504,-3.5504,-3.5504,0.0,-3.793,0.0,0.0,-3.7411,-3.6978,-3.663,-3.6615,-3.6337,-3.5587,-3.5504,-3.5295,-3.4788,-3.4593,-3.4294,-3.3754,-3.4038,-3.3769,-3.2587,-3.3006,-3.2766,-3.1555,-3.1511,-3.1853,-3.2586,-3.3119,-3.4346,-3.635,-3.7078,-3.7811,-3.8497,-3.7177,-3.5633,0.0,0.0,0.0,0.0,0.0,-2.7626,-2.7102,-2.6663,-2.6499,-2.6499,-2.6499,-2.6499,-2.6499,-2.6499,-2.6499,-2.6499,-2.6499,-2.6499,-2.6499,-2.6499,-2.6499,-2.6499,-2.6499,-2.6499,-2.6499,-2.6499,-2.6499,-2.6499,-2.6499,-2.6499,-2.6499,-2.6499,-2.6914,-2.7406,-2.7846,-2.9241,-3.0774,-3.2068,-3.3241,0.0,0.0,0.0,0.0,0.0,0.0,0.0,0.0,0.0,0.0,-3.9232,0.0,0.0,0.0,-3.7952,-3.7898,-3.6974,-3.6875,-3.6244,-3.492,-3.4327,-3.3808,-3.3415,0.0,-3.1217,-3.118,-3.0241,-3.0671,-3.2321,-3.25,-3.3533,-3.518,-3.5407,-3.5504,-3.5504,-3.5504,-3.5504,-3.5504,-3.5504,-3.5504,-3.5504,-3.5504,-3.5504,-3.5504,0.0,0.0,0.0,0.0,0.0,-3.8213,-3.6797,-3.6615,-3.6337,-3.5587,-3.5504,-3.5489,-3.5415,-3.4846,-3.4474,-3.4414,-3.3903,-3.3275,-3.2557,-3.2572,-3.2258,-3.154,-3.1511,-3.1853,-3.2586,-3.2668,-3.3417,-3.4908,-3.5578,-3.6281,-3.6985,-3.6135,-3.4226,0.0,0.0,0.0,-2.802,-2.8431,-2.7824,-2.6562,-2.6512,-2.6499,-2.6499,-2.6499,-2.6499,-2.6499,-2.6499,-2.6499,-2.6499,-2.6499,-2.6499,-2.6499,-2.6499,-2.6499,-2.6499,-2.6499,-2.6499,-2.6499,-2.6499,-2.6499,-2.6499,-2.6499,-2.6499,-2.6499,-2.6499,-2.6914,-2.7293,-2.7344,-2.9006,-3.0606,-3.1222,-3.2784,-3.3993,0.0,0.0,0.0,0.0,0.0,-3.6564,-3.6123,0.0,0.0,-3.4448,-3.6471,0.0,0.0,-3.8363,-3.9232,-3.7767,-3.7687,-3.6199,-3.2982,-3.3602,-3.3171,-3.1499,-3.1278,-3.1217,-3.118,-3.0241,-3.0355,-3.1352,-3.2213,-3.3171,-3.4211,-3.51,-3.5504,-3.5504,-3.5504,-3.5504,-3.5504,-3.5504,-3.5504,-3.5504,-3.5504,-3.5504,-3.5504,-3.8908,-3.8553,-3.829,-3.8442,-3.833,-3.8019,-3.7411,-3.6904,-3.6337,-3.5587,-3.5504,-3.5504,-3.5504,-3.525,-3.4921,-3.4548,-3.4264,-3.3634,-3.2557,-3.2512,-3.2183,-3.1525,-3.1511,-3.164,-3.1923,-3.2382,-3.3104,0.0,-3.5168,-3.6089,-3.6774,-3.599,-3.4243,-3.1723,-3.0188,-2.9031,-2.8271,-2.7639,-2.7054,-2.6499,-2.6499,-2.6499,-2.6499,-2.6499,-2.6499,-2.6499,-2.6499,-2.6499,-2.6499,-2.6499,-2.6499,-2.6499,-2.6499,-2.6499,-2.6499,-2.6499,-2.6499,-2.6499,-2.6499,-2.6499,-2.6499,-2.6499,-2.6499,-2.6499,-2.6499,-2.6663,-2.6914,-2.7218,-2.8475,-2.9561,-2.9779,-3.1186,-3.2321,-3.2321,0.0,0.0,0.0,0.0,0.0,-3.6272,0.0,-3.6545,0.0,-3.6745,-3.7122,0.0,-3.8928,-3.9228,-3.7254,-3.7553,-3.6461,-3.3518,0.0,-3.338,-3.2069,-3.1499,-3.1217,-3.118,-3.0241,-3.0279,-3.1217,-3.1609,-3.2558,-3.4061,-3.5067,-3.5504,-3.5504,-3.5504,-3.5504,-3.5504,-3.5504,-3.5504,-3.5504,-3.5504,-3.5504,-3.5504,-3.9262,-3.8635,-3.829,-3.8799,-3.8274,-3.7719,-3.7485,-3.6964,-3.6337,-3.5587,-3.5504,-3.5504,-3.5504,-3.5504,-3.5235,-3.4563,-3.4503,-3.3918,-3.2602,-3.2512,-3.2183,-3.1525,-3.1511,0.0,-3.1511,-3.2007,-3.253,-3.3047,-3.422,0.0,-3.5537,-3.5093,-3.3634,-3.1302,-2.9187,-2.8142,-2.7991,-2.6947,-2.6499,-2.6499,-2.6499,-2.6499,-2.6499,-2.6499,-2.6499,-2.6499,-2.6499,-2.6499,-2.6499,-2.6499,-2.6499,-2.6499,-2.6499,-2.6499,-2.6499,-2.6499,-2.6499,-2.6499,-2.6499,-2.6499,-2.6499,-2.6499,-2.6499,-2.6499,-2.6499,-2.6499,-2.665,-2.7203,-2.8034,-2.87,-2.8863,-3.0157,-3.1217,-3.1217,0.0,0.0,0.0,-3.4886,0.0,-3.5579,-3.6021,-3.6393,-3.6531,-3.6642,0.0,0.0,0.0,-3.8629,-3.6756,-3.6904,-3.5981,0.0,0.0,0.0,-3.2213,-3.1536,-3.1217,-3.118,-3.0241,-3.0139,-3.0796,-3.1068,-3.2213,-3.4027,-3.4758,-3.5213,-3.5504,-3.5504,-3.5504,-3.5504,-3.5504,-3.5504,-3.5504,-3.5504,-3.5504,-3.5504,-4.007,-3.9437,-3.8881,-3.8908,-3.8274,-3.7544,-3.6737,-3.6615,-3.6337,-3.5587,-3.5504,-3.5504,-3.5504,-3.5504,-3.5235,-3.4563,-3.4503,-3.3918,-3.2602,-3.2512,-3.2183,0.0,0.0,-3.1511,-3.1511,-3.1511,-3.1511,-3.1511,0.0,0.0,-3.2557,-3.2946,-3.1848,-2.9521,-2.9508,-2.8382,-2.6546,-2.6499,-2.6499,-2.6499,-2.6499,-2.6499,-2.6499,-2.6499,-2.6499,-2.6499,-2.6499,-2.6499,-2.6499,-2.6499,-2.6499,-2.6499,-2.6499,-2.6499,-2.6499,-2.6499,-2.6499,-2.6499,-2.6499,-2.6499,-2.6499,-2.6499,-2.6499,-2.6499,-2.6499,-2.6499,-2.665,-2.7203,-2.772,-2.8285,-2.8787,-3.0157,-3.1217,-3.1217,0.0,0.0,0.0,-3.3415,0.0,-3.3221,-3.4539,-3.4987,-3.3697,-3.5455,0.0,0.0,0.0,0.0,0.0,0.0,0.0,-3.2664,-3.2629,0.0,-3.1217,-3.1217,-3.1217,-3.118,-3.0241,-2.9792,-2.9869,-3.0758,-3.2213,-3.3993,-3.4027,-3.4576,-3.5504,-3.5504,-3.5504,-3.5504,-3.5504,-3.5504,-3.5504,-3.5504,-3.5504,-3.5504,-3.9978,-3.9901,-3.9558,-3.8989,-3.8274,-3.7544,-3.6722,-3.6165,-3.575,-3.5537,-3.5504,-3.5504,-3.5504,-3.5504,-3.5415,-3.519,-3.4741,-3.4098,0.0,-3.2766,-3.2183,-3.1525,-3.1511,-3.1511,-3.1511,-3.1511,-3.1511,-3.1511,0.0,-3.2213,-3.1607,-3.0597,-2.9443,-2.8257,-2.7704,-2.7112,-2.6499,-2.6499,-2.6499,-2.6499,-2.6499,-2.6499,-2.6499,-2.6499,-2.6499,-2.6499,-2.6499,-2.6499,-2.6499,-2.6499,-2.6499,-2.6499,-2.6499,-2.6499,-2.6499,-2.6499,-2.6499,-2.6499,-2.6499,-2.6499,-2.6499,-2.6499,-2.6499,-2.6499,-2.6499,-2.6499,-2.6549,-2.6713,-2.7457,-2.816,-2.8335,-2.939,-3.0241,-3.0241,-3.1007,0.0,-3.1633,0.0,-3.3702,-3.2849,-3.3763,-3.4303,-3.3897,-3.4472,0.0,0.0,0.0,0.0,0.0,0.0,0.0,0.0,-3.1997,0.0,-3.0241,-3.0241,-3.0241,-3.0241,-2.9934,-2.9792,-2.983,-3.0758,-3.1536,-3.2177,-3.3449,-3.4177,-3.4543,-3.5213,-3.5504,-3.5504,-3.5504,-3.5504,-3.5504,-3.5504,-3.5504,-3.5504,-3.9183,-3.9226,-3.8995,-3.8185,-3.7411,-3.6768,-3.6259,-3.5814,-3.5504,-3.5504,-3.5504,-3.5504,-3.5504,-3.5504,-3.5504,-3.5504,-3.5115,-3.4577,-3.3903,-3.3245,-3.2587,-3.1899,-3.163,-3.1511,-3.1511,-3.1511,-3.1511,-3.1511,-3.1914,-3.1615,-3.0658,-2.9591,-2.8564,-2.754,-2.7031,-2.6688,-2.6499,-2.6499,-2.6499,-2.6499,-2.6499,-2.6499,-2.6499,-2.6499,-2.6499,-2.6499,-2.6499,-2.6499,-2.6499,-2.6499,-2.6499,-2.6499,-2.6499,-2.6499,-2.6499,-2.6499,-2.6499,-2.6499,-2.6499,-2.6499,-2.6499,-2.6499,-2.6499,-2.6499,-2.6499,-2.6499,-2.6549,-2.6763,-2.7482,-2.8172,-2.8373,-2.9176,-2.9792,-2.9792,-3.0279,-3.0658,-3.0658,0.0,-3.2749,0.0,0.0,-3.3449,-3.3449,-3.3449,-3.3739,0.0,0.0,0.0,0.0,0.0,-3.3198,-3.2092,-3.1156,-3.0381,-2.9792,-2.9792,-2.9792,-2.9792,-2.9792,-2.9792,-2.983,-3.0419,-3.0871,-3.1278,-3.282,-3.3671,-3.4061,-3.51,-3.5504,-3.5504,-3.5504,-3.5504,-3.5504,-3.5504,-3.5504,-3.5504,-3.7921,-3.7793,-3.7544,-3.6722,-3.6023,-3.5554,-3.5504,-3.5504,-3.5504,-3.5504,-3.5504,-3.5504,-3.5504,-3.5504,-3.5489,-3.5429,-3.5429,-3.5145,-3.4474,-3.3784,-3.314,-3.2452,-3.1824,-3.1511,-3.1511,-3.1511,-3.1511,-3.1511,-3.1438,-3.0889,-2.9831,-2.9701,-2.8832,-2.7324,-2.7266,-2.6977,-2.6499,-2.6499,-2.6499,-2.6499,-2.6499,-2.6499,-2.6499,-2.6499,-2.6499,-2.6499,-2.6499,-2.6499,-2.6499,-2.6537,-2.6524,-2.6499,-2.6537,-2.6549,-2.6549,-2.6549,-2.6549,-2.6549,-2.6549,-2.6575,-2.66,-2.6562,-2.6575,-2.66,-2.6562,-2.6587,-2.6751,-2.7231,-2.777,-2.8323,-2.88,-2.9402,-2.9792,-2.9792,-2.9792,-2.9792,-2.9792,-3.062,-3.118,-3.1106,-3.1924,-3.25,-3.25,-3.25,-3.2522,0.0,0.0,0.0,0.0,0.0,-3.1143,-3.1217,-3.0279,-2.9792,-2.9792,-2.9792,-2.9792,-2.9792,-2.9792,-2.9792,-2.9792,-2.9792,-3.0279,-3.1143,-3.2105,-3.2996,-3.3891,-3.4953,-3.5392,-3.5392,-3.5472,-3.5504,-3.5504,-3.5504,-3.5504,-3.5504,-3.7719,-3.7793,-3.7544,-3.6722,-3.6477,-3.6134,-3.5587,-3.5504,-3.5504,-3.5504,-3.5504,-3.5504,-3.5504,-3.5504,-3.5295,-3.4788,-3.4758,-3.4442,-3.3769,-3.311,-3.2452,-3.1765,-3.1585,-3.1511,-3.1511,-3.1511,-3.1511,-3.1511,-3.0866,-3.0446,-3.0133,-2.8838,-2.8,-2.7592,-2.6972,-2.6612,-2.6499,-2.6499,-2.6499,-2.6499,-2.6499,-2.6499,-2.6499,-2.6499,-2.6499,-2.6499,-2.6499,-2.6499,-2.6562,-2.6977,-2.6839,-2.6562,-2.6989,-2.7115,-2.7115,-2.7115,-2.7115,-2.7115,-2.7115,-2.7394,-2.7607,-2.7228,-2.7406,-2.7607,-2.718,-2.7419,-2.7758,-2.7883,-2.8348,-2.8737,-2.8863,-2.9402,-2.9792,-2.9792,-2.9792,-2.9792,-2.9792,-3.062,-3.0932,0.0,-3.0983,-3.1536,-3.1536,-3.1536,-3.1815,0.0,0.0,-3.1536,-3.1536,-3.0633,-3.0444,-3.118,-3.0279,-2.9792,-2.9792,-2.9792,-2.9792,-2.9792,-2.9792,-2.9792,-2.9792,-2.9792,-2.9934,-3.0177,-3.1119,-3.1669,-3.1997,-3.3671,-3.4361,-3.4428,-3.5213,-3.5504,-3.5504,-3.5504,-3.5504,-3.5504,-3.6738,-3.7025,-3.701,-3.6228,-3.6086,-3.5943,-3.5554,-3.5504,-3.5504,-3.5504,-3.5504,-3.5504,-3.5504,-3.5504,-3.5355,-3.4981,-3.4698,-3.4234,-3.3544,-3.2886,-3.2333,-3.1974,-3.166,-3.1511,-3.1511,-3.1511,-3.1511,-3.1511,-3.1058,-3.0644,-3.0269,-2.9317,-2.846,-2.767,-2.7229,-2.685,-2.6499,-2.6499,-2.6499,-2.6499,-2.6499,-2.6499,-2.6499,-2.6499,-2.6499,-2.6499,-2.6499,-2.6499,-2.6537,-2.6839,-2.6738,-2.6587,-2.714,-2.7281,-2.7381,-2.7883,-2.7858,-2.7657,-2.7657,-2.7871,-2.8034,-2.7733,-2.7883,-2.8021,-2.772,-2.7896,-2.8185,-2.8436,-2.8687,-2.8963,-2.9277,-2.9923,-3.0317,-2.9869,-2.9936,-2.9998,-2.9831,-3.0011,-3.0073,-2.9831,-3.0241,-3.0558,-3.0558,-3.0558,-3.0771,-3.1267,-3.0846,0.0,-3.0558,-3.0075,-3.0037,-3.0558,-3.0075,-2.9792,-2.9792,-2.9792,-2.9792,-2.9792,-2.9792,-2.9792,-2.9792,-2.9792,-2.9792,-2.9856,-3.0796,-3.1217,-3.1352,-3.3241,-3.3993,-3.4095,-3.51,-3.5504,-3.5504,-3.5504,-3.5504,-3.5504,-3.5634,-3.6006,-3.6259,-3.5619,-3.5504,-3.5504,-3.5504,-3.5504,-3.5504,-3.5504,-3.5504,-3.5504,-3.5504,-3.5504,-3.5459,-3.5355,-3.4726,-3.4129,-3.3529,-3.2886,-3.2437,-3.2333,-3.1795,-3.1511,-3.1511,-3.1511,-3.1511,-3.1511,-3.1511,-3.1161,-3.0494,-3.0359,-2.9504,-2.8084,-2.7835,-2.7317,-2.6692,-2.6555,-2.6499,-2.6499,-2.6499,-2.6499,-2.6499,-2.6499,-2.6499,-2.6499,-2.6499,-2.6499,-2.6512,-2.6587,-2.6612,-2.6713,-2.7231,-2.7469,-2.772,-2.8612,-2.8624,-2.8348,-2.826,-2.8235,-2.8235,-2.8235,-2.8298,-2.8335,-2.8247,-2.8298,-2.8499,-2.8925,-2.9026,-2.9202,-2.9704,-3.0457,-3.0733,-2.9934,-2.9994,-3.011,-2.9819,0.0,-2.9101,-2.9729,-2.9792,-2.9792,-2.9792,-2.9792,-2.9792,-2.9792,-2.9792,-2.9792,-2.9792,-2.9792,-2.9792,-2.9792,-2.9792,-2.9792,-2.9792,-2.9792,-2.9792,-2.9792,-2.9792,-2.9792,-2.9792,-2.9792,-2.9792,-2.9818,-3.062,-3.097,-3.1106,-3.2855,-3.3671,-3.3891,-3.4872,-3.5359,-3.5504,-3.5504,-3.5504,-3.5504,-3.5642,-3.5587,-3.5636,-3.5537,-3.5504,-3.5504,-3.5504,-3.5504,-3.5504,-3.5504,-3.5504,-3.5504,-3.5504,-3.5504,-3.5265,-3.4713,-3.4023,-3.3604,-3.3499,-3.2886,-3.2243,-3.1675,-3.1555,-3.1511,-3.1511,-3.1511,-3.1511,-3.1511,-3.1511,-3.1438,-3.1307,-3.0614,-3.0178,-2.9827,-2.8363,-2.7637,-2.7484,-2.6782,-2.6499,-2.6499,-2.6499,-2.6499,-2.6499,-2.6499,-2.6499,-2.6499,-2.6499,-2.6499,-2.6562,-2.7027,-2.719,-2.7291,-2.7808,-2.8298,-2.8662,-2.8838,-2.9214,-2.9428,-2.89,-2.8762,-2.8762,-2.8762,-2.9164,-2.9402,-2.8875,-2.9176,-2.9553,-2.9641,-2.9654,-2.9691,-2.9779,-2.9934,-2.9972,-2.983,-2.9416,-2.9277,-2.9755,0.0,-2.9101,-2.9729,-2.9792,-2.9792,-2.9792,-2.9792,-2.9792,-2.9792,-2.9792,-2.9792,-2.9792,-2.9792,-2.9792,-2.9792,-2.9792,-2.9792,-2.9792,-2.9792,-2.9792,-2.9792,-2.9792,-2.9792,-2.9792,-2.9792,-2.9792,-2.9792,-2.996,-2.9998,-3.0113,-3.1193,-3.2105,-3.2925,-3.3856,-3.4758,-3.5504,-3.5504,-3.5504,-3.5504,-3.5564,-3.5504,-3.5504,-3.5504,-3.5504,-3.5504,-3.5504,-3.5504,-3.5504,-3.5504,-3.5504,-3.5504,-3.5504,-3.5504,-3.5385,-3.5055,-3.4756,-3.4277,-3.3544,-3.2512,-3.1824,-3.1511,-3.1511,-3.1511,-3.1511,-3.1511,-3.1278,-3.0837,-3.1278,-3.1278,-3.0837,-3.0925,-3.0718,-3.0238,-2.8971,-2.8149,-2.7637,-2.685,-2.6499,-2.6499,-2.6499,-2.6499,-2.6499,-2.6499,-2.6499,-2.6499,-2.6499,-2.6499,-2.6575,-2.7128,-2.7281,-2.7431,-2.8285,-2.8687,-2.895,-2.9302,-2.9578,-2.9729,-2.9465,-2.939,-2.939,-2.939,-2.9591,-2.9729,-2.9453,-2.9603,-2.9792,-2.9792,-2.9792,-2.9792,-2.9792,-3.0216,-3.0381,-2.9895,-2.9476,-2.9343,-2.9743,-2.9038,-2.8812,-2.9691,-2.9792,-2.9792,-2.9792,-2.9792,-2.9792,-2.9792,-2.9792,-2.9792,-2.9792,-2.9792,-2.9792,-2.9792,-2.9792,-2.9792,-2.9792,-2.9792,-2.9792,-2.9792,-2.9792,-2.9792,-2.9792,-2.9792,-2.9792,-2.9792,-2.9792,-2.9792,-2.9856,-3.0796,-3.1742,-3.2713,-3.3636,-3.461,-3.5504,-3.5504,-3.5504,-3.5504,-3.5729,-3.5609,-3.5504,-3.5504,-3.5504,-3.5504,-3.5504,-3.5504,-3.5504,-3.5504,-3.5504,-3.5504,-3.5504,-3.5504,-3.5504,-3.5504,-3.5355,-3.4831,-3.3784,-3.2632,-3.1824,-3.1511,-3.1511,-3.1511,-3.1511,-3.1511,-3.119,-3.0584,-3.119,-3.119,-3.0584,-3.1219,-3.1161,-3.0524,-2.9473,-2.862,-2.7953,-2.6939,-2.6499,-2.6499,-2.6499,-2.6499,-2.6499,-2.6499,-2.6499,-2.6499,-2.6499,-2.6499,-2.6575,-2.7128,-2.7369,-2.7645,-2.8587,-2.8988,-2.9214,-2.9666,-2.9792,-2.9792,-2.9792,-2.9792,-2.9792,-2.9792,-2.9792,-2.9792,-2.9792,-2.9792,-2.9792,-2.9792,-2.9792,-2.9792,-2.9792,-3.0381,-3.0581,-2.9719,0.0,-2.9274,-2.9555,-2.8737,-2.8524,-2.9654,-2.9792,-2.9792,-2.9792,-2.9792,-2.9792,-2.9792,-2.9792,-2.9792,-2.9792,-2.9792,-2.9792,-2.9792,-2.9792,-2.9792,-2.9792,-2.9792,-2.9792,-2.9792,-2.9792,-2.9792,-2.9792,-2.9792,-2.9792,-2.9792,-2.9792,-2.9792,-2.9869,-3.0595,-3.1439,-3.2393,-3.331,-3.4293,-3.518,-3.5392,-3.5504,-3.5504,-3.6417,-3.5923,-3.5504,-3.5504,-3.5504,-3.5504,-3.5504,-3.5504,-3.5504,-3.5504,-3.5504,-3.5504,-3.5504,-3.5504,-3.5504,-3.5504,-3.4921,-3.4533,-3.4444,-3.3739,-3.2811,-3.1555,-3.1511,-3.1511,-3.1511,-3.1511,-3.1467,-3.1409,-3.1467,-3.1467,-3.1409,-3.1467,-3.1467,-3.1351,-2.9721,-2.8971,-2.8812,-2.7196,-2.6499,-2.6499,-2.6499,-2.6499,-2.6499,-2.6499,-2.6499,-2.6499,-2.6499,-2.6499,-2.6575,-2.7128,-2.762,-2.8147,-2.87,-2.9302,-2.9741,-2.9779,-2.9792,-2.9792,-2.9792,-2.9792,-2.9792,-2.9792,-2.9792,-2.9792,-2.9792,-2.9792,-2.9792,-2.9792,-2.9792,-2.9792,-2.9792,-2.9869,-2.968,-2.9076,0.0,0.0,-2.89,-2.8486,-2.8524,-2.9654,-2.9792,-2.9792,-2.9792,-2.9792,-2.9792,-2.9792,-2.9792,-2.9792,-2.9792,-2.9792,-2.9792,-2.9792,-2.9792,-2.9792,-2.9792,-2.9792,-2.9792,-2.9792,-2.9792,-2.9792,-2.9792,-2.9792,-2.9792,-2.9792,-2.9792,-2.9792,-2.9792,-2.9856,-3.0457,-3.1389,-3.2357,-3.3276,-3.4211,-3.5166,-3.5504,-3.5504,-3.5878,-3.5669,-3.5504,-3.5504,-3.5504,-3.5504,-3.5504,-3.5504,-3.5504,-3.5504,-3.5504,-3.5504,-3.5504,-3.5504,-3.5504,-3.5504,-3.5265,-3.4936,-3.4533,-3.4279,-3.3514,-3.2168,-3.2108,-3.1929,-3.1511,-3.1511,-3.1248,-3.0777,-3.1248,-3.1248,-3.0777,-3.1278,-3.1511,-3.1438,-2.9766,-2.9002,-2.8907,-2.7196,-2.6499,-2.6499,-2.6499,-2.6499,-2.6499,-2.6499,-2.6499,-2.6499,-2.6499,-2.6713,-2.709,-2.7607,-2.816,-2.8712,-2.9289,-2.9616,-2.9792,-2.9792,-2.9792,-2.9792,-2.9792,-2.9792,-2.9792,-2.9792,-2.9792,-2.9792,-2.9792,-2.9792,-2.9792,-2.9792,-2.9792,-2.9792,-2.9792,-2.9792,-2.9716,-2.9503,0.0,-2.8812,-2.939,-2.8976,-2.8913,-2.9691,-2.9792,-2.9792,-2.9792,-2.9792,-2.9792,-2.9792,-2.9792,-2.9792,-2.9792,-2.9792,-2.9792,-2.9792,-2.9792,-2.9792,-2.9792,-2.9792,-2.9792,-2.9792,-2.9792,-2.9792,-2.9792,-2.9792,-2.9792,-2.9792,-2.9792,-2.9792,-2.9792,-2.9792,-3.0343,-3.1254,-3.1609,-3.2321,-3.3171,-3.3581,-3.4075,-3.4576,-3.5774,-3.5654,-3.5504,-3.5504,-3.5504,-3.5504,-3.5504,-3.5504,-3.5504,-3.5504,-3.5504,-3.5504,-3.5504,-3.5504,-3.5504,-3.5504,-3.5504,-3.5295,-3.4831,-3.4801,-3.4113,-3.2557,-3.2288,-3.1974,-3.1511,-3.1511,-3.1219,-3.0673,-3.1219,-3.1219,-3.0673,-3.1248,-3.1511,-3.1438,-3.0042,-2.9254,-2.8907,-2.7484,-2.6714,-2.6512,-2.6688,-2.665,-2.6512,-2.6688,-2.6751,-2.6751,-2.6751,-2.7102,-2.762,-2.8185,-2.8612,-2.9001,-2.9616,-2.9792,-2.9792,-2.9792,-2.9792,-2.9792,-2.9792,-2.9792,-2.9792,-2.9792,-2.9792,-2.9792,-2.9792,-2.9792,-2.9792,-2.9792,-2.9792,-2.9792,-2.9792,-2.9792,-2.9729,-2.9553,-2.9189,-2.9026,-2.9465,-2.9176,-2.9101,-2.9729,-2.9792,-2.9792,-2.9792,-2.9792,-2.9792,-2.9792,-2.9792,-2.9792,-2.9792,-2.9792,-2.9792,-2.9792,-2.9792,-2.9792,-2.9792,-2.9792,-2.9792,-2.9792,-2.9792,-2.9792,-2.9792,-2.9792,-2.9792,-2.9792,-2.9792,-2.9792,-2.9792,-2.9792,-3.0177,-3.0796,-3.1068,-3.1609,-3.2213,-3.25,-3.3031,-3.3567,-3.6357,-3.5953,-3.5504,-3.5504,-3.5504,-3.5504,-3.5504,-3.5504,-3.5504,-3.5504,-3.5504,-3.5504,-3.5504,-3.5504,-3.5504,-3.5504,-3.5504,-3.5504,-3.5504,-3.5489,-3.4607,-3.2617,-3.1869,-3.1511,-3.1511,-3.1511,-3.1511,-3.1511,-3.1511,-3.1511,-3.1511,-3.1511,-3.1511,-3.1467,-3.0644,-2.9827,-2.8939,-2.8084,-2.7229,-2.6549,-2.7102,-2.6989,-2.6562,-2.7115,-2.7281,-2.7329,-2.7329,-2.7645,-2.8197,-2.8712,-2.8888,-2.9001,-2.9616,-2.9792,-2.9792,-2.9792,-2.9792,-2.9804,-2.9792,-2.9792,-2.9804,-2.9792,-2.9792,-2.9792,-2.9792,-2.9792,-2.9792,-2.9792,-2.9792,-2.9792,-2.9792,-2.9792,-2.9603,-2.8988,-2.89,-2.89,-2.89,-2.89,-2.9151,-2.9729,-2.9792,-2.9792,-2.9792,-2.9792,-2.9792,-2.9792,-2.9792,-2.9792,-2.9792,-2.9792,-2.9792,-2.9792,-2.9792,-2.9792,-2.9792,-2.9792,-2.9792,-2.9792,-2.9792,-2.9792,-2.9792,-2.9792,-2.9792,-2.9792,-2.9792,-2.9792,-2.9792,-2.9792,-2.9792,-2.9895,-3.0833,-3.118,-3.1278,-3.2249,-3.2558,-3.2593,-3.5759,-3.5639,-3.5504,-3.5504,-3.5504,-3.5504,-3.5504,-3.5504,-3.5504,-3.5504,-3.5504,-3.5504,-3.5504,-3.5504,-3.5504,-3.5504,-3.5504,-3.5504,-3.5504,-3.4622,-3.4038,-3.3903,-3.326,-3.2452,-3.1525,-3.1511,-3.1511,-3.1511,-3.1511,-3.1511,-3.1511,-3.1511,-3.1511,-3.1467,-3.0644,-3.0178,-2.9842,-2.8716,-2.8114,-2.7867,-2.7475,-2.7419,-2.7595,-2.7369,-2.7519,-2.7858,-2.7858,-2.821,-2.8675,-2.8838,-2.9202,-2.9566,-2.9741,-2.9792,-2.9792,-2.9792,-3.0068,-3.0281,-2.9892,-3.0068,-3.0281,-2.9892,-2.9792,-2.9792,-2.9792,-2.9792,-2.9792,-2.9792,-2.9792,-2.9792,-2.9792,-2.9792,-2.9729,-2.9566,-2.9528,-2.9528,-2.9528,-2.9528,-2.9603,-2.9779,-2.9792,-2.9792,-2.9792,-2.9792,-2.9792,-2.9792,-2.9792,-2.9792,-2.9792,-2.9792,-2.9792,-2.9792,-2.9792,-2.9792,-2.9792,-2.9792,-2.9792,-2.9792,-2.9792,-2.9792,-2.9792,-2.9792,-2.9792,-2.9792,-2.9792,-2.9792,-2.9792,-2.9792,-2.9792,-2.983,-3.0101,-3.0203,-3.0241,-3.0533,-3.1057,-3.1609,-3.5504,-3.5504,-3.5504,-3.5504,-3.5504,-3.5504,-3.5504,-3.5504,-3.5504,-3.5504,-3.5504,-3.5504,-3.5504,-3.5504,-3.5504,-3.5504,-3.5504,-3.5504,-3.5504,-3.4741,-3.4337,-3.4503,-3.4129,-3.326,-3.1914,-3.1899,-3.1765,-3.1511,-3.1511,-3.1511,-3.1511,-3.1511,-3.1645,-3.1855,-3.1382,-3.1138,-3.097,-2.9882,-2.9205,-2.8833,-2.8204,-2.7996,-2.8097,-2.7971,-2.8134,-2.8436,-2.8436,-2.88,-2.9277,-2.9277,-2.9503,-2.9792,-2.9792,-2.9792,-2.9829,-3.0055,-3.0357,-3.0583,-3.0457,-3.067,-3.0796,-3.0256,-2.9955,-2.9854,-3.0068,-2.9942,-2.9792,-2.9792,-2.9792,-2.9792,-2.9792,-2.9792,-2.9792,-2.9792,-2.9792,-2.9792,-2.9792,-2.9792,-2.9792,-2.9792,-2.9792,-2.9792,-2.9792,-2.9792,-2.9792,-2.9792,-2.9792,-2.9792,-2.9792,-2.9792,-2.9792,-2.9792,-2.9792,-2.9792,-2.9792,-2.9792,-2.9792,-2.9792,-2.9792,-2.9792,-2.9792,-2.9792,-2.9792,-2.9792,-2.9792,-2.9792,-2.9792,-2.9792,-2.9792,-2.9792,-2.9792,-2.9792,-2.9792,-2.9792,-3.0139,-3.0658,-3.5504,-3.5504,-3.5504,-3.5504,-3.5504,-3.5504,-3.5504,-3.5504,-3.5504,-3.5504,-3.5504,-3.5504,-3.5504,-3.5504,-3.5504,-3.5504,-3.5504,-3.5504,-3.5504,-3.5444,-3.516,-3.4623,-3.4533,-3.3918,-3.2721,-3.2572,-3.2168,-3.1511,-3.1511,-3.1525,-3.1585,-3.1585,-3.1944,-3.2602,-3.2602,-3.2506,-3.2251,-3.1368,-3.0508,-2.9641,-2.9206,-2.8736,-2.831,-2.8712,-2.8925,-2.8963,-2.8963,-2.934,-2.9792,-2.9792,-2.9792,-2.9792,-2.9792,-2.9792,-2.9905,-3.0457,-3.0645,-3.0783,-3.126,-3.1386,-3.1273,-3.0809,-3.0231,-2.993,-3.0432,-3.0156,-2.9792,-2.9792,-2.9792,-2.9792,-2.9792,-2.9792,-2.9792,-2.9792,-2.9792,-2.9792,-2.9792,-2.9792,-2.9792,-2.9792,-2.9792,-2.9792,-2.9792,-2.9792,-2.9792,-2.9792,-2.9792,-2.9792,-2.9792,-2.9792,-2.9792,-2.9792,-2.9842,-2.9867,-2.9867,-2.9867,-2.9842,-2.9792,-2.9792,-2.9792,-2.9792,-2.9792,-2.9792,-2.9792,-2.9792,-2.9792,-2.9792,-2.9792,-2.9792,-2.9792,-2.9792,-2.9792,-2.9792,-2.9792,-2.9792,-2.9792,-3.5504,-3.5504,-3.5504,-3.5504,-3.5504,-3.5504,-3.5504,-3.5504,-3.5504,-3.5504,-3.5504,-3.5504,-3.5504,-3.5504,-3.5504,-3.5504,-3.5504,-3.5504,-3.5504,-3.4996,-3.4876,-3.5265,-3.4788,-3.4369,-3.4053,-3.3036,-3.2168,-3.1511,-3.1511,-3.1765,-3.2273,-3.2273,-3.2647,-3.3275,-3.3275,-3.3258,-3.3191,-3.2768,-3.2041,-3.1079,-3.0355,-2.9814,-2.939,-2.9051,-2.9176,-2.9603,-2.9603,-2.9691,-2.9792,-2.9792,-2.9792,-2.9792,-2.9792,-2.9792,-2.9905,-3.0457,-3.0896,-3.1248,-3.1361,-3.1386,-3.1361,-3.1248,-3.0507,-2.9829,-2.9942,-2.988,-2.9792,-2.9792,-2.9792,-2.9792,-2.9792,-2.9792,-2.9792,-2.9792,-2.9792,-2.9792,-2.9792,-2.9792,-2.9792,-2.9792,-2.9792,-2.9792,-2.9792,-2.9792,-2.9792,-2.9792,-2.9792,-2.9792,-2.9792,-2.9792,-2.9792,-2.9792,-3.0218,-3.0432,-3.0432,-3.0432,-3.0218,-2.9792,-2.9792,-2.9792,-2.9792,-2.9792,-2.9792,-2.9792,-2.9792,-2.9792,-2.9792,-2.9792,-2.9792,-2.9792,-2.9792,-2.9792,-2.9792,-2.9792,-2.9792,-2.9895,-3.5943,-3.5718,-3.5619,-3.5975,-3.5718,-3.5504,-3.5504,-3.5504,-3.5504,-3.5504,-3.5504,-3.5504,-3.5504,-3.5504,-3.5504,-3.5504,-3.5504,-3.5504,-3.5504,-3.5498,-3.5642,-3.6023,-3.5688,-3.5369,-3.5049,-3.3999,-3.3125,-3.2437,-3.2437,-3.2647,-3.2976,-3.2976,-3.3335,-3.3994,-3.3994,-3.4143,-3.4409,-3.3802,-3.3234,-3.2659,-3.1799,-3.1319,-3.1093,-3.0777,-3.0856,-3.1132,-3.1132,-3.0846,-3.0482,-3.0482,-3.0177,-2.9792,-2.9792,-2.998,-3.0294,-3.0821,-3.1173,-3.1449,-3.1712,-3.1788,-3.1662,-3.1148,-3.0783,-3.0495,-3.0244,-2.998,-2.9792,-2.9792,-2.9792,-2.9792,-2.9792,-2.9792,-2.9792,-2.9792,-2.9792,-2.9792,-2.9792,-2.9792,-2.9792,-2.9792,-2.9792,-2.9792,-2.9792,-2.9792,-2.9792,-2.9792,-2.9792,-2.9792,-2.9792,-3.0043,-3.0181,-3.0181,-3.1198,-3.1576,-3.1254,-3.1771,-3.1521,-3.0457,-3.0264,-3.0181,-3.0181,-3.0181,-3.0181,-3.0207,-3.0394,-3.0216,-2.9869,-3.0784,-3.0608,-2.9818,-3.0279,-3.0482,-3.0419,-2.9972,-2.9792,-2.9856,-3.6477,-3.6117,-3.5894,-3.6492,-3.6006,-3.5504,-3.5504,-3.5504,-3.5504,-3.5504,-3.5504,-3.5504,-3.5504,-3.5504,-3.5504,-3.5504,-3.5504,-3.5504,-3.5504,-3.6196,-3.6615,-3.6615,-3.6722,-3.6548,-3.5987,-3.5385,-3.4559,-3.3499,-3.3499,-3.3559,-3.3664,-3.3664,-3.4023,-3.4683,-3.4683,-3.4966,-3.5439,-3.461,-3.4177,-3.391,-3.3136,-3.2749,-3.2593,-3.2593,-3.2593,-3.2593,-3.2593,-3.2105,-3.1426,-3.1254,-3.0696,-3.0011,-2.9982,-3.0244,-3.0733,-3.1348,-3.1461,-3.1512,-3.2064,-3.2077,-3.1725,-3.0834,-3.0871,-3.0997,-3.057,-3.0118,-2.9792,-2.9792,-2.9792,-2.9792,-2.9792,-2.9792,-2.9792,-2.9792,-2.9792,-2.9792,-2.9792,-2.9792,-2.9792,-2.9792,-2.9792,-2.9792,-2.9792,-2.9792,-2.9792,-2.9792,-2.9792,-2.9829,-2.993,-3.0281,-3.0586,-3.082,-3.2124,-3.2708,-3.2412,-3.3287,-3.3133,-3.1915,-3.1591,-3.1129,-3.062,-3.0708,-3.0763,-3.0874,-3.1185,-3.0924,-3.0394,-3.1974,-3.1696,-3.0355,-3.1156,-3.1426,-3.1328,-3.0394,-3.0139,-3.0254,-3.6584,-3.6523,-3.6461,-3.6584,-3.6006,-3.5504,-3.5504,-3.5504,-3.5504,-3.5504,-3.5504,-3.5504,-3.5504,-3.5504,-3.5504,-3.5504,-3.5504,-3.5504,-3.5504,-3.6196,-3.6615,-3.6615,-3.7279,-3.76,-3.7488,-3.7401,-3.608,-3.3499,-3.3499,-3.3784,-3.4369,-3.4369,-3.4711,-3.537,-3.537,-3.5415,-3.5504,-3.5359,-3.4806,-3.3993,-3.3842,-3.331,-3.2593,-3.2593,-3.2593,-3.2593,-3.2593,-3.2522,-3.2285,-3.1462,-3.1106,-3.0962,-3.0607,-3.0557,-3.0809,-3.1813,-3.1763,-3.1512,-3.2064,-3.1537,-3.0796,-3.0658,-3.0319,-2.9993,-2.9917,-2.9842,-2.9792,-2.9792,-2.9792,-2.9792,-2.9792,-2.9792,-2.9792,-2.9792,-2.9792,-2.9792,-2.9792,-2.9792,-2.9792,-2.9792,-2.9792,-2.9792,-2.9792,-2.9792,-2.9792,-2.9792,-2.9792,-2.9993,-3.0482,-3.0118,-3.0508,-3.177,-3.2002,-3.2776,-3.4053,-3.4203,-3.4475,-3.4829,-3.4796,-3.3276,-3.0633,-3.1085,-3.1478,-3.1821,-3.1882,-3.2041,-3.2249,-3.25,-3.2464,-3.2213,-3.2357,-3.2429,-3.2321,-3.1365,-3.1536,-3.2105,-3.7252,-3.7247,-3.7219,-3.7252,-3.6305,-3.5504,-3.5504,-3.5504,-3.5504,-3.5504,-3.5504,-3.5504,-3.5504,-3.5504,-3.5504,-3.5504,-3.5504,-3.5668,-3.6086,-3.6844,-3.7454,-3.7873,-3.823,-3.8414,-3.8414,-3.8007,-3.72,-3.5881,-3.5446,-3.5168,-3.5055,-3.5055,-3.522,-3.5504,-3.5504,-3.5504,-3.5504,-3.5504,-3.5246,-3.4839,-3.4839,-3.4591,-3.4225,-3.4225,-3.4225,-3.4225,-3.4225,-3.4086,-3.3868,-3.3463,-3.2826,-3.2118,-3.1617,-3.1301,-3.1085,-3.1273,-3.1348,-3.1386,-3.1336,-3.1185,-3.0896,-3.0306,-3.0206,-3.0168,-2.9867,-2.9792,-2.9792,-2.9792,-2.9792,-2.9792,-2.9792,-2.9792,-2.9792,-2.9792,-2.9792,-2.9792,-2.9792,-3.0241,-3.0771,-3.1304,-3.1378,-3.1378,-3.1378,-3.1378,-3.1378,-3.1378,-3.1378,-3.1631,-3.2253,-3.2346,-3.2829,-3.388,-3.4782,-3.5414,-3.5741,-3.5963,-3.5762,-3.5184,-3.5125,-3.4454,-3.3276,-3.3528,-3.3724,-3.3892,-3.3721,-3.3692,-3.3784,-3.4509,-3.4356,-3.3748,-3.3888,-3.3395,-3.2593,-3.2713,-3.2357,-3.1742]},{"header":{"parameterUnit":"m.s-1","parameterCategory":1,"la1":30.6,"la2":28.766,"lo1":-90.7593,"lo2":-88.6598,"dy":0.0162,"dx":0.0183,"nx":116,"ny":114,"refTime":"2024-04-17T06:00:00:Z","depth":0,"parameterNumber":3,"parameterNumberName":"V-component_of_WINDS"},"data":[0.0,0.0,0.0,0.0,0.0,0.0,0.0,0.0,0.0,0.0,0.0,0.0,0.0,0.0,0.0,0.0,0.0,0.0,0.0,0.0,0.0,0.0,0.0,0.0,0.0,0.0,0.0,0.0,0.0,0.0,0.0,0.0,0.0,0.0,0.0,0.0,0.0,0.0,0.0,0.0,0.0,0.0,0.0,0.0,0.0,0.0,0.0,0.0,0.0,0.0,0.0,0.0,0.0,0.0,0.0,0.0,0.0,0.0,0.0,0.0,0.0,0.0,0.0,0.0,0.0,0.0,0.0,0.0,0.0,0.0,0.0,0.0,0.0,0.0,0.0,0.0,0.0,0.0,0.0,0.0,0.0,0.0,0.0,0.0,0.0,0.0,0.0,0.0,0.0,0.0,0.0,0.0,0.0,0.0,0.0,0.0,0.0,0.0,0.0,0.0,0.0,0.0,0.0,0.0,0.0,0.0,0.0,0.0,0.0,0.0,0.0,0.0,0.0,0.0,0.0,0.0,0.0,0.0,0.0,0.0,0.0,0.0,0.0,0.0,0.0,0.0,0.0,0.0,0.0,0.0,0.0,0.0,0.0,0.0,0.0,0.0,0.0,0.0,0.0,0.0,0.0,0.0,0.0,0.0,0.0,0.0,0.0,0.0,0.0,0.0,0.0,0.0,0.0,0.0,0.0,0.0,0.0,0.0,0.0,0.0,0.0,0.0,0.0,0.0,0.0,0.0,0.0,0.0,0.0,0.0,0.0,0.0,0.0,0.0,0.0,0.0,0.0,0.0,0.0,0.0,0.0,0.0,0.0,0.0,0.0,0.0,0.0,0.0,0.0,0.0,0.0,0.0,0.0,0.0,0.0,0.0,0.0,0.0,0.0,0.0,0.0,0.0,0.0,0.0,0.0,0.0,0.0,0.0,0.0,0.0,0.0,0.0,0.0,0.0,0.0,0.0,0.0,0.0,0.0,0.0,0.0,0.0,0.0,0.0,0.0,0.0,0.0,0.0,0.0,0.0,0.0,0.0,0.0,0.0,0.0,0.0,0.0,0.0,0.0,0.0,0.0,0.0,0.0,0.0,0.0,0.0,0.0,0.0,0.0,0.0,0.0,0.0,0.0,0.0,0.0,0.0,0.0,0.0,0.0,0.0,0.0,0.0,0.0,0.0,0.0,0.0,0.0,0.0,0.0,0.0,0.0,0.0,0.0,0.0,0.0,0.0,0.0,0.0,0.0,0.0,0.0,0.0,0.0,0.0,0.0,0.0,0.0,0.0,0.0,0.0,0.0,0.0,0.0,0.0,0.0,0.0,0.0,0.0,0.0,0.0,0.0,0.0,0.0,0.0,0.0,0.0,0.0,0.0,0.0,0.0,0.0,0.0,0.0,0.0,0.0,0.0,0.0,0.0,0.0,0.0,0.0,0.0,0.0,0.0,0.0,0.0,0.0,0.0,0.0,0.0,0.0,0.0,0.0,0.0,0.0,0.0,0.0,0.0,0.0,0.0,0.0,0.0,0.0,0.0,0.0,0.0,0.0,0.0,0.0,0.0,0.0,0.0,0.0,0.0,0.0,0.0,0.0,0.0,0.0,0.0,0.0,0.0,0.0,0.0,0.0,0.0,0.0,0.0,0.0,0.0,0.0,0.0,0.0,0.0,0.0,0.0,0.0,0.0,0.0,0.0,0.0,0.0,0.0,0.0,0.0,0.0,0.0,0.0,0.0,0.0,0.0,0.0,0.0,0.0,0.0,0.0,0.0,0.0,0.0,0.0,0.0,0.0,0.0,0.0,0.0,0.0,0.0,0.0,0.0,0.0,0.0,0.0,0.0,0.0,0.0,0.0,0.0,0.0,0.0,0.0,0.0,0.0,0.0,0.0,0.0,0.0,0.0,0.0,0.0,0.0,0.0,0.0,0.0,0.0,0.0,0.0,0.0,0.0,0.0,0.0,0.0,0.0,0.0,0.0,0.0,0.0,0.0,0.0,0.0,0.0,0.0,0.0,0.0,0.0,0.0,0.0,0.0,0.0,0.0,0.0,0.0,0.0,0.0,0.0,0.0,0.0,0.0,0.0,0.0,0.0,0.0,0.0,0.0,0.0,0.0,0.0,0.0,0.0,0.0,0.0,0.0,0.0,0.0,0.0,0.0,0.0,0.0,0.0,0.0,0.0,0.0,0.0,0.0,0.0,0.0,0.0,0.0,0.0,0.0,0.0,0.0,0.0,0.0,0.0,0.0,0.0,0.0,0.0,0.0,0.0,0.0,0.0,0.0,0.0,0.0,0.0,0.0,0.0,0.0,0.0,0.0,0.0,0.0,0.0,0.0,0.0,0.0,0.0,0.0,0.0,0.0,0.0,0.0,0.0,0.0,0.0,0.0,0.0,0.0,0.0,0.0,0.0,0.0,0.0,0.0,0.0,0.0,0.0,0.0,0.0,0.0,0.0,0.0,0.0,0.0,0.0,0.0,0.0,0.0,0.0,0.0,0.0,0.0,0.0,0.0,0.0,0.0,0.0,0.0,0.0,0.0,0.0,0.0,0.0,0.0,0.0,0.0,0.0,0.0,0.0,0.0,0.0,0.0,0.0,0.0,0.0,0.0,0.0,0.0,0.0,0.0,0.0,0.0,0.0,0.0,0.0,0.0,0.0,0.0,0.0,0.0,0.0,0.0,0.0,0.0,0.0,0.0,0.0,0.0,0.0,0.0,0.0,0.0,0.0,0.0,0.0,0.0,0.0,0.0,0.0,0.0,0.0,0.0,0.0,0.0,0.0,0.0,0.0,0.0,0.0,0.0,0.0,0.0,0.0,0.0,0.0,0.0,0.0,0.0,0.0,0.0,0.0,0.0,0.0,0.0,0.0,0.0,0.0,0.0,0.0,0.0,0.0,0.0,0.0,0.0,0.0,0.0,0.0,0.0,0.0,0.0,0.0,0.0,0.0,0.0,0.0,0.0,0.0,0.0,0.0,0.0,0.0,0.0,0.0,0.0,0.0,0.0,0.0,0.0,0.0,0.0,0.0,0.0,0.0,0.0,0.0,0.0,0.0,0.0,0.0,0.0,0.0,0.0,0.0,0.0,0.0,0.0,0.0,0.0,0.0,0.0,0.0,0.0,0.0,0.0,0.0,0.0,0.0,0.0,0.0,0.0,0.0,0.0,0.0,0.0,0.0,0.0,0.0,0.0,0.0,0.0,0.0,0.0,0.0,0.0,0.0,0.0,0.0,0.0,0.0,0.0,0.0,0.0,0.0,0.0,0.0,0.0,0.0,0.0,0.0,0.0,0.0,0.0,0.0,0.0,0.0,0.0,0.0,0.0,0.0,0.0,0.0,0.0,0.0,0.0,0.0,0.0,0.0,0.0,0.0,0.0,0.0,0.0,0.0,0.0,0.0,0.0,0.0,0.0,0.0,0.0,0.0,0.0,0.0,0.0,0.0,0.0,0.0,0.0,0.0,0.0,0.0,0.0,0.0,0.0,0.0,0.0,0.0,0.0,0.0,0.0,0.0,0.0,0.0,0.0,0.0,0.0,0.0,0.0,0.0,0.0,0.0,0.0,0.0,0.0,0.0,0.0,0.0,0.0,0.0,0.0,0.0,0.0,0.0,0.0,0.0,0.0,0.0,0.0,0.0,0.0,0.0,0.0,0.0,0.0,0.0,0.0,0.0,0.0,0.0,0.0,0.0,0.0,0.0,0.0,0.0,0.0,0.0,0.0,0.0,0.0,0.0,0.0,0.0,0.0,0.0,0.0,0.0,0.0,0.0,0.0,0.0,0.0,0.0,0.0,0.0,0.0,0.0,0.0,0.0,0.0,0.0,0.0,0.0,0.0,0.0,0.0,0.0,0.0,0.0,0.0,0.0,0.0,0.0,0.0,0.0,0.0,0.0,0.0,0.0,0.0,0.0,0.0,0.0,0.0,0.0,0.0,0.0,0.0,0.0,0.0,0.0,0.0,0.0,0.0,0.0,0.0,0.0,0.0,0.0,0.0,0.0,0.0,0.0,0.0,0.0,0.0,0.0,0.0,0.0,0.0,0.0,0.0,0.0,0.0,0.0,0.0,0.0,0.0,0.0,0.0,0.0,0.0,0.0,0.0,0.0,0.0,0.0,0.0,0.0,0.0,0.0,0.0,0.0,0.0,0.0,0.0,0.0,0.0,0.0,0.0,0.0,0.0,0.0,0.0,0.0,0.0,0.0,0.0,0.0,0.0,0.0,0.0,0.0,0.0,0.0,0.0,0.0,0.0,0.0,0.0,0.0,0.0,0.0,0.0,0.0,0.0,0.0,0.0,0.0,0.0,0.0,0.0,0.0,0.0,0.0,0.0,0.0,0.0,0.0,0.0,0.0,0.0,0.0,0.0,0.0,0.0,0.0,0.0,0.0,0.0,0.0,0.0,0.0,0.0,0.0,0.0,0.0,0.0,0.0,0.0,0.0,0.0,0.0,0.0,0.0,0.0,0.0,0.0,0.0,0.0,0.0,0.0,0.0,0.0,0.0,0.0,0.0,0.0,0.0,0.0,0.0,0.0,0.0,0.0,0.0,0.0,0.0,0.0,0.0,0.0,0.0,0.0,0.0,0.0,0.0,0.0,0.0,0.0,0.0,0.0,0.0,0.0,0.0,0.0,0.0,0.0,0.0,0.0,0.0,0.0,0.0,0.0,0.0,0.0,0.0,0.0,0.0,0.0,0.0,0.0,0.0,0.0,0.0,0.0,0.0,0.0,0.0,0.0,0.0,0.0,0.0,0.0,0.0,0.0,0.0,0.0,0.0,0.0,0.0,0.0,0.0,0.0,0.0,0.0,0.0,0.0,0.0,0.0,0.0,0.0,0.0,0.0,0.0,0.0,0.0,0.0,0.0,0.0,0.0,0.0,0.0,0.0,0.0,0.0,0.0,0.0,0.0,0.0,0.0,0.0,0.0,0.0,0.0,0.0,0.0,0.0,0.0,0.0,0.0,0.0,0.0,0.0,0.0,0.0,0.0,0.0,0.0,0.0,0.0,0.0,0.0,0.0,0.0,0.0,0.0,0.0,0.0,0.0,0.0,0.0,0.0,0.0,0.0,0.0,0.0,0.0,0.0,0.0,0.0,0.0,0.0,0.0,0.0,0.0,0.0,0.0,0.0,0.0,0.0,0.0,0.0,0.0,0.0,0.0,0.0,0.0,0.0,0.0,0.0,0.0,0.0,0.0,0.0,0.0,0.0,0.0,0.0,0.0,0.0,0.0,0.0,0.0,0.0,0.0,0.0,0.0,0.0,0.0,0.0,0.0,0.0,0.0,0.0,0.0,0.0,0.0,0.0,0.0,0.0,0.0,0.0,0.0,0.0,0.0,0.0,0.0,0.0,0.0,0.0,0.0,0.0,0.0,0.0,0.0,0.0,0.0,0.0,0.0,0.0,0.0,0.0,0.0,0.0,0.0,0.0,0.0,0.0,0.0,0.0,0.0,0.0,0.0,0.0,0.0,0.0,0.0,0.0,0.0,0.0,0.0,0.0,0.0,0.0,0.0,0.0,0.0,0.0,0.0,0.0,0.0,0.0,0.0,0.0,0.0,0.0,0.0,0.0,0.0,0.0,0.0,0.0,0.0,0.0,0.0,0.0,0.0,0.0,0.0,0.0,0.0,0.0,0.0,0.0,0.0,0.0,0.0,0.0,0.0,0.0,0.0,0.0,0.0,0.0,0.0,0.0,0.0,0.0,0.0,0.0,0.0,0.0,0.0,0.0,0.0,0.0,0.0,0.0,0.0,0.0,0.0,0.0,0.0,0.0,0.0,0.0,0.0,0.0,0.0,0.0,0.0,0.0,0.0,0.0,0.0,0.0,0.0,0.0,0.0,0.0,0.0,0.0,0.0,0.0,0.0,0.0,0.0,0.0,0.0,0.0,0.0,0.0,0.0,0.0,0.0,0.0,0.0,0.0,0.0,0.0,0.0,0.0,0.0,0.0,0.0,0.0,0.0,0.0,0.0,0.0,0.0,0.0,0.0,0.0,0.0,0.0,0.0,0.0,0.0,0.0,0.0,0.0,0.0,0.0,0.0,0.0,0.0,0.0,0.0,0.0,0.0,0.0,0.0,0.0,0.0,0.0,0.0,0.0,0.0,0.0,1.47,1.3009,0.0,0.0,0.0,0.0,0.0,0.0,0.0,0.0,0.0,0.0,0.0,0.0,0.0,0.0,0.0,0.0,0.0,0.0,0.0,0.0,0.0,0.0,0.0,1.1853,1.1166,1.0611,1.0009,0.9444,0.8834,0.9357,0.0,0.0,0.0,0.0,1.2176,1.3027,1.441,1.6415,1.6694,1.7453,1.8618,1.6325,1.4549,1.3181,0.0,0.0,0.0,0.0,0.0,0.0,0.0,0.0,0.0,0.0,0.0,0.0,0.0,0.0,0.0,0.0,0.0,0.0,0.0,0.0,0.0,0.0,0.0,0.0,0.0,0.0,0.0,0.0,0.0,0.0,0.0,0.0,0.0,0.0,0.0,0.0,0.0,0.0,0.0,0.0,0.0,0.0,0.0,0.0,0.0,0.0,0.0,0.0,0.0,0.0,0.0,0.0,0.0,0.0,0.0,0.0,0.0,0.0,0.0,0.0,0.0,0.0,0.0,0.0,0.0,0.0,0.0,0.0,0.0,0.0,1.8003,1.6397,0.0,0.0,0.0,0.0,0.0,0.0,0.0,0.0,0.0,0.0,0.0,0.0,0.0,0.0,0.0,0.0,0.0,0.0,0.0,0.0,0.0,1.3476,1.3476,1.3311,1.3074,1.2899,1.1841,1.1112,1.0897,1.0902,1.0907,1.0907,1.1746,1.2379,1.2759,1.4586,1.6246,1.7699,1.8797,1.9749,2.0519,2.1059,2.0046,1.7687,1.4871,0.0,0.0,0.0,0.0,0.0,0.0,0.0,0.0,0.0,0.0,0.0,0.0,0.0,0.0,0.0,0.0,0.0,0.0,0.0,0.0,0.0,0.0,0.0,0.0,0.0,0.0,0.0,0.0,0.0,0.0,0.0,0.0,0.0,0.0,0.0,0.0,0.0,0.0,0.0,0.0,0.0,0.0,0.0,0.0,0.0,0.0,0.0,0.0,0.0,0.0,0.0,0.0,0.0,0.0,0.0,0.0,0.0,0.0,0.0,0.0,0.0,0.0,0.0,2.3077,2.3587,2.4279,2.4355,2.4462,2.4431,2.2024,2.0536,1.9716,1.8456,0.0,0.0,0.0,0.0,0.0,0.0,0.0,0.0,0.0,0.0,0.0,0.0,0.0,0.0,0.0,0.0,0.0,0.0,0.0,1.4569,1.4569,1.5822,1.6226,1.5262,1.4164,1.3121,1.2076,1.2037,1.2072,1.2072,1.2898,1.3804,1.4712,1.5913,1.7564,1.9716,2.3053,2.4754,2.4887,2.5191,2.4931,2.3968,1.8837,1.6093,1.5213,0.0,0.0,0.0,0.0,0.0,0.0,0.0,0.0,0.0,0.0,0.0,0.0,0.0,0.0,0.0,0.0,0.0,0.0,0.0,0.0,0.0,0.0,0.0,0.0,0.0,0.0,0.0,0.0,0.0,0.0,0.0,0.0,0.0,0.0,0.0,0.0,0.0,0.0,0.0,0.0,0.0,2.2016,2.1307,0.0,0.0,0.0,0.0,0.0,0.0,0.0,0.0,0.0,0.0,0.0,0.0,0.0,2.7136,2.8503,2.9451,2.9517,2.8712,2.9794,2.9569,2.8186,2.8593,2.8318,2.7491,2.713,0.0,2.0998,2.0126,0.0,0.0,0.0,0.0,0.0,0.0,0.0,0.0,0.0,0.0,0.0,0.0,0.0,0.0,0.0,0.0,0.0,0.0,0.0,0.0,0.0,1.6393,1.6765,1.6245,1.5555,1.4998,1.4741,1.4193,1.3965,1.4218,1.4378,1.4842,1.5739,1.7636,2.0149,2.3242,2.5756,2.7029,2.7104,2.7512,2.7616,2.7267,2.3815,2.0557,1.7566,1.5435,0.0,0.0,0.0,0.0,0.0,0.0,0.0,0.0,0.0,0.0,0.0,0.0,0.0,0.0,0.0,0.0,0.0,0.0,0.0,0.0,0.0,0.0,0.0,0.0,0.0,0.0,0.0,0.0,0.0,0.0,0.0,0.0,0.0,0.0,0.0,0.0,0.0,0.0,0.0,2.3913,2.4013,2.4049,2.2962,2.2315,0.0,0.0,0.0,0.0,0.0,0.0,0.0,0.0,0.0,2.9017,3.0259,3.0834,3.0589,3.1887,3.1941,3.0889,3.1128,3.0847,3.0039,2.989,2.9475,2.8813,2.8813,2.7576,2.5424,2.4509,2.3283,2.1807,0.0,0.0,0.0,0.0,1.8959,2.0316,0.0,0.0,0.0,0.0,0.0,0.0,0.0,0.0,0.0,0.0,0.0,0.0,1.6949,1.7616,1.8013,1.8013,1.7273,1.697,1.7424,1.6134,1.5505,1.5963,1.576,1.6006,1.6775,1.9809,2.3159,2.6844,2.8222,2.8957,2.9069,2.9426,2.9507,2.9254,2.7696,2.4553,2.0357,1.8548,1.6949,1.545,0.0,0.0,0.0,0.0,0.0,0.0,0.0,0.0,0.0,0.0,0.0,0.0,0.0,0.0,0.0,0.0,0.0,0.0,0.0,0.0,0.0,0.0,0.0,0.0,0.0,0.0,0.0,0.0,0.0,0.0,0.0,0.0,0.0,0.0,0.0,0.0,0.0,2.5595,2.6235,2.6819,2.6189,2.5677,0.0,0.0,0.0,0.0,0.0,0.0,3.0755,3.1484,3.2008,3.2265,3.3766,3.3982,3.2731,3.3839,3.3887,3.2885,3.2503,3.2142,3.1876,3.139,3.0871,3.0361,3.0361,3.0153,2.9781,2.815,2.6195,2.4215,2.3687,2.223,2.0404,2.0404,2.0989,2.1623,0.0,0.0,0.0,0.0,0.0,0.0,0.0,0.0,0.0,0.0,0.0,1.8534,1.9022,2.0596,2.162,2.162,1.9936,1.9016,1.9429,1.7258,1.6148,1.6624,1.6995,1.7524,1.8196,2.2493,2.6458,2.9966,3.0869,3.1351,3.142,3.1272,3.0837,3.0194,2.9272,2.7508,2.5094,2.2655,2.1021,1.9987,1.8867,0.0,0.0,0.0,0.0,0.0,0.0,0.0,0.0,0.0,0.0,0.0,0.0,0.0,0.0,0.0,0.0,0.0,0.0,0.0,0.0,0.0,0.0,0.0,0.0,0.0,0.0,0.0,0.0,0.0,0.0,0.0,0.0,0.0,0.0,0.0,0.0,0.0,0.0,2.9006,3.0927,0.0,0.0,0.0,0.0,3.0385,3.1354,3.2468,3.3635,3.4708,3.5744,3.6828,3.6463,3.6451,3.6891,3.6463,3.6213,3.6166,3.6141,3.5531,3.4532,3.4495,3.3908,3.2896,3.2896,3.2914,3.2617,2.9271,2.6955,2.546,2.4923,2.3996,2.2916,2.2916,2.296,2.3003,0.0,0.0,0.0,0.0,0.0,1.2629,1.3564,1.4243,1.5377,1.7392,1.8675,1.9806,2.0874,2.1268,2.143,2.143,2.0595,2.0039,2.0096,1.8994,1.8368,1.8449,1.9109,2.0918,2.3953,2.6522,2.9118,3.174,3.2052,3.2426,3.2871,3.2798,3.2412,3.1749,3.0852,2.9783,2.8418,2.551,2.3874,2.3045,2.1109,2.0404,0.0,0.0,0.0,0.0,0.0,0.0,0.0,0.0,0.0,0.0,0.0,0.0,0.0,0.0,0.0,0.0,0.0,0.0,0.0,0.0,0.0,0.0,0.0,0.0,0.0,0.0,0.0,0.0,0.0,0.0,0.0,0.0,0.0,0.0,0.0,0.0,0.0,3.1995,3.2677,0.0,3.2629,3.2695,3.3149,3.4263,3.5018,3.5738,3.6516,3.728,3.7864,3.8253,3.8127,3.7889,3.7713,3.7161,3.6757,3.6405,3.6006,3.5629,3.5182,3.4512,3.3985,3.3583,3.3232,3.3124,3.2938,3.0978,2.8986,2.7117,2.624,2.4766,2.3091,2.3091,2.3091,2.3091,0.0,0.0,0.0,0.0,0.0,1.2732,1.4027,1.4772,1.6149,1.877,1.9701,2.0651,2.2014,2.198,2.1841,2.1841,2.1155,2.0859,2.1094,2.0162,1.9863,2.0375,2.1769,2.4311,2.8156,2.9459,3.1118,3.3246,3.3246,3.3486,3.3937,3.3937,3.3582,3.2906,3.2341,3.1827,3.1273,2.8876,2.7112,2.5786,2.4048,2.3534,2.3631,0.0,0.0,0.0,0.0,0.0,0.0,0.0,0.0,0.0,0.0,0.0,0.0,0.0,0.0,0.0,0.0,0.0,0.0,0.0,0.0,0.0,0.0,0.0,0.0,0.0,0.0,0.0,0.0,0.0,0.0,0.0,0.0,0.0,0.0,0.0,3.3128,3.4195,3.5006,3.543,3.5303,3.5456,3.605,3.7174,3.7586,3.799,3.8542,3.8944,3.9145,3.9145,3.8781,3.8391,3.8002,3.7274,3.6769,3.6405,3.5994,3.5683,3.547,3.46,3.4073,3.3872,3.3319,3.3124,3.2993,3.1851,3.0318,2.854,2.7073,2.5347,2.3637,2.3266,2.3091,2.3091,0.0,0.0,0.0,0.0,0.0,1.2952,1.4914,1.5199,1.6334,1.9521,2.0369,2.1124,2.2418,2.2917,2.3138,2.3108,2.1843,2.1436,2.2423,2.0808,2.0617,2.24,2.489,2.7542,3.0369,3.113,3.2505,3.4566,3.4544,3.4572,3.4624,3.4624,3.4284,3.3633,3.3633,3.3608,3.3556,3.2692,3.0795,2.8344,2.7843,2.7721,2.7636,0.0,0.0,0.0,0.0,0.0,0.0,0.0,0.0,0.0,0.0,0.0,0.0,0.0,0.0,0.0,0.0,0.0,0.0,0.0,0.0,0.0,0.0,0.0,0.0,0.0,0.0,0.0,0.0,0.0,0.0,0.0,0.0,0.0,3.2273,3.3766,3.5016,3.559,3.8052,3.8843,3.6719,3.7989,3.8944,3.8944,3.8944,3.9132,3.9672,3.9697,3.9697,3.9697,3.8617,3.8027,3.8002,3.6923,3.643,3.6405,3.6405,3.6081,3.5508,3.4931,3.4437,3.3884,3.3319,3.3111,3.2968,3.1851,3.0787,2.96,2.7394,2.5839,2.4702,2.3594,2.3178,2.3178,0.0,0.0,0.0,1.2305,1.2305,1.2952,1.4914,1.5199,1.6596,2.0462,2.1225,2.1953,2.3422,2.3815,2.375,2.3155,2.2374,2.207,2.2337,2.2368,2.3695,2.6662,2.8288,3.0441,3.321,3.3523,3.439,3.5893,3.5499,3.5313,3.5339,3.5339,3.4981,3.4333,3.4333,3.4062,3.3582,3.3328,3.2793,3.2037,3.122,3.0921,3.0813,0.0,0.0,0.0,0.0,0.0,0.0,0.0,0.0,0.0,0.0,0.0,0.0,0.0,0.0,0.0,0.0,0.0,0.0,0.0,0.0,0.0,0.0,0.0,0.0,0.0,0.0,0.0,0.0,0.0,0.0,0.0,3.3397,3.4453,3.4042,3.5795,3.7431,3.8417,3.9233,3.9446,3.8831,3.9195,3.9471,3.9471,3.9471,3.9534,3.9685,3.9697,3.9697,3.9697,3.9007,3.8429,3.8002,3.7312,3.6807,3.6405,3.6405,3.6329,3.6107,3.5152,3.4638,3.4449,3.3483,3.283,3.239,3.1687,3.0998,3.0211,2.8369,2.6994,2.5975,2.5683,2.5052,2.4457,0.0,0.0,0.0,1.2305,1.2305,1.2806,1.435,1.4914,1.6366,1.9682,2.076,2.1768,2.3155,2.339,2.3273,2.2816,2.256,2.2516,2.2747,2.449,2.6651,2.9157,3.0814,3.2562,3.4397,3.5002,3.565,3.6395,3.6097,3.5941,3.5941,3.5694,3.5385,3.5028,3.5028,3.48,3.4423,3.4423,3.4423,3.4456,3.4557,3.4219,3.3565,3.2585,3.2421,3.2392,3.0427,2.9371,2.8773,2.8058,0.0,0.0,0.0,0.0,0.0,0.0,0.0,0.0,0.0,0.0,0.0,0.0,0.0,0.0,0.0,0.0,0.0,0.0,0.0,0.0,0.0,0.0,0.0,0.0,3.6141,3.7045,3.7222,3.7914,3.8693,3.9584,3.9697,3.9697,3.9697,3.9697,3.9697,3.9697,3.9697,3.9697,3.9697,3.9697,3.9697,3.9697,3.9157,3.8705,3.8366,3.7575,3.7023,3.6757,3.6518,3.6405,3.6367,3.5228,3.468,3.4618,3.3558,3.2754,3.2177,3.1625,3.1085,3.0426,0.0,0.0,0.0,0.0,2.6099,2.5588,0.0,0.0,0.0,1.2268,1.2305,1.2629,1.3564,1.4458,1.5791,1.7894,1.95,2.082,2.1908,2.211,2.211,2.2035,2.2234,2.2721,2.3564,2.6666,2.9107,3.0473,3.2584,3.4029,3.4694,3.5838,3.6416,3.6498,3.6416,3.6395,3.6374,3.5854,3.56,3.56,3.56,3.5627,3.5689,3.5622,3.5672,3.5902,3.7295,3.7087,3.5873,3.5252,3.5376,3.5582,3.3405,3.254,3.2208,3.0658,0.0,0.0,0.0,0.0,0.0,0.0,0.0,0.0,0.0,0.0,0.0,0.0,0.0,0.0,0.0,0.0,0.0,0.0,0.0,0.0,0.0,0.0,0.0,0.0,3.8371,3.9512,4.0729,3.986,3.922,3.9647,3.9697,3.9697,3.9697,3.9697,3.9697,3.9697,3.9697,3.9697,3.9697,0.0,0.0,0.0,0.0,3.8931,3.8919,3.7814,3.7249,3.7174,3.6669,3.6405,3.6367,3.5228,3.468,3.4663,3.3483,3.2654,3.2077,3.1524,3.0997,3.0338,2.887,2.8307,2.8176,2.7209,2.6737,2.6599,0.0,0.0,0.0,1.215,1.2305,1.2629,1.3564,1.3882,1.4822,1.7116,1.8515,1.9564,2.0285,2.0908,2.1015,2.0423,2.064,2.2014,2.4826,2.7144,2.9517,3.1964,3.3512,3.4873,3.6004,3.6264,3.6603,3.7057,3.6603,3.6395,3.6374,3.5854,3.56,3.56,3.56,3.5832,3.6224,3.5766,3.6101,3.6933,3.7403,3.7541,3.7511,3.7912,3.8133,3.8022,3.6316,3.5257,3.4522,3.4088,3.2481,3.0585,3.005,2.8486,0.0,0.0,0.0,0.0,0.0,0.0,0.0,0.0,0.0,0.0,0.0,0.0,0.0,0.0,0.0,0.0,0.0,0.0,0.0,3.7746,3.8558,3.953,4.1192,4.0734,4.0074,3.9735,3.9697,3.9697,3.9697,3.9697,3.9697,3.9697,3.9697,3.9697,3.9697,3.9697,3.9697,3.9697,3.9584,3.932,3.8881,3.8191,3.7626,3.7174,3.6669,0.0,3.6367,3.5228,3.468,3.4593,3.3056,3.2064,3.1512,3.0984,3.0444,2.9942,2.9584,2.9495,2.9456,2.9248,2.8304,2.727,0.0,0.0,0.0,1.2224,1.2305,1.2445,1.2915,1.3382,1.4194,1.5516,1.6859,1.7876,1.8332,1.8741,1.8793,1.8417,2.0062,2.2731,2.6599,2.8831,3.0879,3.2872,3.4302,3.5348,3.5989,3.6249,3.6539,3.6803,3.6904,3.6949,3.6928,3.6433,3.6197,3.618,3.5769,3.5761,3.5985,3.5717,3.592,3.6447,3.6942,3.7433,3.7983,3.8939,3.9115,3.8745,3.7616,3.6645,3.5882,3.5766,3.4579,3.3085,3.2664,3.1512,2.993,0.0,0.0,0.0,0.0,0.0,0.0,0.0,0.0,0.0,0.0,0.0,0.0,0.0,0.0,3.518,3.4545,0.0,3.7501,3.9276,3.9711,4.0337,4.1821,4.1448,4.0722,3.9825,3.9936,3.9998,3.9722,3.9697,3.9697,3.9697,3.9697,3.9697,3.9697,3.9697,3.9697,3.9697,3.9697,3.9559,3.9283,3.873,3.8153,3.7588,3.7036,3.6669,3.6367,3.5228,3.468,3.4605,3.3257,3.2164,3.1336,3.0532,3.0043,2.9792,2.9792,2.9792,2.9754,2.9465,2.8809,2.8119,0.0,0.0,0.0,1.2305,1.2305,1.2305,1.2305,1.2762,1.3273,1.3658,1.4635,1.5446,1.5824,1.5845,1.6075,1.6617,1.9336,2.2908,2.7363,2.9656,3.1512,3.2954,3.4421,3.527,3.5385,3.5933,3.6274,3.6395,3.7001,3.7296,3.7274,3.6774,3.6575,3.6535,3.5893,3.565,3.5761,3.5627,3.5717,3.5949,3.6508,3.7091,3.7709,3.8527,3.8873,3.8772,3.7876,3.716,3.66,3.6519,3.6035,3.5371,3.4762,3.4077,3.2935,3.0191,2.9646,0.0,0.0,0.0,0.0,0.0,0.0,0.0,0.0,0.0,3.6263,3.7834,3.8444,3.8658,3.8612,3.8726,3.917,4.0376,4.0667,4.101,4.19,4.1873,4.1245,4.0028,4.0149,4.0174,3.9735,3.9697,3.9697,3.9697,3.9697,3.9697,3.9697,3.9697,3.9697,3.9697,3.9697,3.9697,3.9697,3.9032,3.8467,3.8002,3.7337,3.6832,3.6367,3.5228,3.468,3.465,3.3319,3.2114,3.1009,3.0143,2.9792,2.9792,2.9792,2.9792,2.9729,2.9264,2.8913,2.8662,0.0,0.0,0.0,0.0,0.0,1.2305,1.2305,1.1613,1.131,1.1837,1.1578,1.1537,1.206,1.2096,1.3104,1.562,1.7324,2.0273,2.5062,2.7117,2.9219,3.1613,3.3054,3.4087,3.4712,3.5233,3.5788,3.6395,3.6482,3.6516,3.6496,3.599,3.5718,3.5718,3.5633,3.5854,3.6287,3.5805,3.6143,3.6999,3.6606,3.6524,3.6584,3.5935,3.7035,3.8701,3.7247,3.6676,3.66,3.6519,3.6768,3.6891,3.562,3.5168,3.458,3.1898,0.0,3.0134,2.8383,2.8576,3.0054,3.3364,3.4228,3.5256,0.0,0.0,4.029,4.0557,4.1851,4.2274,4.0114,4.0169,4.0353,3.9918,4.0206,4.0572,4.0698,4.1559,4.172,4.0538,4.0049,3.976,3.9697,3.9697,3.9697,3.9697,3.9697,3.9697,3.9697,3.9697,3.9697,3.9697,3.9697,3.9697,3.9697,3.863,3.8065,3.799,3.6948,3.6468,3.6367,3.5228,3.468,3.4555,3.2491,3.0972,2.9967,2.9842,2.9792,2.9792,2.9792,2.9792,2.9779,2.9716,2.9063,2.8185,0.0,0.0,0.0,0.0,0.0,1.2305,1.2305,1.1465,1.0891,1.1101,1.0404,0.9974,1.0186,1.0754,1.1977,1.4218,1.6558,1.9685,2.3928,2.6715,2.9181,3.1398,3.2855,3.3735,3.4012,3.4235,3.4677,3.5346,3.5784,3.6203,3.6625,3.6395,3.6299,3.6282,3.5825,3.5717,3.592,3.5694,3.5644,3.5674,3.5442,3.5105,3.46,3.3797,3.4113,3.4908,3.4553,3.436,0.0,3.4712,3.4974,3.5024,3.4205,3.3756,3.3202,3.1465,3.0783,0.0,3.0402,3.1149,0.0,0.0,3.6678,3.8631,4.1883,4.259,4.3025,4.462,4.5365,4.5097,4.2855,4.2995,4.2805,0.0,4.0576,4.0626,4.0899,4.084,4.0664,4.0538,4.0036,3.9697,3.9697,3.9697,3.9697,3.9697,3.9697,3.9697,3.9697,3.9697,3.9697,3.9697,3.9697,3.9697,3.9697,3.8906,3.8341,3.8002,3.7211,3.6508,3.5855,3.5077,3.4186,3.3194,3.1938,3.0972,3.0244,2.993,2.9792,2.9792,2.9792,2.9792,2.9754,2.9415,2.8787,2.8109,0.0,0.0,0.0,0.0,0.0,1.1959,1.2261,1.1205,1.0378,1.0378,0.9253,0.8466,0.8466,0.9362,1.0705,1.2559,1.5287,1.8458,2.2097,2.5301,2.7933,2.9878,3.173,3.2868,3.3244,3.3462,3.3906,3.4603,3.4955,3.5284,3.5649,3.5826,3.5833,3.5616,3.5025,3.4665,3.4475,3.4435,3.4029,3.3376,3.3271,3.2748,3.1951,3.0905,3.0611,3.0858,3.1994,3.2368,3.2435,3.2769,3.3198,3.3445,3.2564,3.2233,3.1936,3.0722,3.0382,3.0631,3.1757,0.0,0.0,3.6325,3.8539,4.0902,4.3756,4.4152,4.4657,4.7243,4.738,4.6535,4.4809,4.4822,4.4279,4.191,4.1229,4.1053,4.125,4.0777,4.0413,4.0501,4.0162,3.986,3.971,3.9697,3.9697,3.9697,3.9697,3.9697,3.9697,3.9697,3.9697,3.9697,3.9697,3.9622,3.9471,3.8919,3.8341,3.7764,3.7073,3.632,3.547,3.4663,3.3432,3.1951,3.1411,3.0884,3.0357,2.9955,2.9792,2.9792,2.9792,2.9792,2.9741,2.9315,2.8812,2.8335,0.0,0.0,0.0,0.0,0.0,1.1162,1.215,1.0608,0.9334,0.9334,0.7629,0.6377,0.6377,0.7288,0.867,1.0607,1.2888,1.5622,1.8931,2.1726,2.412,2.6001,2.8911,3.1086,3.2317,3.3102,3.3862,3.4606,3.396,3.3338,3.2746,3.3395,3.3363,3.273,3.2698,3.2294,3.1623,3.1488,3.1006,3.0285,2.9914,2.9336,2.856,2.6693,2.6514,2.758,3.016,3.1382,3.1744,3.1243,3.218,3.3225,3.1135,3.1267,0.0,3.0304,2.9817,3.0189,0.0,0.0,3.4459,3.8035,3.9658,4.1302,4.4841,4.4941,4.4926,4.7244,4.6958,4.605,4.5233,4.4669,4.3877,4.242,4.2175,4.1932,4.1363,4.1769,4.1747,4.0639,4.0501,4.0275,0.0,3.9697,3.9697,3.9697,3.9697,3.9697,3.9697,3.9697,3.9697,3.9697,3.9697,3.9433,3.8957,3.8329,3.7751,3.7199,3.6072,3.5533,3.5445,3.3872,3.2503,3.1386,3.0871,3.0331,2.9817,2.9804,2.9792,2.9792,2.9792,2.9792,2.9792,2.9779,2.9402,2.8863,0.0,0.0,0.0,0.0,0.0,0.0,1.1242,1.0158,0.9296,0.9296,0.7557,0.0,0.0,0.0,0.0,0.0,1.1877,1.4289,1.6915,1.9724,2.1985,2.3493,2.5847,2.7282,2.7714,2.8903,2.9875,3.0557,3.0368,3.038,3.0595,2.9888,2.9411,2.9176,2.8242,2.8041,2.8311,2.7004,2.664,2.6868,2.5879,2.4983,2.4199,2.4119,2.389,2.3945,0.0,2.8027,2.9314,2.9155,2.9467,2.9876,2.9534,2.9436,2.9437,2.9277,2.9754,3.0593,0.0,0.0,3.5328,3.7625,3.9422,4.1355,4.3934,4.3899,4.3912,4.6059,4.5101,4.382,4.3429,4.2935,4.2338,4.1739,4.1605,4.1543,4.1313,4.1492,4.1204,4.0099,4.0287,0.0,0.0,0.0,0.0,3.9697,3.9697,3.9697,3.9697,3.9697,3.9697,3.9697,3.9697,3.9433,3.8932,3.8304,3.7726,3.7161,3.5705,3.4756,3.4412,3.3093,3.2102,3.1361,3.0834,3.0306,2.9792,2.9792,2.9792,2.9792,2.9792,2.9792,2.9792,2.9792,2.9666,2.9503,0.0,0.0,0.0,0.0,0.0,0.0,0.0,0.0,0.0,0.0,0.0,0.0,0.0,0.0,0.0,0.0,0.0,1.2756,1.4576,1.7384,1.9457,2.0533,2.2624,2.3833,2.4047,2.5236,2.6125,2.6629,2.6032,2.591,2.6175,2.5511,2.4862,2.4242,2.3742,2.3468,2.328,2.2028,2.1625,2.1829,2.1281,2.0664,2.0216,2.0986,2.1413,0.0,2.3435,2.5402,2.7237,2.7462,2.777,2.8134,2.8298,2.836,2.8498,2.9222,2.9986,3.095,0.0,3.3806,3.5247,3.6894,3.8404,3.9952,4.1696,4.1603,4.1708,4.3607,4.2625,4.141,4.131,4.1172,4.0929,4.0496,4.0626,4.0827,4.0962,4.0824,4.0563,4.0049,4.0124,4.0086,0.0,0.0,0.0,3.9697,3.9697,3.9697,3.9697,3.9697,3.9697,3.9697,3.9496,3.9132,3.8567,3.8002,3.7236,3.6295,3.5027,3.4135,3.3571,3.2428,3.1725,3.1348,3.0633,3.0118,2.9792,2.9792,2.9792,2.9792,2.9792,2.9792,2.9792,2.9792,2.9792,2.9792,0.0,0.0,0.0,0.0,0.0,0.0,0.0,0.0,0.0,0.0,0.0,0.0,0.0,0.0,0.0,0.0,0.0,0.0,1.2004,1.4608,1.6394,1.7026,1.9243,2.0741,2.1295,2.2136,2.2708,2.2975,2.1199,2.0166,1.989,2.0447,1.9785,1.8192,1.9191,1.8649,1.6935,1.6648,1.6141,1.5559,1.6259,1.6566,1.6707,1.7433,1.9056,2.1064,2.1963,2.3694,2.5693,2.6375,2.7384,2.823,2.7748,2.8306,2.9377,3.0348,3.0686,3.1288,3.3702,3.4103,3.4206,3.5849,3.6624,3.7276,3.827,3.8173,3.8295,3.9871,3.9434,3.8785,0.0,0.0,3.9512,3.8994,3.9383,3.9961,4.0488,4.0136,3.9986,0.0,0.0,0.0,0.0,0.0,0.0,3.9697,0.0,3.9697,3.9697,3.9697,3.9685,3.9647,3.9145,3.858,3.7977,3.7387,3.6295,3.4668,3.4161,3.3596,3.3036,3.1901,3.1373,3.1286,3.0244,2.9792,2.9792,2.9792,2.9792,2.9792,2.9792,2.9792,2.9792,2.9792,2.9792,2.9792,0.0,0.0,0.0,0.0,0.0,0.0,0.0,0.0,0.0,0.0,0.0,0.0,0.0,0.0,0.0,0.0,0.0,0.0,0.9959,1.1378,1.2563,1.347,1.5098,1.6469,1.7535,1.8006,1.8346,1.867,1.7303,1.6596,1.6486,1.5631,1.4982,1.4501,1.3779,1.3586,1.367,1.2173,1.2086,1.294,1.308,1.3532,1.4285,1.5933,1.7596,1.9302,2.1075,2.319,2.5451,0.0,0.0,0.0,0.0,3.2209,3.3196,3.3457,3.3267,3.3144,3.3767,3.3874,3.3913,3.434,3.4483,3.4499,3.4432,3.3925,3.367,3.4272,3.3827,3.3729,0.0,0.0,0.0,3.8667,4.0023,0.0,4.1062,4.1354,0.0,4.0036,0.0,4.0149,3.9735,3.9697,0.0,0.0,3.9697,3.9697,3.9697,3.9697,3.9509,3.9094,3.8994,3.8391,3.74,3.6445,3.5495,3.4668,3.4161,3.3382,3.2416,3.17,3.1173,3.0771,3.0093,2.9792,2.9792,2.9792,2.9792,2.9792,2.9792,2.9792,2.9792,2.9792,2.9792,2.9792,0.0,0.0,0.0,0.0,0.0,0.0,0.0,0.0,0.0,0.0,0.0,0.0,0.0,0.0,0.0,0.0,0.0,0.0,0.0,1.0057,1.1113,1.1734,1.2962,1.404,1.4864,1.5153,1.5372,1.5562,1.3994,1.3246,1.3198,1.1938,1.102,1.0501,1.0288,1.0186,1.0119,0.8962,0.8977,0.0,0.0,1.1588,1.242,1.4717,1.6572,1.8149,2.024,2.3668,0.0,0.0,0.0,3.3306,3.3556,3.4293,3.5165,3.5883,0.0,3.3966,3.4647,3.3991,3.2916,3.2225,3.1986,3.1681,3.0666,3.0335,3.0257,3.042,3.0151,0.0,3.1901,3.3419,0.0,0.0,0.0,0.0,4.1188,4.1191,4.0915,0.0,4.0262,0.0,3.9722,3.9697,3.9697,0.0,3.9697,3.9697,3.9697,3.9471,3.9195,3.8932,3.8391,3.7713,3.6883,3.573,3.4981,3.4668,3.3922,3.3068,3.219,3.1637,3.111,3.0583,3.003,2.9792,2.9792,2.9792,2.9792,2.9792,2.9792,2.9792,2.9792,2.9792,2.9792,2.9754,0.0,0.0,0.0,0.0,0.0,0.0,0.0,0.0,0.0,0.0,0.6467,0.6542,0.0,0.0,0.0,0.0,0.0,0.0,0.0,0.0,1.0762,1.1002,1.2061,1.2829,1.322,1.3345,1.3326,1.3194,1.1288,1.0308,1.0091,0.9104,0.8013,0.6918,0.8145,0.8013,0.6864,0.692,0.6999,0.7339,0.9592,1.075,1.1391,0.0,1.5986,1.7575,1.9852,0.0,0.0,0.0,3.3345,3.4514,3.5142,3.5831,3.6598,3.7839,3.632,3.4527,3.5747,3.4091,3.1616,3.0242,2.9677,2.9031,2.7386,2.7363,2.7619,2.7489,0.0,2.8019,2.9221,3.1264,3.3405,3.5319,0.0,3.9358,4.1037,4.045,4.0162,4.1062,4.0325,3.9697,3.9697,3.9697,3.9697,3.9697,3.9697,3.9697,3.9697,3.917,3.8856,3.8705,3.7626,3.6895,3.6417,3.5278,3.468,3.4713,3.3608,3.2767,3.219,3.1637,3.111,3.0583,3.003,2.9792,2.9792,2.9792,2.9792,2.9792,2.9792,2.9792,2.9792,2.9792,2.9792,2.9704,0.0,0.0,0.0,0.0,0.0,0.0,0.0,0.0,0.0,0.0,0.6647,0.6661,0.0,0.0,0.0,0.0,0.0,0.0,0.0,0.0,0.0,1.0084,1.1261,1.2409,1.352,1.2646,1.1843,1.1112,0.9822,0.8667,0.7705,0.7489,0.6779,0.5758,0.6912,0.6779,0.5758,0.6672,0.7625,0.8682,1.0319,1.1677,1.297,1.4676,0.0,0.0,0.0,0.0,0.0,0.0,3.39,3.7715,3.8396,3.9417,4.0265,3.9512,3.8042,3.6456,3.5783,3.3221,3.0642,3.0374,2.892,2.7258,2.599,2.5551,0.0,0.0,2.4705,2.5871,2.7426,2.955,3.2196,3.5678,0.0,0.0,0.0,0.0,4.0438,0.0,0.0,0.0,0.0,3.9697,0.0,0.0,3.9697,3.9697,3.9697,3.917,3.8492,3.75,3.6883,3.6505,3.6405,3.5278,3.468,3.4713,3.3608,3.2767,3.219,3.1637,3.111,3.0583,3.003,0.0,2.9792,2.9792,2.9792,2.9792,2.9792,2.9792,2.9792,2.9792,2.9792,2.9704,0.0,0.0,0.0,0.0,0.0,0.0,0.0,0.7773,0.8016,0.7788,0.7261,0.6902,0.6827,0.6885,0.6929,0.0,0.0,0.0,0.0,0.0,0.0,0.0,0.0,0.0,1.3826,1.2886,1.2146,1.162,0.0,0.8853,0.8094,0.6889,0.6,0.5403,0.5983,0.5894,0.5492,0.6605,0.7889,0.9216,1.0499,1.2012,1.362,0.0,0.0,0.0,0.0,0.0,0.0,0.0,3.0953,3.4265,3.6983,3.8462,3.9165,3.896,3.744,3.5871,3.561,3.3041,3.0265,2.9697,2.7885,2.5925,2.4819,0.0,0.0,0.0,2.3551,2.4325,2.5722,0.0,0.0,3.3698,0.0,0.0,0.0,0.0,0.0,0.0,0.0,0.0,0.0,3.9697,3.9697,3.9697,3.9433,3.927,3.927,3.8454,3.7662,3.6832,3.6543,3.6405,3.6405,3.5278,3.468,3.4713,3.3608,3.2767,3.2202,3.1938,3.1373,3.0608,3.0331,3.0055,2.9792,2.9792,2.9792,2.9792,2.9792,2.9792,2.9792,2.9792,2.9792,2.9666,0.0,0.0,0.0,0.0,0.0,0.0,0.7888,0.8069,0.8251,0.8347,0.7661,0.7102,0.7034,0.7122,0.7146,0.0,0.0,0.0,0.0,0.0,0.0,0.0,0.0,0.0,0.0,0.0,0.0,1.2315,1.0685,0.0,0.0,0.0,0.0,0.0,0.535,0.529,0.509,0.6248,0.7882,0.0,0.0,1.2303,0.0,0.0,0.0,0.0,0.0,0.0,0.0,0.0,2.6864,2.8947,3.2846,3.5346,3.6975,3.7346,3.6236,3.4954,3.5162,3.2742,2.998,2.9161,2.7036,2.4951,2.4142,2.3516,0.0,0.0,2.3091,2.3464,2.4585,0.0,2.9198,0.0,3.4105,0.0,0.0,0.0,0.0,0.0,0.0,0.0,0.0,3.9584,0.0,3.9521,3.8894,3.8554,3.8554,3.7663,3.6923,3.643,3.6405,3.6355,3.6194,3.5215,3.4618,3.4537,3.3545,3.283,3.239,3.2152,3.1574,3.0771,3.0532,3.0193,2.9792,2.9792,2.9792,2.9792,2.9792,2.9792,2.9792,2.9792,2.9792,2.9628,0.0,0.0,0.0,0.0,0.0,0.0,0.6939,0.772,0.8103,0.7362,0.7341,0.7392,0.7333,0.7343,0.735,0.0,0.0,0.0,0.0,0.0,0.0,0.0,0.0,0.0,0.0,0.0,0.0,1.1436,1.1222,0.0,0.0,0.0,0.0,0.0,0.0,0.4908,0.3838,0.5043,0.0,0.0,0.0,0.0,0.0,0.0,0.0,0.0,0.0,0.0,0.0,0.0,0.0,2.4598,2.6045,3.0785,3.5731,3.5245,0.0,0.0,3.4341,3.1815,2.9477,2.9385,2.6894,2.4447,2.4355,0.0,0.0,2.3091,2.3091,2.3464,2.4585,0.0,0.0,0.0,0.0,3.4688,0.0,0.0,0.0,0.0,0.0,0.0,0.0,3.9245,3.8994,3.8994,3.7952,3.7337,3.7337,3.7249,3.6923,3.643,3.6405,3.6119,3.5583,3.4981,3.4474,3.3972,3.337,3.3056,3.2968,3.1938,3.1411,3.126,3.0294,2.9842,0.0,2.9792,2.9792,2.9792,2.9792,2.9792,2.9792,2.9792,2.9792,2.9628,0.0,0.0,0.0,0.0,0.0,0.0,0.7933,0.8185,0.8373,0.8302,0.7779,0.7438,0.7617,0.7634,0.76,0.7516,0.8055,0.0,0.0,0.0,0.0,0.0,0.0,0.0,0.0,0.0,1.3318,1.2546,1.1101,0.0,0.0,0.0,0.0,0.0,0.0,0.5413,0.5,0.6207,0.0,0.0,0.0,0.0,0.0,0.0,0.0,0.0,0.0,0.0,0.0,0.0,0.0,0.0,2.2761,2.5776,0.0,0.0,3.2184,3.2634,3.2825,3.1196,2.9407,2.9407,2.6865,2.4414,2.4414,0.0,2.3091,2.3091,2.3091,2.3266,2.3671,0.0,0.0,0.0,0.0,0.0,0.0,0.0,0.0,0.0,0.0,0.0,0.0,0.0,3.8642,3.7914,3.8076,3.8066,3.7764,3.7086,3.6631,3.6417,3.6044,3.5768,3.5495,3.4663,3.411,3.3884,3.2993,3.2742,3.3074,3.1901,3.1386,3.1348,3.0608,3.0093,0.0,2.9792,2.9792,2.9792,2.9792,2.9792,2.9792,2.9792,2.9792,2.9628,0.0,0.0,0.0,0.0,0.0,0.7879,0.8128,0.8064,0.8158,0.8538,0.7949,0.7533,0.7784,0.7851,0.7838,0.774,0.8695,0.0,0.0,0.0,0.0,0.0,0.0,0.0,0.0,0.0,1.3731,1.3555,1.1464,1.0228,0.0,0.0,0.6335,0.5881,0.0,0.0,0.0,0.0,0.0,0.0,0.0,0.0,0.0,0.0,0.0,0.0,0.0,0.0,0.0,0.0,0.0,0.0,0.0,0.0,0.0,0.0,2.9308,3.0044,3.093,2.9952,2.8646,2.8646,2.6495,2.4385,0.0,0.0,2.3091,2.3091,2.3091,2.3091,2.3091,2.4978,0.0,0.0,0.0,3.2114,3.4186,0.0,0.0,0.0,0.0,3.7739,0.0,3.8429,3.8026,3.7059,3.7694,3.8141,3.8088,3.7023,3.6534,3.6883,3.6004,3.542,3.5257,3.4374,3.3822,3.3646,3.2855,3.2679,3.3074,3.1901,3.1386,3.1348,3.067,3.0156,0.0,2.9792,2.9792,2.9792,2.9792,2.9792,2.9792,2.9792,2.9679,2.9402,0.0,0.0,0.0,0.0,0.0,0.6929,0.6929,0.7048,0.7193,0.7395,0.7502,0.7651,0.7794,0.7897,0.7985,0.7985,0.9098,0.0,0.0,0.0,0.0,0.0,0.0,0.0,0.0,0.0,1.4912,1.3872,1.2522,1.1214,0.9944,0.8623,0.7257,0.6004,0.0,0.0,0.0,0.0,0.0,0.0,0.0,0.0,0.0,0.0,0.0,0.0,0.0,0.0,0.0,0.0,0.0,0.0,0.0,2.035,2.1994,0.0,2.7273,2.8237,2.8689,2.788,2.6942,2.6942,2.5645,2.4307,0.0,0.0,2.3091,2.3091,2.3091,2.3091,2.3091,2.4978,0.0,0.0,0.0,0.0,3.3671,0.0,0.0,0.0,0.0,3.6644,3.7149,3.7199,3.6973,3.6455,3.6417,0.0,3.8017,3.7023,3.693,3.8062,3.6394,3.5245,3.4693,3.4173,3.3621,3.3124,3.3124,3.3111,3.3074,3.1901,3.1386,3.1336,3.0269,2.9804,0.0,2.9792,2.9792,2.9792,2.9792,2.9792,2.9792,2.9792,2.9428,2.8813,0.0,0.0,0.0,0.0,0.0,0.0,0.7031,0.7068,0.7189,0.7495,0.757,0.7692,0.7891,0.7961,0.7988,0.7988,0.896,0.0,0.0,0.0,0.0,0.0,0.0,0.0,0.0,1.5591,1.5543,1.5194,1.3884,1.2571,1.1268,0.9998,0.8643,0.7368,0.7368,0.7346,0.0,0.0,0.0,0.0,0.0,0.0,0.0,0.0,0.0,0.0,0.0,0.0,0.0,0.0,0.0,0.0,0.0,0.0,0.0,2.3607,2.5228,2.6596,2.7508,2.7129,2.6494,2.6494,2.5224,2.3955,2.3818,0.0,2.3091,2.3091,2.3091,2.3091,2.3091,2.4978,0.0,0.0,0.0,0.0,0.0,0.0,0.0,0.0,0.0,3.7412,0.0,0.0,3.7008,3.6455,3.7103,3.8075,3.9271,3.7873,3.7364,3.8107,3.6056,3.4856,3.468,3.3796,3.3257,3.3111,3.2679,3.2491,3.2453,3.1361,3.0859,3.0821,3.0105,2.9792,2.9792,2.9792,2.9792,2.9792,2.9792,2.9792,2.9792,2.9792,2.9428,2.8813,0.0,0.0,0.0,0.0,0.0,0.0,0.7095,0.7095,0.7206,0.756,0.76,0.7712,0.7958,0.7988,0.7988,0.7988,0.8585,0.0,0.0,0.0,0.0,0.0,0.0,0.0,1.5558,1.6202,1.6292,1.5784,1.4972,1.3903,1.2619,1.0823,0.9558,0.8726,0.8233,0.7988,0.0,0.0,0.0,0.0,0.0,0.0,1.648,0.0,0.0,0.0,0.0,0.0,0.0,0.0,0.0,0.0,0.0,0.0,0.0,0.0,2.3827,2.4836,0.0,2.5667,2.5361,2.5361,2.4586,0.0,0.0,0.0,2.3844,2.4307,2.4392,2.4392,2.4392,2.588,0.0,0.0,0.0,0.0,0.0,0.0,0.0,0.0,0.0,0.0,0.0,3.6747,3.6782,3.643,3.707,3.7984,3.9139,3.758,3.7153,3.8376,3.5782,3.4412,3.4412,3.352,3.3124,3.3111,3.2491,3.2215,3.2177,3.1474,3.111,3.1124,3.0955,3.0671,0.0,3.0317,3.0101,2.9792,2.9792,2.9792,2.9767,2.9553,2.9101,2.8499,0.0,0.0,0.0,0.0,0.0,0.0,0.0,0.7095,0.7206,0.756,0.76,0.7712,0.7958,0.7988,0.7988,0.7988,0.7988,0.0,0.0,0.0,0.0,0.0,0.0,0.0,1.5913,1.7178,1.7225,1.592,1.5853,1.5218,1.3968,1.1453,1.0194,0.9948,0.8676,0.8088,0.8187,1.0681,1.1799,1.2139,1.4663,1.6473,0.0,0.0,0.0,0.0,0.0,0.0,0.0,0.0,0.0,0.0,0.0,0.0,0.0,0.0,0.0,0.0,0.0,2.383,2.374,2.374,2.374,2.3935,2.4636,0.0,0.0,0.0,0.0,0.0,0.0,0.0,0.0,0.0,0.0,0.0,0.0,0.0,0.0,0.0,3.5257,0.0,3.5508,3.6006,3.6355,3.6355,3.6317,3.6815,3.8034,3.6462,3.6534,3.8822,3.5761,3.4097,3.4148,3.3553,3.322,3.3134,3.2554,3.221,3.2176,3.2045,3.2024,0.0,3.2373,3.1997,3.118,3.1143,3.0595,2.9792,2.9792,2.9767,2.9666,2.9126,2.8561,2.7971,0.0,0.0,0.0,0.0,0.0,0.0,0.0,0.0,0.0,0.0,0.76,0.7712,0.7958,0.7988,0.7988,0.0,0.0,0.0,0.0,0.0,0.0,0.0,0.0,0.0,1.7264,1.8449,1.8495,1.7271,1.725,1.6565,1.5259,1.3711,1.194,0.9998,0.9657,0.897,0.8088,0.9752,1.1023,1.2042,1.3686,1.569,0.0,0.0,0.0,0.0,1.8764,1.881,0.0,0.0,0.0,0.0,0.0,0.0,0.0,0.0,2.3714,2.4435,2.4549,0.0,2.3247,2.3247,2.3247,2.3505,0.0,0.0,0.0,0.0,0.0,0.0,0.0,0.0,0.0,0.0,0.0,0.0,0.0,0.0,0.0,3.527,3.6207,3.6471,3.5571,3.5621,3.5683,3.5683,3.5353,3.5968,3.801,3.6462,3.6498,3.8763,3.6779,3.5899,3.6331,3.5305,3.438,3.3612,3.2957,3.2462,3.2059,3.2016,3.2163,3.2404,3.1809,3.1389,3.1143,3.0419,2.9998,2.9792,2.9792,2.9528,2.9076,2.8938,2.831,2.7457,0.0,0.0,0.0,0.0,0.0,0.0,0.0,0.0,0.0,0.0,0.76,0.7712,0.7958,0.7988,0.7988,0.0,0.0,0.0,0.0,0.0,0.0,0.0,0.0,1.7963,1.8503,1.9724,1.9716,1.8549,1.9085,1.8426,1.6605,1.5326,1.3369,1.0828,0.9608,0.8676,0.8088,0.941,1.073,1.2042,1.3343,0.0,0.0,0.0,0.0,0.0,1.9085,1.9405,0.0,1.9679,2.0674,2.212,0.0,0.0,0.0,0.0,2.4339,2.4914,2.542,2.5136,2.4638,2.4638,2.4638,2.4967,2.6066,0.0,0.0,0.0,0.0,0.0,0.0,0.0,0.0,0.0,3.0285,0.0,0.0,0.0,0.0,3.547,3.6022,3.6471,0.0,3.6424,3.627,3.6315,3.6207,3.6479,3.725,3.6329,3.6699,3.8687,3.6987,3.6252,3.6669,3.5772,3.5032,3.447,3.3517,3.2925,3.2654,3.285,3.3054,3.3206,3.2713,3.2249,3.1779,3.0833,3.0012,2.9415,2.9691,2.9277,2.8512,2.8512,2.8009,2.7243,0.0,0.0,0.0,0.0,0.0,0.0,0.0,0.0,0.0,0.0,0.0,0.0,0.0,0.0,0.0,0.0,0.0,0.0,0.0,0.0,0.0,0.0,1.787,1.8549,1.9761,2.098,2.098,1.9761,2.08,2.0169,1.7956,1.6598,1.4649,1.2091,0.9653,0.8482,0.8382,0.9706,1.0925,1.2042,1.3343,0.0,0.0,0.0,0.0,0.0,0.0,0.0,0.0,2.0169,2.1266,2.3081,2.3023,0.0,0.0,0.0,0.0,0.0,2.6431,2.6883,2.6935,2.6595,2.6524,2.676,2.7844,0.0,0.0,0.0,0.0,0.0,0.0,3.0139,0.0,0.0,0.0,0.0,3.3781,3.4798,3.5532,3.6004,3.6144,0.0,3.7952,3.7573,3.7254,3.7249,3.7489,3.7275,3.6396,3.6265,3.6922,3.8433,3.6975,3.6213,3.6389,3.5791,3.5422,3.5242,3.4053,3.3512,3.3484,3.3829,3.4095,3.4211,3.4061,0.0,3.2749,3.1633,3.0435,2.9265,2.9541,2.9026,2.8097,2.8009,2.7632,2.7128,0.0,0.0,0.0,0.0,0.0,0.0,0.0,0.0,0.0,0.0,0.0,0.0,0.0,0.0,0.0,0.0,0.0,0.0,0.0,0.0,0.0,1.7544,1.868,1.9807,2.098,2.2217,2.2217,2.1025,2.1203,2.0576,1.9177,1.7987,1.6015,1.3536,1.1994,1.0681,0.9752,1.1072,1.1707,1.2042,1.3343,0.0,0.0,0.0,0.0,0.0,0.0,0.0,0.0,2.1436,2.1943,2.3033,2.2682,0.0,0.0,0.0,0.0,0.0,2.7562,2.8569,2.8843,2.6976,2.6524,2.676,2.7844,0.0,0.0,0.0,0.0,0.0,0.0,3.1646,3.2341,0.0,0.0,3.61,0.0,0.0,3.838,3.8433,0.0,3.8913,3.8084,3.7976,3.7716,3.7181,3.6726,3.6543,3.6717,3.6707,3.699,3.7575,3.7312,3.7169,3.7207,3.6616,3.5883,3.5025,3.426,3.3917,3.3917,3.3953,3.4461,3.5213,0.0,3.391,3.3671,3.1924,3.1053,3.0725,2.9516,2.8662,2.8047,2.7582,2.709,2.6612,0.0,0.0,0.0,0.0,0.0,0.0,0.0,0.0,0.0,0.0,0.0,0.0,0.0,0.0,0.0,0.0,0.0,0.0,0.0,0.0,1.3327,1.6465,1.8464,2.0079,2.1293,2.2492,2.2818,2.2262,2.2532,2.1563,1.9443,1.6847,1.5019,1.383,1.2479,1.156,1.1072,1.1658,1.2334,1.3006,0.0,0.0,0.0,0.0,0.0,0.0,0.0,0.0,0.0,0.0,2.1361,2.2984,2.2373,0.0,0.0,0.0,0.0,0.0,2.8239,2.913,2.9689,2.9176,2.9022,2.9294,3.0302,0.0,0.0,0.0,0.0,0.0,0.0,0.0,3.4127,3.5426,0.0,3.7299,3.8422,3.8588,3.8671,0.0,0.0,3.9061,3.9364,3.8825,3.8317,3.802,3.7639,3.7226,3.6813,3.6712,3.6882,3.737,3.709,3.6911,3.6911,3.6626,3.6261,3.5795,3.5148,3.4806,3.4806,3.4806,3.5067,3.5424,0.0,3.3705,3.3136,3.1742,3.0529,2.9494,2.905,2.8235,2.7216,2.6964,2.6713,2.6499,0.0,0.0,0.0,0.0,0.0,0.0,0.0,0.0,0.0,0.0,0.0,0.0,0.0,0.0,0.0,0.0,0.0,0.0,0.0,1.0925,1.2603,1.5164,1.7416,1.9464,2.1248,2.2736,2.3387,2.3091,2.3722,2.2464,1.9397,1.5947,1.4364,1.4316,1.3253,1.2624,1.2382,1.2673,1.3253,1.3926,0.0,0.0,0.0,0.0,0.0,0.0,0.0,0.0,0.0,0.0,0.0,0.0,0.0,0.0,0.0,2.4659,2.5912,2.7337,2.8412,2.929,3.0163,3.1129,3.1259,3.1502,3.2593,3.2704,0.0,0.0,0.0,0.0,0.0,3.4669,0.0,3.7604,3.8266,3.8762,3.9318,3.9276,3.936,3.9744,3.925,3.9309,4.043,3.9668,3.8971,3.8743,3.85,3.7911,3.6772,3.6561,3.6626,3.6956,3.6507,3.6252,3.6252,3.6252,3.6252,3.6252,3.5744,3.5504,3.5504,3.5504,3.5504,3.5424,3.4428,3.3602,3.2855,3.1669,3.0275,2.8831,2.8887,2.7996,2.6688,2.6688,2.66,2.6499,0.0,0.0,0.0,0.0,0.0,0.0,0.0,0.0,0.0,0.0,0.0,0.0,0.0,0.0,0.0,0.0,0.0,0.0,0.0,1.0096,1.1307,1.392,1.5266,1.7672,2.1203,2.3524,2.4168,2.3091,2.4209,2.2926,1.9451,1.6875,1.5683,1.5683,1.554,1.4854,1.3824,1.4997,1.4902,1.4022,1.5194,0.0,0.0,0.0,0.0,0.0,0.0,0.0,0.0,0.0,0.0,0.0,0.0,0.0,2.348,2.4139,2.5405,2.6784,2.7866,2.9248,3.0595,3.1521,3.1483,3.1596,3.3166,3.3043,0.0,3.3398,0.0,0.0,0.0,3.623,3.8379,3.9118,4.0822,4.2237,4.2837,0.0,4.2088,4.2133,4.1567,4.0956,4.0465,4.033,3.9763,3.851,3.8402,3.7834,3.657,3.6503,3.6222,3.5669,3.5594,3.5579,3.5579,3.5579,3.5579,3.5579,3.5534,3.5504,3.5504,3.5504,3.5504,3.5424,3.4428,3.3959,3.3774,3.196,3.109,3.0823,2.9428,2.8235,2.7218,2.7218,2.6939,2.6499,0.0,0.0,0.0,0.0,0.0,0.0,0.0,0.0,0.0,0.0,0.0,0.8106,0.7995,0.0,0.0,0.0,0.0,0.0,0.0,0.9998,1.0435,1.1404,1.4208,1.6369,1.7803,2.0953,2.277,2.3091,2.277,2.2089,2.0996,1.828,1.699,1.6943,1.6157,1.5534,1.5092,1.5581,1.5534,1.5099,1.5635,1.5784,0.0,0.0,0.0,0.0,0.0,0.0,0.0,0.0,1.9644,2.0861,2.102,2.2352,2.3859,2.3828,2.5317,2.7077,2.7474,2.8985,3.0521,3.1035,3.2048,0.0,0.0,3.5214,3.5112,3.5345,3.5795,0.0,0.0,0.0,3.9245,3.9918,4.0995,4.1871,4.2087,4.1908,4.1796,4.1796,4.1175,4.0666,4.0427,3.9649,3.8945,3.8422,3.7659,3.7,3.6507,3.6088,3.5953,3.6118,3.6118,3.6118,3.6118,3.6118,3.5908,3.5504,3.5504,3.5504,3.5504,3.5504,3.5166,3.4543,3.4177,3.3345,3.2213,3.1499,3.0649,2.9678,2.8773,2.7946,2.7281,2.7281,2.6964,2.6499,0.0,0.0,0.0,0.0,0.0,0.0,0.0,0.0,0.8137,0.0,0.0,0.0,0.0,1.0098,0.0,0.0,0.0,0.0,0.941,0.9361,0.9558,0.9998,1.2871,1.4874,1.5678,1.8617,2.0944,2.2536,2.1702,2.1446,2.1726,1.9345,1.8048,1.7692,1.721,1.6749,1.6386,1.6386,1.6386,1.6339,1.5967,1.5784,0.0,0.0,0.0,0.0,0.0,0.0,0.0,0.0,1.9016,2.0048,2.063,2.2279,2.3925,2.3578,2.5158,2.7087,2.7354,2.8813,3.0429,3.1102,0.0,0.0,3.6134,3.6327,3.6297,3.6686,3.6956,0.0,3.7704,0.0,0.0,0.0,4.0681,4.1422,4.1422,4.1205,4.107,4.107,4.0487,4.0083,4.0083,3.905,3.8302,3.8093,3.709,3.6402,3.6193,3.5744,3.5804,3.6462,3.6282,3.6282,3.6492,3.6282,3.5953,3.5504,3.518,3.5019,3.5019,3.5019,3.4476,3.3518,3.3241,3.2393,3.118,3.0871,3.015,2.9164,2.8787,2.8185,2.7544,2.7544,2.7115,2.6499,0.0,0.0,0.0,0.0,0.0,0.0,0.0,0.0,0.8482,0.9801,1.01,0.0,0.0,0.0,0.0,0.0,0.0,0.0,0.8088,0.7988,0.8577,0.9899,1.1214,1.308,1.5624,1.6994,1.891,2.1293,2.1293,2.1337,2.1293,2.0079,1.8864,1.7785,1.8948,1.8818,1.7738,1.7738,1.7738,1.7598,1.6339,1.5825,1.5825,0.0,0.0,0.0,0.0,0.0,0.0,0.0,1.8803,1.9575,2.0809,2.2244,2.3526,2.3514,2.4909,2.6692,2.7484,2.8828,3.0364,0.0,0.0,0.0,3.6163,3.5968,3.5878,3.7165,3.6911,3.6477,3.6492,3.7524,0.0,3.8377,4.0053,4.1392,4.1392,4.0801,4.0382,4.0382,3.9813,3.9373,3.9373,3.8781,3.8108,3.7449,3.6821,3.6193,3.5549,3.5504,3.5804,3.6462,3.5848,3.5818,3.6477,3.5833,3.5504,3.5504,3.4495,3.4027,3.3993,3.3993,3.3449,3.2522,3.1609,3.118,3.1106,3.0177,2.9792,2.9792,2.9792,2.9101,2.8109,2.8109,2.7406,2.6499,0.0,0.0,0.0,0.0,0.0,0.0,0.0,0.0,0.8482,0.9801,1.0044,0.0,0.0,0.0,0.0,0.0,0.0,0.0,0.9509,0.8531,0.8187,0.8581,1.0725,1.2231,1.2989,1.6911,1.9716,2.1293,2.2164,2.2589,2.2536,2.1346,2.0576,2.0215,1.9716,1.9314,1.8956,1.8956,1.8956,1.8864,1.763,1.7131,1.7016,0.0,0.0,0.0,0.0,0.0,0.0,0.0,0.0,0.0,1.9297,2.1698,2.4,2.3615,2.5575,2.7866,2.7742,2.9237,0.0,3.1406,0.0,0.0,0.0,3.5654,0.0,0.0,3.6866,3.6073,3.6971,3.7449,0.0,3.7704,3.899,3.9993,3.9993,3.9828,3.9709,3.9709,3.911,3.8691,3.8691,3.7704,3.6971,3.6776,3.6163,3.5714,3.5519,3.5504,3.5804,3.6462,3.5848,3.5818,3.6477,3.5833,3.5504,3.5504,3.5213,3.4691,3.3993,3.331,3.25,3.1609,3.1315,3.0833,3.0177,2.9895,2.9792,2.9792,2.9792,2.9101,2.8109,2.8109,2.7406,2.6499,0.0,0.0,0.0,0.0,0.0,0.0,1.0828,1.0092,0.985,1.0632,1.1214,1.2037,0.0,0.0,0.0,0.0,0.0,0.0,0.9312,0.8432,0.7988,0.7988,1.0485,1.2382,1.3451,1.7431,1.9852,2.0576,2.2271,2.3091,2.3091,2.2359,2.1756,2.1293,2.1033,2.0674,2.0215,2.0215,2.0129,1.9875,1.8854,1.8011,1.7337,0.0,0.0,0.0,0.0,0.0,0.0,0.0,0.0,0.0,1.8783,2.1204,2.3525,2.3735,2.568,2.7842,2.8143,2.9505,0.0,3.1917,3.3308,3.4578,3.4848,0.0,0.0,0.0,0.0,3.6133,3.6896,3.7045,0.0,3.7375,3.8317,3.911,3.9343,3.9388,3.9388,3.9388,3.8811,3.8392,3.8392,3.724,3.6492,3.6492,3.5878,3.5504,3.5504,3.5504,3.5804,3.6462,3.5848,3.5818,3.6477,3.5833,3.5504,3.5504,3.51,3.4576,3.3993,3.3031,3.2105,3.118,3.0796,3.0317,2.9792,2.9792,2.9792,2.9767,2.9541,2.89,2.8084,2.7858,2.7253,2.6499,0.0,0.0,1.5518,1.5785,0.0,0.0,1.2091,1.1804,1.175,1.1896,1.2958,1.4268,0.0,0.0,0.0,0.0,0.0,0.0,0.0,0.7988,0.7988,0.7988,1.0485,1.3108,1.5724,1.8211,1.9534,1.967,2.1952,2.3091,2.3091,2.3052,2.2463,2.1515,2.2595,2.2435,2.1425,2.1425,2.1198,2.0741,1.9894,1.8651,1.7326,1.7613,0.0,0.0,0.0,0.0,0.0,0.0,0.0,0.0,1.8688,2.0625,2.2481,2.3645,2.5345,2.7186,2.8666,0.0,0.0,3.3062,3.4114,0.0,3.5452,3.6019,3.6417,3.6477,0.0,3.6417,3.6477,3.6492,3.6671,3.724,3.7928,3.8586,3.9155,3.9254,3.9305,3.9245,3.8631,3.8212,3.8212,3.7105,3.6402,3.6402,3.5848,3.5504,3.5504,3.5504,3.5774,3.6372,3.5818,3.5789,3.6387,3.5804,3.5504,3.5504,3.4576,3.4129,3.4095,3.2996,3.196,3.1007,3.0177,2.9767,2.9716,2.9767,2.9729,2.9591,2.9114,2.8561,2.7971,2.7519,2.7014,2.6499,0.0,0.0,1.5711,1.5771,0.0,0.0,1.2091,1.1068,1.0779,1.175,1.2139,1.3204,1.554,1.4902,0.0,1.2042,0.0,0.0,0.0,0.7988,0.7988,0.7988,1.0485,1.3086,1.5651,1.818,1.9943,2.0935,2.2359,2.3091,2.3091,2.276,2.264,2.2711,2.2664,2.2465,2.2241,2.2241,2.2001,2.1543,2.0346,1.9669,1.9256,1.8395,1.7216,0.0,0.0,0.0,0.0,0.0,0.0,0.0,1.6482,1.8968,2.19,2.2296,2.5028,2.8213,2.9443,3.0879,0.0,0.0,3.4786,3.5456,3.6182,3.6032,3.5863,3.6372,3.6073,3.5878,3.6387,3.6492,3.6537,3.6656,3.7644,3.8257,3.7898,3.8287,3.8422,3.7898,3.7285,3.6896,3.6896,3.6178,3.5714,3.5714,3.5594,3.5504,3.5504,3.5504,3.5564,3.5714,3.5579,3.5579,3.5714,3.5579,3.5504,3.5504,3.5279,3.518,3.51,3.2621,3.0983,3.0113,2.9908,2.9528,2.9113,2.9603,2.9264,2.8499,2.8775,2.8323,2.7494,2.7808,2.7306,2.6562,0.0,0.0,0.0,0.0,0.0,0.0,0.0,0.0,1.2997,1.2877,1.3397,1.4274,1.5635,1.5194,0.0,0.0,0.0,0.0,0.0,0.8333,0.8283,0.8924,1.0828,1.308,1.5624,1.8218,2.0079,2.1293,2.3076,2.3627,2.3091,2.2877,2.2886,2.3081,2.2705,2.251,2.25,2.2295,2.1963,2.1551,2.1097,2.0449,1.965,1.9237,1.8249,1.7001,1.6327,0.0,0.0,0.0,0.0,0.0,0.0,0.0,2.0654,2.133,2.4049,2.7159,2.8456,0.0,0.0,3.3991,0.0,3.5701,3.6446,3.6306,3.6256,3.697,3.628,3.5609,3.5953,3.6013,3.6118,3.6432,3.7045,3.7464,3.7419,3.7704,3.7793,3.7449,3.6866,3.6492,3.6492,3.5893,3.5504,3.5504,3.5504,3.5504,3.5504,3.5504,3.5504,3.5504,3.5504,3.5504,3.5504,3.5504,3.5504,3.5504,3.5504,3.5001,3.4056,3.2571,3.1119,2.9792,2.9792,2.9616,2.9365,2.9666,2.9453,2.8888,2.8637,2.8185,2.7645,2.7406,2.6989,2.6537,0.0,0.0,0.0,0.0,0.0,0.0,0.0,0.0,0.0,1.4052,1.4806,1.5581,1.5784,1.5581,1.5045,0.0,0.0,0.0,0.0,0.0,0.0,0.9608,1.1121,1.2984,1.5334,1.8072,2.0079,2.1293,2.3654,2.4339,2.3387,2.3514,2.3481,2.3367,2.2906,2.2562,2.2373,2.1953,2.1523,2.1112,2.1514,2.0838,1.9634,1.9961,1.9368,1.8192,1.7038,1.6473,1.6104,1.4818,0.0,0.0,0.0,0.0,1.8933,2.032,2.2598,2.5065,0.0,0.0,3.1395,3.3897,3.5108,0.0,3.6661,3.6813,3.7024,3.7835,3.686,3.591,3.591,3.591,3.6027,3.6456,3.6619,3.6763,3.703,3.718,3.721,3.709,3.6626,3.6312,3.6312,3.5833,3.5504,3.5504,3.5504,3.5504,3.5504,3.5504,3.5504,3.5504,3.5504,3.5504,3.5504,3.5504,3.5504,3.5504,3.5311,3.4225,3.2357,3.2357,3.1402,2.9792,2.9792,2.9679,2.9515,2.9716,2.9628,2.9277,2.8436,2.8109,2.7996,2.7115,2.6713,2.665,0.0,0.0,0.0,0.0,0.0,0.0,0.0,0.0,0.0,0.0,1.407,1.4555,1.5683,1.48,1.407,0.0,0.0,0.0,1.1653,0.0,0.0,0.8333,1.0583,1.2598,1.4023,1.7626,2.0079,2.1293,2.3654,2.4702,2.4575,2.5166,2.5116,2.4543,2.3731,2.2859,2.1943,2.1504,2.1064,2.0703,2.0762,2.0625,2.0449,2.0507,1.9837,1.8861,1.8687,1.7976,1.6951,1.5842,1.5668,0.0,0.0,0.0,1.6844,1.8594,2.0579,2.2922,0.0,0.0,3.3082,0.0,3.5489,3.6646,0.0,0.0,3.7847,0.0,3.8076,3.7501,3.7501,3.7501,3.728,3.6677,3.7062,3.7054,3.5902,3.6252,3.6387,3.5833,3.5684,3.5639,3.5639,3.5549,3.5504,3.5504,3.5504,3.5504,3.5504,3.5504,3.5504,3.5504,3.5504,3.5504,3.5504,3.5504,3.5504,3.5504,3.461,3.3206,3.1389,3.1389,3.0809,2.9792,2.9792,2.9239,2.8411,2.939,2.8925,2.7645,2.7971,2.8109,2.8084,2.7946,2.7582,2.7278,0.0,0.0,0.0,0.0,0.0,0.0,0.0,0.0,0.0,0.0,0.0,1.5194,1.573,1.5289,0.0,1.4735,1.3519,1.2368,1.1529,1.0354,0.9458,0.8878,1.0817,1.2501,1.3778,1.7308,1.972,2.0968,2.3608,2.505,2.5393,2.6869,2.6913,2.5712,2.4752,2.3783,2.2757,2.1974,2.1229,2.0586,2.0303,2.0195,2.0195,2.0195,1.9918,1.9446,1.9113,1.8678,1.8069,1.6968,1.6654,1.6674,1.6087,0.0,0.0,0.0,2.0323,0.0,2.5807,2.8575,3.0992,0.0,3.3942,3.5241,3.7316,0.0,3.8121,3.9332,3.9305,3.8832,3.795,3.7793,3.7544,3.6737,3.6863,3.6675,3.5664,3.5744,3.5833,3.5549,3.5504,3.5504,3.5504,3.5504,3.5504,3.5504,3.5504,3.5504,3.5504,3.5504,3.5504,3.5504,3.5504,3.5504,3.5504,3.5504,3.5213,3.4658,3.3671,3.25,3.118,3.0658,3.0177,2.9792,2.9792,2.9515,2.9089,2.9591,2.9365,2.8674,2.8599,2.8561,2.8524,2.8222,2.7758,2.7318,0.0,0.0,0.0,0.0,0.0,0.0,0.0,0.0,0.0,0.0,0.0,0.0,0.0,0.0,0.0,0.0,1.4486,1.324,1.1696,1.0823,1.0139,0.9527,1.1293,1.2587,1.3324,1.6947,1.9262,2.0228,2.3185,2.4896,2.5451,2.7567,2.7972,2.6889,2.6012,2.5055,2.4009,2.3018,2.2178,2.1507,2.0862,2.0602,2.0582,2.0471,2.0394,2.0333,1.9774,1.9578,1.9353,1.8146,1.7639,1.7523,1.7234,1.7647,0.0,0.0,0.0,0.0,0.0,0.0,2.8691,3.0732,3.2396,3.4157,0.0,0.0,3.8181,0.0,3.9673,3.9244,3.8275,3.8261,3.8064,3.7054,3.6904,3.6585,3.5651,3.5504,3.5504,3.5504,3.5504,3.5504,3.5504,3.5504,3.5504,3.5504,3.5504,3.5504,3.5504,3.5504,3.5504,3.5504,3.5504,3.5504,3.5504,3.5504,3.4887,3.3636,3.2925,3.196,3.0833,3.0101,2.9716,2.9578,2.9729,2.9704,2.9578,2.9729,2.9704,2.9528,2.9063,2.8976,2.9076,2.8524,2.8059,2.7682,0.0,0.0,0.0,0.0,0.0,0.0,0.0,0.0,0.0,0.0,0.0,0.0,1.5784,1.5784,1.5712,1.5424,1.5351,1.4609,1.299,1.2842,1.1847,0.9619,1.1942,0.0,1.2037,1.655,1.8916,1.8899,2.2026,2.3816,2.4322,2.6528,2.7726,2.7992,2.7576,2.6729,2.5632,2.4596,2.4133,2.4018,2.295,2.2537,2.2482,2.1992,2.1815,2.1732,2.1255,2.1093,2.0849,1.9401,1.8626,0.0,0.0,1.6481,1.6428,0.0,0.0,0.0,0.0,2.5325,0.0,2.843,0.0,0.0,0.0,0.0,3.8025,3.8874,3.8497,3.8203,3.8805,3.9497,3.948,3.7978,3.7719,3.7205,3.5716,3.5504,3.5504,3.5504,3.5504,3.5504,3.5504,3.5504,3.5504,3.5504,3.5504,3.5504,3.5504,3.5504,3.5504,3.5504,3.5504,3.5504,3.5504,3.5504,3.4558,3.2664,3.2629,3.1659,2.9856,2.983,2.949,2.8963,2.9553,2.9478,2.8976,2.9566,2.9465,2.8938,2.89,2.9264,2.9679,2.9063,2.8838,2.8737,0.0,0.0,0.0,0.0,0.0,0.0,0.0,0.0,0.0,0.0,0.0,0.0,0.0,1.5665,1.5438,1.5189,1.4776,1.4328,1.3734,1.3083,1.2068,1.0594,1.1572,1.2088,1.1891,1.4707,1.6898,1.8431,2.0473,2.2143,2.3393,2.478,2.5747,2.6281,2.7388,2.7291,2.6232,2.5191,2.4384,2.3716,2.3102,2.2833,2.281,2.2596,2.254,2.2561,2.2644,2.2673,0.0,2.1321,0.0,0.0,0.0,0.0,0.0,0.0,0.0,0.0,0.0,0.0,0.0,2.623,2.8291,3.037,3.2676,3.4118,3.5473,3.7232,3.737,3.7427,3.8154,3.8886,3.9194,3.8597,3.8497,3.7975,3.643,3.6196,3.6023,3.5554,3.5504,3.5504,3.5504,3.5504,3.5504,3.5504,3.5504,3.5504,3.5504,3.5504,3.5504,3.5504,3.5504,3.5504,3.5504,3.5504,3.4839,3.3484,3.3484,3.25,3.0683,3.0332,2.9702,2.8888,2.8775,2.8599,2.8448,2.9001,2.9076,2.8925,2.934,2.9616,2.9729,2.9101,2.8662,2.8323,0.0,0.0,0.0,1.5784,0.0,1.5784,1.5784,1.5784,1.5784,1.5784,0.0,0.0,0.0,0.0,1.5384,1.5042,1.4472,1.4088,1.4088,1.3471,1.2671,1.165,1.1877,1.2115,1.2406,1.3835,1.5788,1.82,1.9362,2.0742,2.2331,2.3349,2.4101,2.4681,2.6172,2.6757,2.6542,2.5997,2.5409,2.4703,2.4061,2.3816,2.3804,2.3606,2.3547,2.3571,2.3684,0.0,0.0,0.0,0.0,0.0,0.0,0.0,0.0,0.0,0.0,0.0,2.0592,0.0,0.0,0.0,0.0,2.7799,3.0192,0.0,3.3525,3.5305,3.5675,3.594,3.6696,3.7418,3.8029,3.8451,3.8535,3.8176,3.7142,3.6994,3.6722,3.5943,3.5863,3.5782,3.5537,3.5504,3.5504,3.5504,3.5504,3.5504,3.5504,3.5504,3.5504,3.5504,3.5504,3.5504,3.5504,3.5504,3.4986,3.3993,3.3993,3.3171,3.1656,3.0781,2.9931,2.9067,2.8205,2.7934,2.8134,2.8461,2.8612,2.865,2.9076,2.9227,2.9176,2.88,2.8423,2.8021,1.6308,1.6025,1.5832,1.5825,1.5879,1.5879,1.5879,1.5879,1.5879,1.5879,0.0,0.0,0.0,0.0,0.0,1.5055,1.4479,1.4102,1.4102,1.4088,1.3647,1.2627,1.2827,1.3123,1.3386,1.4152,1.5736,1.82,1.8684,1.9734,2.1211,2.2311,2.304,2.344,2.3985,2.5096,2.6556,2.7013,2.7256,2.7168,2.6063,2.5636,2.5586,2.5084,2.4876,2.4841,2.4454,2.4279,0.0,2.3695,0.0,0.0,0.0,0.0,0.0,0.0,0.0,0.0,0.0,0.0,0.0,0.0,0.0,0.0,2.8071,0.0,3.233,3.31,3.3392,3.3738,3.4478,3.5152,3.6057,3.7479,3.7768,3.7834,3.7792,3.7806,3.7515,3.6707,3.6584,3.6275,3.5554,3.5504,3.5504,3.5504,3.5504,3.5504,3.5504,3.5504,3.5504,3.5504,3.5504,3.5504,3.5504,3.5504,3.5019,3.4027,3.4027,3.3553,3.2579,3.1115,3.0113,2.9425,2.7943,2.7593,2.8059,2.8072,2.8084,2.8084,2.8097,2.8109,2.8109,2.8084,2.8084,2.7996,1.5952,1.5838,1.6109,1.699,1.7178,1.7178,1.7178,1.7178,1.7178,0.0,0.0,0.0,1.7917,1.7004,1.6005,1.506,1.4616,1.4402,1.4402,1.4202,1.3647,1.2627,1.2659,1.2948,1.3386,1.3225,1.4794,1.82,1.7895,1.8812,2.0752,2.1084,2.13,2.1449,2.2289,2.3262,2.4425,2.5278,2.6059,2.6688,2.6386,2.6487,2.6804,2.6653,0.0,0.0,0.0,2.6454,2.6241,0.0,2.4038,2.296,0.0,0.0,0.0,0.0,0.0,0.0,1.8841,0.0,0.0,0.0,0.0,0.0,2.4506,2.6382,2.833,2.9582,3.0455,3.1383,3.2738,3.3134,3.3768,3.5309,3.7323,3.8462,3.7877,3.7798,3.7515,3.6707,3.6149,3.5718,3.5537,3.5504,3.5504,0.0,3.5504,3.5504,3.5504,3.5504,3.5504,3.5504,3.5504,3.5504,3.5504,3.5504,3.5359,3.51,3.51,3.4576,3.3559,3.2291,3.0896,2.9434,2.815,2.7349,2.6977,2.7344,2.7507,2.7544,2.7946,2.8109,2.8059,2.7657,2.7507,2.7431,1.5784,1.6251,1.681,1.7544,1.8141,1.8457,1.8457,1.8457,1.8457,0.0,0.0,0.0,1.9065,1.8233,1.7372,1.6766,1.595,1.5409,1.5275,1.4649,1.3982,1.3275,1.2806,1.3002,1.3855,1.3013,1.4398,1.803,1.7532,1.8652,2.1193,2.0789,2.0828,2.1193,2.1336,2.2188,2.3551,2.412,2.5217,2.6512,2.6738,2.7027,2.7306,2.7544,2.7821,0.0,0.0,0.0,2.746,2.6318,2.5212,0.0,0.0,0.0,0.0,0.0,0.0,0.0,0.0,0.0,0.0,0.0,0.0,0.0,2.2429,2.4166,2.5875,2.6518,2.7568,2.8782,3.0043,3.0528,3.1167,3.2532,3.4657,3.6458,3.727,3.7613,3.7515,3.6707,3.6473,3.6254,3.5941,3.5908,3.5908,3.5908,3.5669,3.5504,3.5504,3.5504,3.5504,3.5504,3.5504,3.5504,3.5504,3.5504,3.5504,3.5504,3.5504,3.518,3.4566,3.2927,3.1443,3.003,2.8392,2.7229,2.6537,2.709,2.719,2.7002,2.7329,2.7419,2.7381,2.709,2.7115,2.7266,0.0,1.681,1.7731,1.787,1.891,1.9716,1.9716,1.9716,1.9716,0.0,1.9782,1.981,1.9716,1.9443,1.9242,1.9151,1.7814,1.6853,1.6548,1.534,1.4521,1.4299,1.3312,1.3324,1.4472,1.3367,1.4422,1.7803,1.7475,1.8903,2.1989,2.1155,2.126,2.214,2.1193,2.1859,2.3661,2.3562,2.4695,2.6625,2.7115,2.7354,0.0,0.0,2.8235,2.8285,2.8222,2.8197,2.8109,2.7494,2.6017,0.0,0.0,0.0,0.0,0.0,2.2161,0.0,0.0,0.0,0.0,0.0,2.0958,0.0,2.1402,2.2967,2.439,2.3954,2.4893,2.6088,2.7044,2.7691,2.84,2.9393,3.0804,3.2896,3.6098,3.7042,3.7227,3.6661,3.7048,3.7146,3.6577,3.6417,3.6417,3.6477,3.5878,3.5504,3.5504,3.5504,3.5504,3.5504,3.5504,3.5504,3.5504,3.5504,3.5504,3.5504,3.5504,3.5459,3.5307,3.3282,3.1807,3.0779,2.8717,2.7356,2.6625,2.7115,2.7027,2.6587,2.6587,2.6587,2.6587,2.6587,2.6901,2.7329,1.5784,1.681,1.801,1.9001,2.0169,2.0935,2.0935,2.0935,2.0935,2.0935,2.1524,2.1686,2.1034,2.0598,2.014,1.95,1.8611,1.8081,1.8008,1.6423,1.5445,1.5379,1.4368,1.4012,1.4472,1.4025,1.5099,1.7803,1.7475,1.8903,2.1989,2.1811,2.2264,2.3147,2.2188,2.285,2.4636,2.3854,2.4894,2.7165,2.7278,2.7544,2.8009,2.8561,2.9063,2.9402,2.8938,2.8725,2.8612,2.762,2.6424,2.5181,0.0,0.0,0.0,2.24,0.0,0.0,0.0,0.0,0.0,0.0,2.0892,0.0,2.0859,2.17,2.2525,2.2428,2.3282,2.4292,2.5164,2.544,2.5803,2.6709,2.8179,3.0538,3.4344,3.4983,3.5431,3.6476,3.6193,3.6075,3.6465,3.6013,3.5923,3.6447,3.5878,3.5504,3.5504,3.5504,3.5504,3.5504,3.5504,3.5504,3.5504,3.5504,3.5504,3.5504,3.5504,3.522,3.4651,3.3688,3.2135,3.0136,2.916,2.812,2.7165,2.7278,2.7253,2.7153,2.7153,2.7153,2.7153,2.7153,2.7228,2.7344,1.5784,1.7304,1.8772,1.9405,2.0989,2.2217,2.2217,2.2217,2.2217,2.2217,2.2548,2.2631,2.2243,2.203,2.1729,2.1337,2.0413,1.9713,1.9332,1.7899,1.6629,1.5752,1.5179,1.4726,1.4302,1.4691,1.5752,1.7532,1.7961,1.973,2.2728,2.1945,2.2429,2.3812,2.2783,2.3192,2.4601,2.434,2.5254,2.6952,2.7469,0.0,2.8574,2.9139,2.9541,2.9716,2.9139,2.8574,2.8021,2.7469,2.6751,0.0,2.5546,2.5191,2.4927,0.0,2.4154,2.379,0.0,0.0,0.0,2.1916,0.0,0.0,0.0,2.1504,2.1814,2.108,2.1552,2.2317,2.3242,2.3414,2.3718,2.4649,2.5476,2.698,2.9733,3.1823,3.3485,3.449,3.4978,3.536,3.5732,3.5882,3.5998,3.5998,3.5684,3.5504,3.5504,3.5504,3.5504,3.5504,3.5504,3.5504,3.5504,3.5504,3.5504,3.5504,3.516,3.4848,3.4474,3.3455,3.2304,3.1047,2.99,2.9013,2.8383,2.8189,2.8109,2.8072,2.7795,2.7695,2.7695,2.7695,2.7871,2.8147,1.5784,1.7801,1.9497,1.9497,2.1498,2.3091,2.3091,2.3091,2.3091,2.3091,2.3187,2.3181,2.3018,2.3059,2.3054,2.2891,2.1907,2.1071,2.0545,1.9261,1.7861,1.6419,1.5944,1.5274,1.433,1.5025,1.6034,1.7302,1.823,2.0246,2.3172,2.2129,2.2598,2.4317,2.3511,2.3688,2.4652,2.4908,0.0,2.6889,0.0,2.831,2.8687,2.9365,2.9566,2.9402,2.8938,2.8231,2.7516,2.7339,2.7014,2.6637,2.6524,2.6562,0.0,0.0,0.0,0.0,0.0,0.0,0.0,0.0,0.0,2.265,0.0,0.0,0.0,2.0542,0.0,0.0,0.0,0.0,0.0,2.2906,0.0,0.0,0.0,2.8371,0.0,3.1743,3.3191,3.4178,3.4384,3.5512,3.6011,3.5549,3.5504,3.5504,3.5504,3.5504,3.5504,3.5504,3.5504,3.5504,3.5504,3.5504,3.5504,3.5489,3.4936,3.4638,3.4474,3.338,3.2638,3.2112,3.0648,2.9855,2.9627,2.912,2.8963,2.9001,2.8486,2.826,2.826,2.826,2.8512,2.8913,1.5784,1.7801,1.9497,1.9497,2.1498,2.3091,2.3091,2.3091,2.3091,2.3091,2.3564,2.3563,2.2663,2.2979,2.2941,2.2105,2.1547,2.1358,2.169,1.9987,1.8847,1.8638,1.6756,1.5487,1.501,1.4518,1.5269,1.7302,1.7423,1.9101,2.2178,2.2907,2.3847,2.4886,2.4779,2.5309,2.618,0.0,2.6141,0.0,2.8059,2.7846,0.0,2.8624,2.8725,2.8285,2.8222,2.826,2.826,0.0,2.7278,2.714,0.0,2.6839,2.7128,2.6637,0.0,0.0,0.0,0.0,0.0,0.0,2.3659,0.0,0.0,0.0,2.1941,2.1776,0.0,0.0,0.0,0.0,0.0,0.0,0.0,0.0,2.4153,2.5161,2.6617,2.887,3.0145,3.1227,3.2171,3.4036,3.5263,3.5484,3.5504,3.5504,3.5504,3.5504,3.5504,3.5504,3.5504,3.5504,3.5504,3.5504,3.5504,3.5504,3.5429,3.507,3.4503,3.4354,3.3495,3.2141,3.1128,3.0548,3.0233,2.9299,2.9239,2.9641,2.9026,2.88,2.88,2.88,2.8838,2.8963,1.6897,1.8311,1.9716,2.044,2.1943,2.3091,2.3091,2.3091,2.3343,2.4006,2.4302,2.442,2.4302,2.4019,2.3513,0.0,0.0,2.1689,0.0,2.1156,2.0407,1.9716,1.8581,1.7277,1.582,1.655,1.705,1.7302,1.859,2.0148,2.2027,2.2714,2.3565,2.4553,2.5107,0.0,2.6452,0.0,2.654,0.0,0.0,2.7293,0.0,2.8386,2.8642,2.8394,2.8916,2.8635,2.8046,0.0,2.7647,0.0,0.0,0.0,0.0,2.6562,0.0,0.0,0.0,0.0,0.0,0.0,0.0,0.0,2.4424,0.0,2.3404,0.0,0.0,0.0,0.0,0.0,0.0,0.0,2.1243,0.0,0.0,0.0,2.4269,2.7093,0.0,0.0,3.1235,3.1938,3.2695,3.3739,3.4327,3.461,3.461,3.518,3.5504,3.5504,3.5504,3.5504,3.5504,3.5504,3.5504,3.5504,3.51,3.4756,3.4503,3.4114,3.3792,3.3441,3.1946,3.1425,3.1573,3.0072,2.9578,2.9767,2.9528,2.9428,2.9428,2.9428,2.9428,2.9465,1.8549,1.9405,2.026,2.1159,2.2306,2.3222,2.3507,2.3551,2.3877,2.4702,2.5208,2.5363,2.5004,2.476,0.0,0.0,2.2749,2.2281,0.0,0.0,2.1512,2.0185,1.9884,1.8783,1.6729,1.8036,1.8414,1.7787,1.9353,2.0653,2.1659,2.2491,2.3309,2.4073,2.5305,2.6185,2.6713,0.0,2.7128,2.7733,2.7733,2.7571,2.7398,2.8244,2.8711,2.8933,2.9414,2.9085,2.846,2.8876,2.8289,0.0,2.7908,2.7742,2.7369,0.0,0.0,0.0,2.6871,0.0,0.0,0.0,0.0,0.0,0.0,0.0,0.0,0.0,0.0,0.0,0.0,0.0,0.0,0.0,0.0,2.1317,0.0,2.1934,0.0,0.0,0.0,0.0,0.0,2.9612,3.0299,3.2032,3.3073,3.3636,3.3636,3.4543,3.51,3.51,3.5359,3.5504,3.5504,3.5504,3.5504,3.5489,3.4996,3.4756,3.4741,3.3981,3.39,3.4248,3.2339,3.1768,3.2105,3.0457,2.9792,2.9792,2.9792,2.9792,2.9792,2.9792,2.9792,2.9792,2.0711,2.1203,0.0,2.1293,2.2306,2.3464,2.4585,2.4745,2.4745,2.4787,2.6226,2.6253,0.0,0.0,0.0,0.0,0.0,2.3213,2.272,0.0,2.1863,2.001,0.0,1.939,1.7678,1.79,1.8316,1.8957,1.9036,1.9599,2.0683,2.259,2.3492,2.3613,2.558,2.6776,2.7256,2.7256,2.7883,2.8838,2.8838,2.9027,2.9188,0.0,2.8584,2.9687,2.9205,0.0,0.0,2.9286,2.9325,0.0,0.0,0.0,0.0,0.0,0.0,0.0,0.0,0.0,0.0,2.6553,0.0,0.0,0.0,0.0,2.4363,0.0,0.0,0.0,0.0,0.0,0.0,0.0,0.0,0.0,0.0,0.0,0.0,0.0,0.0,0.0,0.0,2.7193,2.8702,0.0,3.2024,3.2629,3.2629,3.3533,3.4061,3.4061,3.4986,3.5504,3.5504,3.5504,3.5504,3.5504,3.5489,3.5474,3.5427,3.4451,3.4018,3.3916,3.2042,3.1228,3.118,3.0216,2.9792,2.9792,2.9792,2.9792,2.9792,2.9792,2.9792,2.9792,2.1159,2.1933,2.2492,2.2492,2.2818,2.3464,2.4628,2.4787,2.5326,2.6808,2.7186,0.0,0.0,2.6063,2.5597,0.0,0.0,2.3724,2.4188,2.4204,0.0,0.0,0.0,2.1619,0.0,1.9718,1.9736,1.8997,1.9717,2.0245,2.0644,2.1924,2.285,2.3551,2.4921,2.6181,0.0,0.0,0.0,0.0,0.0,2.9561,3.0814,0.0,2.9222,3.0173,3.0536,3.0494,0.0,3.0584,3.0031,2.9329,2.973,2.9582,2.9233,2.9058,2.9002,2.8939,0.0,0.0,2.812,2.7465,0.0,0.0,0.0,0.0,0.0,0.0,0.0,0.0,0.0,0.0,0.0,0.0,0.0,0.0,0.0,0.0,0.0,0.0,0.0,0.0,0.0,0.0,0.0,0.0,2.9742,0.0,3.1619,3.2558,3.3345,3.3993,3.4312,3.4839,3.5504,3.5504,3.5504,3.5504,3.5504,3.5504,3.5472,3.4461,3.3993,3.391,3.2033,3.1217,3.1143,3.0177,2.9792,2.9792,2.9792,2.9792,2.9792,2.9792,2.9792,2.9792,2.1845,2.2589,2.3091,0.0,0.0,2.3464,2.4628,2.5126,2.5911,0.0,2.7722,0.0,2.7557,0.0,2.6311,0.0,2.5408,2.5061,2.5555,2.5547,0.0,2.3515,2.3718,2.2736,0.0,0.0,0.0,1.9783,2.0021,2.0387,2.084,2.1637,2.2553,2.3551,2.4564,2.5959,2.757,2.757,2.8201,0.0,0.0,3.0371,0.0,0.0,2.9955,3.0709,0.0,3.1161,3.0807,3.1322,3.0777,2.9981,3.0554,3.0329,2.9889,2.9889,2.9889,2.9827,2.9535,2.9473,0.0,2.8363,2.8149,0.0,2.7374,0.0,2.6768,0.0,0.0,0.0,0.0,0.0,0.0,0.0,0.0,0.0,0.0,2.1511,0.0,0.0,0.0,0.0,0.0,0.0,0.0,0.0,0.0,0.0,0.0,3.1888,3.289,3.3484,3.4177,3.4839,3.5504,3.5504,3.5504,3.5504,3.5504,3.5311,3.4953,3.3959,3.331,3.2925,3.1365,3.0696,3.0658,3.0037,2.9792,2.9792,2.9792,2.9792,2.9792,2.9792,2.9792,2.9792,2.2862,2.3091,2.3135,2.3178,2.3178,2.3594,2.4787,0.0,2.6607,0.0,2.7957,2.8262,2.6747,2.6992,2.7291,2.7281,2.7281,2.711,2.6643,2.6576,0.0,0.0,2.3533,2.2772,2.1455,0.0,0.0,0.0,2.007,2.0111,2.1221,2.1724,2.2499,2.3551,2.448,0.0,2.8072,2.8133,2.9402,3.1319,3.0973,3.1425,3.2086,3.082,3.0735,3.1275,3.1442,3.1511,3.1511,3.1511,3.1511,3.1511,3.1511,3.1511,3.1511,3.1511,3.1511,3.1322,3.0584,3.0359,3.0133,2.9286,2.9066,0.0,0.0,0.0,2.7824,0.0,0.0,0.0,0.0,0.0,0.0,0.0,0.0,0.0,0.0,0.0,1.9579,0.0,0.0,0.0,0.0,0.0,0.0,0.0,0.0,0.0,0.0,3.1476,3.25,3.2522,3.4308,3.5326,3.5359,3.5392,3.5439,3.5439,3.5472,3.4986,3.3993,3.3031,3.2105,3.1143,3.0216,2.9792,2.9792,2.9792,2.9792,2.9792,2.9792,2.9792,2.9792,2.9792,2.9792,2.9792,2.3047,2.3091,2.3387,2.4211,2.4372,2.5041,2.6982,2.7522,0.0,0.0,2.8573,2.815,2.773,2.7101,2.6876,2.7291,2.7281,0.0,0.0,0.0,0.0,2.4754,2.4581,2.3698,2.188,2.1569,2.1322,2.119,0.0,2.1248,2.119,2.1342,2.2153,2.3514,2.3781,2.5241,2.7591,2.8673,3.0737,3.3198,3.2184,3.2637,3.368,0.0,3.159,3.2124,3.1676,3.1511,3.1511,3.1511,3.1511,3.1511,3.1511,3.1511,3.1511,3.1511,3.1511,3.1438,3.1248,3.119,3.0999,3.0178,2.9981,2.9763,0.0,0.0,0.0,0.0,0.0,0.0,0.0,0.0,0.0,0.0,0.0,0.0,0.0,0.0,0.0,1.9223,0.0,0.0,0.0,0.0,0.0,0.0,0.0,0.0,0.0,0.0,3.0846,3.1536,3.2033,3.2656,3.3325,3.4041,3.4394,3.4394,3.5133,3.4986,3.3993,3.3031,3.2105,3.1143,3.0216,2.9792,2.9792,2.9792,2.9792,2.9792,2.9792,2.9792,2.9792,2.9792,2.9792,2.9792,2.3091,2.3507,2.4211,2.5336,0.0,2.6479,2.7279,2.74,0.0,2.8897,2.8686,0.0,2.8134,2.7331,2.7077,2.7595,2.7645,0.0,2.7984,0.0,0.0,2.6077,2.5352,2.4247,2.2675,2.1878,0.0,2.1523,0.0,2.1234,2.1514,2.174,2.2461,2.3514,0.0,2.5326,2.7425,2.9283,3.1418,3.3523,3.2623,3.2815,0.0,3.2034,3.1735,3.2004,3.1645,3.1511,3.1511,3.1511,3.1511,3.1511,3.1511,3.1511,3.1511,3.1511,3.1511,3.1511,3.1511,3.1511,3.138,3.094,3.0807,3.0657,3.0075,3.0007,3.0043,0.0,2.9879,2.9654,0.0,0.0,0.0,0.0,0.0,0.0,0.0,0.0,0.0,0.0,1.8417,0.0,0.0,0.0,0.0,0.0,0.0,0.0,0.0,0.0,3.0658,3.118,3.1997,3.2664,3.3206,3.4177,3.4658,3.4658,3.5246,3.4773,3.338,3.2855,3.1852,3.0558,3.0037,2.9792,2.9792,2.9792,2.9792,2.9792,2.9792,2.9792,2.9792,2.9792,2.9792,2.9792,2.3299,2.4125,0.0,0.0,0.0,0.0,2.7017,2.6935,2.7261,2.8187,0.0,2.8712,2.826,2.7657,2.7507,2.8059,2.8109,2.8285,2.865,2.8335,2.7821,2.7241,2.5801,2.4528,2.3514,2.1963,2.1388,0.0,2.0834,2.0904,2.1995,2.254,2.3062,0.0,0.0,0.0,0.0,2.9991,3.1771,3.31,3.2687,3.2512,3.2437,3.175,3.1511,3.1511,3.1511,3.1511,3.1511,3.1511,3.1511,3.1511,3.1511,3.1511,3.1511,3.1511,3.1511,3.1511,3.1511,3.1511,3.1511,3.1511,3.1511,3.1441,3.1221,3.1637,3.2025,3.1714,3.1536,3.1206,3.0619,0.0,0.0,0.0,0.0,0.0,0.0,0.0,0.0,0.0,0.0,0.0,0.0,0.0,0.0,0.0,0.0,0.0,0.0,0.0,3.0906,3.118,3.2784,3.3705,3.3808,3.4806,3.5311,3.5326,3.5439,3.4476,3.2593,3.2593,3.1586,2.9792,2.9792,2.9792,2.9792,2.9792,2.9792,2.9792,2.9792,2.9792,2.9792,2.9792,2.9792,2.9792,2.4339,2.466,0.0,0.0,0.0,2.6243,2.8831,2.9209,2.9287,2.9495,2.9163,2.885,2.8762,2.7883,2.7507,2.8059,2.8109,0.0,0.0,0.0,0.0,2.6688,2.5607,2.4528,2.3514,2.2775,2.2219,2.1885,2.2007,2.2181,2.2393,2.292,2.3506,0.0,0.0,0.0,2.9607,3.0904,0.0,3.3373,3.2766,3.2512,3.2437,3.175,3.1511,3.1511,3.1511,3.1511,3.1511,3.1511,3.1511,3.1511,3.1511,3.1511,3.1511,3.1511,3.1511,3.1511,3.1511,3.1511,3.1511,3.1511,3.1511,3.1482,3.1426,3.1784,3.2073,3.2011,3.2179,3.2078,3.1232,0.0,0.0,0.0,0.0,0.0,0.0,0.0,0.0,0.0,0.0,1.994,0.0,0.0,0.0,0.0,0.0,2.5529,2.798,0.0,2.9448,0.0,3.1536,3.2069,0.0,0.0,3.4245,3.4279,3.51,3.4476,3.2593,3.2593,3.1586,2.9792,2.9792,2.9792,2.9792,2.9792,2.9792,2.9792,2.9792,2.9792,2.9792,2.9792,2.9792,2.9792,2.4702,0.0,0.0,0.0,0.0,0.0,2.8688,2.8937,2.9145,2.9702,2.9553,2.9264,2.8925,2.8448,2.8134,2.8109,2.836,2.8185,2.7344,2.7795,2.7607,2.6549,2.6025,2.5288,2.4301,2.349,2.2942,2.2646,2.232,2.2305,2.2552,2.3885,2.4384,2.428,0.0,2.7902,0.0,0.0,0.0,3.2931,3.2243,3.1974,3.1944,3.163,3.1511,3.1511,3.1511,3.1511,3.1511,3.1511,3.1511,3.1511,3.1511,3.1511,3.1511,3.1511,3.1511,3.1511,3.1511,3.1511,3.1511,3.1511,3.1511,3.1511,3.1511,3.193,3.2423,3.2746,3.2838,3.2667,3.2051,3.1156,0.0,0.0,0.0,0.0,0.0,0.0,2.375,0.0,0.0,0.0,0.0,0.0,0.0,0.0,0.0,2.4981,2.6794,0.0,2.8848,0.0,0.0,0.0,3.1852,0.0,3.3993,3.4027,3.5019,3.4476,3.2593,3.2593,3.1586,2.9792,2.9792,2.9792,2.9792,2.9792,2.9792,2.9792,2.9792,2.9792,2.9792,2.9792,2.9792,2.9792,0.0,2.6191,0.0,0.0,2.6994,2.755,2.8044,2.8096,2.8518,2.9663,2.9792,2.9616,2.9126,2.8963,2.8712,2.8323,2.8561,2.8335,2.7344,2.7695,2.7494,2.6537,2.6499,2.6025,2.5004,2.4228,2.3716,2.3493,2.2889,2.2775,2.3188,2.5076,2.5652,0.0,0.0,0.0,0.0,0.0,3.1157,3.2228,3.1705,3.1511,3.1511,3.1511,3.1511,3.1511,3.1511,3.1511,3.1511,3.1511,3.1511,3.1511,3.1511,3.1511,3.1511,3.1511,3.1511,3.1511,3.1511,3.1511,3.1511,3.1511,3.1511,3.1511,3.1511,3.2004,3.2662,3.3185,3.3196,3.3073,3.2919,3.196,0.0,0.0,0.0,0.0,0.0,0.0,0.0,0.0,0.0,0.0,2.1802,0.0,0.0,0.0,2.3257,2.4552,2.5889,2.71,2.8573,3.0355,3.0908,3.1389,3.1779,0.0,3.3993,3.4027,3.5019,3.4591,3.289,3.2713,3.1683,3.0113,2.9908,2.9792,2.9792,2.9792,2.9792,2.9792,2.9792,2.9792,2.9792,2.9792,2.9792,2.9792,0.0,0.0,0.0,0.0,0.0,2.5775,2.7792,2.8096,2.8518,2.9663,2.9792,2.9779,2.9716,2.9239,2.8863,2.8813,2.8448,2.7921,2.7318,2.7331,2.7128,2.6524,2.6499,2.6025,2.5004,2.4898,2.4615,2.4104,2.4509,2.4935,2.5359,2.6556,2.747,0.0,0.0,0.0,3.0379,3.0824,3.1242,3.1585,3.1525,3.1511,3.1511,3.1511,3.1511,3.1511,3.1511,3.1511,3.1511,3.1511,3.1511,3.1511,3.1511,3.1511,3.1511,3.1511,3.1511,3.1511,3.1511,3.1511,3.1511,3.1511,3.1511,3.1511,3.1511,3.2004,3.2527,3.2587,3.2857,3.3255,3.3776,3.2429,3.1217,0.0,0.0,0.0,0.0,0.0,2.6994,2.506,0.0,0.0,2.329,2.2459,0.0,0.0,2.2994,2.4159,2.6322,2.6573,2.8409,3.22,3.1609,3.2033,3.3705,3.391,3.3993,3.4027,3.5019,3.492,3.3842,3.2996,3.2033,3.1007,3.0177,2.9792,2.9792,2.9792,2.9792,2.9792,2.9792,2.9792,2.9792,2.9792,2.9792,2.9792,2.4787,2.5336,2.5766,2.5504,2.5672,2.613,2.6994,2.7683,2.8518,2.9663,2.9792,2.9792,2.9792,2.9578,2.9302,2.8925,2.8687,2.8222,2.7379,2.7281,2.7065,2.6512,2.6499,2.6314,2.5908,2.53,2.5002,0.0,2.5027,2.5211,2.563,2.6753,2.7915,2.9069,2.9665,3.026,3.0785,3.1171,3.1397,3.1511,3.1511,3.1511,3.1511,3.1511,3.1511,3.1511,3.1511,3.1511,3.1511,3.1511,3.1511,3.1511,3.1511,3.1511,3.1511,3.1511,3.1511,3.1511,3.1511,3.1511,3.1511,3.1511,3.1511,3.1511,3.1511,3.1705,3.2004,3.2437,3.3266,3.4006,3.4257,3.3516,3.289,3.289,0.0,0.0,0.0,0.0,0.0,2.6962,0.0,2.4999,0.0,2.4668,2.4454,0.0,2.3796,2.398,2.5965,2.6356,2.8104,3.1669,0.0,3.1815,3.3136,3.3705,3.3993,3.4027,3.5019,3.4986,3.3993,3.3602,3.2629,3.1143,3.0216,2.9792,2.9792,2.9792,2.9792,2.9792,2.9792,2.9792,2.9792,2.9792,2.9792,2.9792,2.4296,2.521,2.5766,2.4957,2.5755,2.6595,2.6924,2.7602,2.8518,2.9663,2.9792,2.9792,2.9792,2.9792,2.9566,2.8938,2.8888,2.8461,2.7356,2.7281,2.7065,2.6512,2.6499,0.0,2.6499,2.5804,2.5587,2.5877,2.5728,0.0,2.6116,2.7541,2.8917,3.0228,3.0623,3.0982,3.1224,3.1412,3.1511,3.1511,3.1511,3.1511,3.1511,3.1511,3.1511,3.1511,3.1511,3.1511,3.1511,3.1511,3.1511,3.1511,3.1511,3.1511,3.1511,3.1511,3.1511,3.1511,3.1511,3.1511,3.1511,3.1511,3.1511,3.1511,3.1511,3.1511,3.169,3.2348,3.341,3.4279,3.4474,3.4237,3.3993,3.3993,0.0,0.0,0.0,3.0126,0.0,2.8811,2.7329,2.6501,2.6908,2.6257,0.0,0.0,0.0,2.4788,2.6399,2.7059,2.8685,0.0,0.0,0.0,3.2996,3.3671,3.3993,3.4027,3.5019,3.5133,3.4428,3.4129,3.2996,3.118,3.0482,3.0075,2.9792,2.9792,2.9792,2.9792,2.9792,2.9792,2.9792,2.9792,2.9792,2.9792,2.3135,2.4049,2.483,2.4787,2.5755,2.6842,2.7936,2.8096,2.8518,2.9663,2.9792,2.9792,2.9792,2.9792,2.9566,2.8938,2.8888,2.8461,2.7356,2.7281,2.7065,0.0,0.0,2.6499,2.6499,2.6499,2.6499,2.6499,0.0,0.0,2.7318,2.9405,3.0957,3.2076,3.2062,3.1869,3.1497,3.1511,3.1511,3.1511,3.1511,3.1511,3.1511,3.1511,3.1511,3.1511,3.1511,3.1511,3.1511,3.1511,3.1511,3.1511,3.1511,3.1511,3.1511,3.1511,3.1511,3.1511,3.1511,3.1511,3.1511,3.1511,3.1511,3.1511,3.1511,3.1511,3.169,3.2348,3.3036,3.3709,3.4384,3.4237,3.3993,3.3993,0.0,0.0,0.0,3.1779,0.0,3.0441,2.8662,2.7643,2.8025,2.6717,0.0,0.0,0.0,0.0,0.0,0.0,0.0,3.2522,3.2558,0.0,3.3993,3.3993,3.3993,3.4027,3.5019,3.5504,3.5439,3.4461,3.2996,3.1217,3.118,3.0658,2.9792,2.9792,2.9792,2.9792,2.9792,2.9792,2.9792,2.9792,2.9792,2.9792,2.3256,2.3387,2.3887,2.466,2.5755,2.6842,2.7924,2.8767,2.9404,2.9753,2.9792,2.9792,2.9792,2.9792,2.9716,2.9528,2.9151,2.8612,0.0,2.7494,2.7065,2.6512,2.6499,2.6499,2.6499,2.6499,2.6499,2.6499,0.0,2.7573,2.8148,3.0002,3.0892,3.0904,3.1452,3.1605,3.1511,3.1511,3.1511,3.1511,3.1511,3.1511,3.1511,3.1511,3.1511,3.1511,3.1511,3.1511,3.1511,3.1511,3.1511,3.1511,3.1511,3.1511,3.1511,3.1511,3.1511,3.1511,3.1511,3.1511,3.1511,3.1511,3.1511,3.1511,3.1511,3.1511,3.157,3.1765,3.2721,3.3559,3.3769,3.4488,3.5019,3.5019,3.4211,0.0,3.3553,0.0,3.1359,3.186,3.0803,3.0083,3.0188,2.9769,0.0,0.0,0.0,0.0,0.0,0.0,0.0,0.0,3.3206,0.0,3.5019,3.5019,3.5019,3.5019,3.5359,3.5504,3.5472,3.4461,3.3671,3.3031,3.1742,3.1044,3.0696,3.0075,2.9792,2.9792,2.9792,2.9792,2.9792,2.9792,2.9792,2.9792,2.4425,2.4392,2.4723,2.5817,2.6994,2.7959,2.8648,2.9326,2.9792,2.9792,2.9792,2.9792,2.9792,2.9792,2.9792,2.9792,2.9465,2.9013,2.8448,2.7896,2.7344,2.6826,2.66,2.6499,2.6499,2.6499,2.6499,2.6499,2.6839,2.7726,2.9094,3.0178,3.0833,3.1128,3.1649,3.1735,3.1511,3.1511,3.1511,3.1511,3.1511,3.1511,3.1511,3.1511,3.1511,3.1511,3.1511,3.1511,3.1511,3.1511,3.1511,3.1511,3.1511,3.1511,3.1511,3.1511,3.1511,3.1511,3.1511,3.1511,3.1511,3.1511,3.1511,3.1511,3.1511,3.1511,3.157,3.1824,3.2751,3.3574,3.3814,3.4771,3.5504,3.5504,3.4986,3.4576,3.4576,0.0,3.2464,0.0,0.0,3.1742,3.1742,3.1742,3.1462,0.0,0.0,0.0,0.0,0.0,3.178,3.3087,3.4075,3.4872,3.5504,3.5504,3.5504,3.5504,3.5504,3.5504,3.5472,3.4839,3.4361,3.391,3.2393,3.1536,3.1143,3.0177,2.9792,2.9792,2.9792,2.9792,2.9792,2.9792,2.9792,2.9792,2.6307,2.6524,2.6842,2.7924,2.8976,2.9702,2.9792,2.9792,2.9792,2.9792,2.9792,2.9792,2.9792,2.9792,2.9779,2.9729,2.9729,2.949,2.8863,2.8348,2.7808,2.7291,2.6763,2.6499,2.6499,2.6499,2.6499,2.6499,2.6555,2.7691,2.9831,2.9961,3.0851,3.2348,3.2422,3.2079,3.1511,3.1511,3.1511,3.1511,3.1511,3.1511,3.1511,3.1511,3.1511,3.1511,3.1511,3.1511,3.1511,3.1555,3.154,3.1511,3.1555,3.157,3.157,3.157,3.157,3.157,3.157,3.16,3.163,3.1585,3.16,3.163,3.1585,3.1615,3.1809,3.2452,3.3095,3.3754,3.4399,3.504,3.5504,3.5504,3.5504,3.5504,3.5504,3.461,3.4027,3.4095,3.3276,3.2713,3.2713,3.2713,3.2664,0.0,0.0,0.0,0.0,0.0,3.4061,3.3993,3.4986,3.5504,3.5504,3.5504,3.5504,3.5504,3.5504,3.5504,3.5504,3.5504,3.4986,3.4061,3.3101,3.2213,3.1328,3.0317,2.9895,2.9895,2.983,2.9792,2.9792,2.9792,2.9792,2.9792,2.6595,2.6524,2.6842,2.7924,2.8307,2.8806,2.9663,2.9792,2.9792,2.9792,2.9792,2.9792,2.9792,2.9792,2.9616,2.9126,2.9101,2.89,2.8335,2.7783,2.7231,2.6713,2.6562,2.6499,2.6499,2.6499,2.6499,2.6499,2.7129,2.7716,2.8284,2.9603,3.0424,3.0847,3.1442,3.1645,3.1511,3.1511,3.1511,3.1511,3.1511,3.1511,3.1511,3.1511,3.1511,3.1511,3.1511,3.1511,3.1585,3.2079,3.1914,3.1585,3.2093,3.2243,3.2243,3.2243,3.2243,3.2243,3.2243,3.2647,3.2901,3.2378,3.2662,3.2901,3.2392,3.2677,3.308,3.323,3.3784,3.4324,3.4474,3.504,3.5504,3.5504,3.5504,3.5504,3.5504,3.461,3.4279,0.0,3.4259,3.3671,3.3671,3.3671,3.338,0.0,0.0,3.3671,3.3671,3.4624,3.4791,3.4027,3.4986,3.5504,3.5504,3.5504,3.5504,3.5504,3.5504,3.5504,3.5504,3.5504,3.5359,3.51,3.4109,3.3518,3.3206,3.1536,3.0871,3.0796,3.0075,2.9792,2.9792,2.9792,2.9792,2.9792,2.7999,2.7585,2.7574,2.8688,2.8897,2.9106,2.9702,2.9792,2.9792,2.9792,2.9792,2.9792,2.9792,2.9792,2.9666,2.9352,2.9051,2.8662,2.8147,2.7595,2.719,2.6889,2.6625,2.6499,2.6499,2.6499,2.6499,2.6499,2.6939,2.7351,2.7736,2.8684,2.9535,3.0329,3.0777,3.1161,3.1511,3.1511,3.1511,3.1511,3.1511,3.1511,3.1511,3.1511,3.1511,3.1511,3.1511,3.1511,3.1555,3.1914,3.1795,3.1615,3.2273,3.2512,3.2632,3.323,3.32,3.2961,3.2961,3.3215,3.341,3.3051,3.323,3.3395,3.3036,3.3245,3.3589,3.3888,3.4264,3.4593,3.4891,3.4881,3.4953,3.5439,3.4896,3.4661,3.5394,3.4753,3.4519,3.5394,3.5019,3.4691,3.4691,3.4691,3.4476,3.3973,3.4409,0.0,3.4691,3.5213,3.5246,3.4691,3.5213,3.5504,3.5504,3.5504,3.5504,3.5504,3.5504,3.5504,3.5504,3.5504,3.5504,3.5424,3.4428,3.3993,3.3842,3.196,3.1217,3.1106,3.0177,2.9792,2.9792,2.9792,2.9792,2.9792,2.9636,2.9028,2.8648,2.9624,2.9792,2.9792,2.9792,2.9792,2.9792,2.9792,2.9792,2.9792,2.9792,2.9792,2.9754,2.9666,2.9139,2.8574,2.8134,2.7595,2.7278,2.719,2.6738,2.6499,2.6499,2.6499,2.6499,2.6499,2.6499,2.685,2.7517,2.7637,2.8492,2.9919,3.0178,3.0673,3.1322,3.1438,3.1511,3.1511,3.1511,3.1511,3.1511,3.1511,3.1511,3.1511,3.1511,3.1511,3.1525,3.1615,3.1645,3.1765,3.2452,3.2736,3.3036,3.4174,3.4189,3.3784,3.3679,3.3649,3.3649,3.3649,3.3724,3.3769,3.3664,3.3724,3.3963,3.4548,3.4668,3.4801,3.54,3.4806,3.4509,3.5359,3.4277,3.3809,3.5302,0.0,3.4758,3.5429,3.5504,3.5504,3.5504,3.5504,3.5504,3.5504,3.5504,3.5504,3.5504,3.5504,3.5504,3.5504,3.5504,3.5504,3.5504,3.5504,3.5504,3.5504,3.5504,3.5504,3.5504,3.5504,3.5504,3.5457,3.461,3.4245,3.4095,3.2357,3.1536,3.1328,3.0381,2.9934,2.9792,2.9792,2.9792,2.9792,2.9841,2.9663,2.9573,2.9753,2.9792,2.9792,2.9792,2.9792,2.9792,2.9792,2.9792,2.9792,2.9792,2.9792,2.9591,2.9063,2.8549,2.8197,2.8109,2.7595,2.7115,2.6637,2.6537,2.6499,2.6499,2.6499,2.6499,2.6499,2.6499,2.6555,2.6679,2.7384,2.7835,2.8182,2.9628,3.0359,3.0524,3.1219,3.1511,3.1511,3.1511,3.1511,3.1511,3.1511,3.1511,3.1511,3.1511,3.1511,3.1585,3.2138,3.2333,3.2452,3.314,3.3724,3.4234,3.4444,3.4816,3.507,3.4518,3.4354,3.4354,3.4354,3.4756,3.504,3.4488,3.4771,3.522,3.5325,3.534,3.5385,3.5489,3.5359,3.5326,3.5472,3.4825,3.4584,3.5382,0.0,3.4758,3.5429,3.5504,3.5504,3.5504,3.5504,3.5504,3.5504,3.5504,3.5504,3.5504,3.5504,3.5504,3.5504,3.5504,3.5504,3.5504,3.5504,3.5504,3.5504,3.5504,3.5504,3.5504,3.5504,3.5504,3.5504,3.5311,3.5279,3.518,3.4041,3.3101,3.2285,3.1365,3.0482,2.9792,2.9792,2.9792,2.9792,2.9842,2.9792,2.9792,2.9792,2.9792,2.9792,2.9792,2.9792,2.9792,2.9792,2.9792,2.9792,2.9792,2.9792,2.9691,2.9415,2.9164,2.8762,2.8147,2.7341,2.6763,2.6499,2.6499,2.6499,2.6499,2.6499,2.6714,2.7162,2.6714,2.6714,2.7162,2.7061,2.7297,2.7769,2.9034,2.9858,3.0359,3.1161,3.1511,3.1511,3.1511,3.1511,3.1511,3.1511,3.1511,3.1511,3.1511,3.1511,3.16,3.2258,3.2512,3.2691,3.3709,3.4264,3.4578,3.4921,3.525,3.5429,3.5115,3.5026,3.5026,3.5026,3.5265,3.5429,3.51,3.528,3.5504,3.5504,3.5504,3.5504,3.5504,3.5067,3.4872,3.5392,3.4209,3.3755,3.529,3.4607,3.4337,3.5385,3.5504,3.5504,3.5504,3.5504,3.5504,3.5504,3.5504,3.5504,3.5504,3.5504,3.5504,3.5504,3.5504,3.5504,3.5504,3.5504,3.5504,3.5504,3.5504,3.5504,3.5504,3.5504,3.5504,3.5504,3.5504,3.5504,3.5424,3.4428,3.3449,3.25,3.1573,3.062,2.9792,2.9792,2.9792,2.9792,2.998,2.988,2.9792,2.9792,2.9792,2.9792,2.9792,2.9792,2.9792,2.9792,2.9792,2.9792,2.9792,2.9792,2.9792,2.9792,2.9666,2.9227,2.8348,2.7381,2.6763,2.6499,2.6499,2.6499,2.6499,2.6499,2.6816,2.7417,2.6816,2.6816,2.7417,2.6782,2.685,2.7484,2.8524,2.938,3.0042,3.1058,3.1511,3.1511,3.1511,3.1511,3.1511,3.1511,3.1511,3.1511,3.1511,3.1511,3.16,3.2258,3.2617,3.2946,3.4144,3.4623,3.4816,3.5355,3.5504,3.5504,3.5504,3.5504,3.5504,3.5504,3.5504,3.5504,3.5504,3.5504,3.5504,3.5504,3.5504,3.5504,3.5504,3.4872,3.4566,3.5183,0.0,3.3089,3.4989,3.4247,3.3993,3.534,3.5504,3.5504,3.5504,3.5504,3.5504,3.5504,3.5504,3.5504,3.5504,3.5504,3.5504,3.5504,3.5504,3.5504,3.5504,3.5504,3.5504,3.5504,3.5504,3.5504,3.5504,3.5504,3.5504,3.5504,3.5504,3.5504,3.5439,3.4658,3.3788,3.282,3.1888,3.0945,3.0113,2.9895,2.9792,2.9792,3.0557,3.0143,2.9792,2.9792,2.9792,2.9792,2.9792,2.9792,2.9792,2.9792,2.9792,2.9792,2.9792,2.9792,2.9792,2.9792,2.9302,2.8913,2.8838,2.831,2.7532,2.6537,2.6499,2.6499,2.6499,2.6499,2.6521,2.6589,2.6521,2.6521,2.6589,2.6521,2.6521,2.6658,2.8266,2.9034,2.9192,3.0807,3.1511,3.1511,3.1511,3.1511,3.1511,3.1511,3.1511,3.1511,3.1511,3.1511,3.16,3.2258,3.2916,3.3544,3.4279,3.4921,3.5444,3.5489,3.5504,3.5504,3.5504,3.5504,3.5504,3.5504,3.5504,3.5504,3.5504,3.5504,3.5504,3.5504,3.5504,3.5504,3.5504,3.5439,3.5215,3.4651,0.0,0.0,3.4442,3.3948,3.3993,3.534,3.5504,3.5504,3.5504,3.5504,3.5504,3.5504,3.5504,3.5504,3.5504,3.5504,3.5504,3.5504,3.5504,3.5504,3.5504,3.5504,3.5504,3.5504,3.5504,3.5504,3.5504,3.5504,3.5504,3.5504,3.5504,3.5504,3.5504,3.5424,3.4806,3.3808,3.2855,3.1924,3.1007,3.0101,2.9792,2.9792,3.0105,2.993,2.9792,2.9792,2.9792,2.9792,2.9792,2.9792,2.9792,2.9792,2.9792,2.9792,2.9792,2.9792,2.9792,2.9792,2.9591,2.9315,2.8913,2.87,2.8122,2.7052,2.7002,2.6851,2.6499,2.6499,2.6748,2.7229,2.6748,2.6748,2.7229,2.6714,2.6499,2.6555,2.8247,2.9002,2.9097,3.0807,3.1511,3.1511,3.1511,3.1511,3.1511,3.1511,3.1511,3.1511,3.1511,3.1765,3.2213,3.2901,3.3559,3.4218,3.4906,3.5295,3.5504,3.5504,3.5504,3.5504,3.5504,3.5504,3.5504,3.5504,3.5504,3.5504,3.5504,3.5504,3.5504,3.5504,3.5504,3.5504,3.5504,3.5504,3.5415,3.516,0.0,3.4337,3.5026,3.4532,3.4457,3.5385,3.5504,3.5504,3.5504,3.5504,3.5504,3.5504,3.5504,3.5504,3.5504,3.5504,3.5504,3.5504,3.5504,3.5504,3.5504,3.5504,3.5504,3.5504,3.5504,3.5504,3.5504,3.5504,3.5504,3.5504,3.5504,3.5504,3.5504,3.5504,3.4905,3.3959,3.3602,3.289,3.2033,3.1659,3.1156,3.0658,3.0018,2.9917,2.9792,2.9792,2.9792,2.9792,2.9792,2.9792,2.9792,2.9792,2.9792,2.9792,2.9792,2.9792,2.9792,2.9792,2.9792,2.9616,2.9227,2.9202,2.8624,2.7379,2.7153,2.6889,2.6499,2.6499,2.6782,2.7317,2.6782,2.6782,2.7317,2.6748,2.6499,2.6555,2.7953,2.8748,2.9097,3.0524,3.1278,3.1525,3.1735,3.169,3.1525,3.1735,3.1809,3.1809,3.1809,3.2228,3.2916,3.3589,3.4098,3.4638,3.5295,3.5504,3.5504,3.5504,3.5504,3.5504,3.5504,3.5504,3.5504,3.5504,3.5504,3.5504,3.5504,3.5504,3.5504,3.5504,3.5504,3.5504,3.5504,3.5504,3.5429,3.522,3.4786,3.4668,3.5115,3.4771,3.4758,3.5429,3.5504,3.5504,3.5504,3.5504,3.5504,3.5504,3.5504,3.5504,3.5504,3.5504,3.5504,3.5504,3.5504,3.5504,3.5504,3.5504,3.5504,3.5504,3.5504,3.5504,3.5504,3.5504,3.5504,3.5504,3.5504,3.5504,3.5504,3.5504,3.51,3.4428,3.4129,3.3602,3.2996,3.2713,3.2177,3.1646,3.0507,3.0168,2.9792,2.9792,2.9792,2.9792,2.9792,2.9792,2.9792,2.9792,2.9792,2.9792,2.9792,2.9792,2.9792,2.9792,2.9792,2.9792,2.9792,2.9779,2.9038,2.7369,2.6801,2.6499,2.6499,2.6499,2.6499,2.6499,2.6499,2.6499,2.6499,2.6499,2.6499,2.6521,2.7351,2.8182,2.9066,2.9919,3.0777,3.157,3.2228,3.2093,3.1585,3.2243,3.2512,3.2497,3.2497,3.2946,3.3604,3.4294,3.4503,3.4638,3.5295,3.5504,3.5504,3.5504,3.5504,3.5519,3.5504,3.5504,3.5519,3.5504,3.5504,3.5504,3.5504,3.5504,3.5504,3.5504,3.5504,3.5504,3.5504,3.5504,3.528,3.4623,3.4518,3.4518,3.4518,3.4518,3.4741,3.5429,3.5504,3.5504,3.5504,3.5504,3.5504,3.5504,3.5504,3.5504,3.5504,3.5504,3.5504,3.5504,3.5504,3.5504,3.5504,3.5504,3.5504,3.5504,3.5504,3.5504,3.5504,3.5504,3.5504,3.5504,3.5504,3.5504,3.5504,3.5504,3.5504,3.5392,3.4394,3.4027,3.391,3.2961,3.2629,3.2593,3.0005,2.9905,2.9792,2.9792,2.9792,2.9792,2.9792,2.9792,2.9792,2.9792,2.9792,2.9792,2.9792,2.9792,2.9792,2.9792,2.9792,2.9792,2.9792,2.9051,2.8561,2.8448,2.7908,2.7291,2.6512,2.6499,2.6499,2.6499,2.6499,2.6499,2.6499,2.6499,2.6499,2.6521,2.7351,2.7835,2.8195,3.0128,3.1087,3.136,3.2169,3.2677,3.2886,3.2617,3.2796,3.32,3.32,3.3619,3.4249,3.4444,3.4801,3.5235,3.5444,3.5504,3.5504,3.5504,3.5833,3.6088,3.5624,3.5833,3.6088,3.5624,3.5504,3.5504,3.5504,3.5504,3.5504,3.5504,3.5504,3.5504,3.5504,3.5504,3.5429,3.5235,3.519,3.519,3.519,3.519,3.528,3.5489,3.5504,3.5504,3.5504,3.5504,3.5504,3.5504,3.5504,3.5504,3.5504,3.5504,3.5504,3.5504,3.5504,3.5504,3.5504,3.5504,3.5504,3.5504,3.5504,3.5504,3.5504,3.5504,3.5504,3.5504,3.5504,3.5504,3.5504,3.5504,3.5504,3.5472,3.5166,3.5052,3.5019,3.4739,3.4192,3.3602,2.9792,2.9792,2.9792,2.9792,2.9792,2.9792,2.9792,2.9792,2.9792,2.9792,2.9792,2.9792,2.9792,2.9792,2.9792,2.9792,2.9792,2.9792,2.9792,2.9151,2.8812,2.8888,2.8574,2.7908,2.6839,2.6826,2.6713,2.6499,2.6499,2.6499,2.6499,2.6499,2.6612,2.6848,2.734,2.7853,2.8503,3.0276,3.1251,3.1674,3.2804,3.3365,3.3484,3.3335,3.3529,3.3888,3.3888,3.4322,3.4891,3.4891,3.516,3.5504,3.5504,3.5504,3.5549,3.5818,3.6178,3.6447,3.6297,3.6552,3.6701,3.6058,3.5699,3.5579,3.5833,3.5684,3.5504,3.5504,3.5504,3.5504,3.5504,3.5504,3.5504,3.5504,3.5504,3.5504,3.5504,3.5504,3.5504,3.5504,3.5504,3.5504,3.5504,3.5504,3.5504,3.5504,3.5504,3.5504,3.5504,3.5504,3.5504,3.5504,3.5504,3.5504,3.5504,3.5504,3.5504,3.5504,3.5504,3.5504,3.5504,3.5504,3.5504,3.5504,3.5504,3.5504,3.5504,3.5504,3.5504,3.5504,3.5504,3.5504,3.5504,3.5504,3.5133,3.4576,2.9792,2.9792,2.9792,2.9792,2.9792,2.9792,2.9792,2.9792,2.9792,2.9792,2.9792,2.9792,2.9792,2.9792,2.9792,2.9792,2.9792,2.9792,2.9792,2.9741,2.9503,2.8988,2.8913,2.8461,2.7457,2.7331,2.7052,2.6499,2.6499,2.6512,2.6562,2.6562,2.6864,2.7356,2.7356,2.8071,2.9359,3.0358,3.1249,3.2206,3.3746,3.4095,3.3739,3.4294,3.4548,3.4593,3.4593,3.4966,3.5504,3.5504,3.5504,3.5504,3.5504,3.5504,3.5639,3.6297,3.6522,3.6686,3.7255,3.7404,3.727,3.6716,3.6028,3.5669,3.6267,3.5938,3.5504,3.5504,3.5504,3.5504,3.5504,3.5504,3.5504,3.5504,3.5504,3.5504,3.5504,3.5504,3.5504,3.5504,3.5504,3.5504,3.5504,3.5504,3.5504,3.5504,3.5504,3.5504,3.5504,3.5504,3.5504,3.5504,3.5564,3.5594,3.5594,3.5594,3.5564,3.5504,3.5504,3.5504,3.5504,3.5504,3.5504,3.5504,3.5504,3.5504,3.5504,3.5504,3.5504,3.5504,3.5504,3.5504,3.5504,3.5504,3.5504,3.5504,2.9792,2.9792,2.9792,2.9792,2.9792,2.9792,2.9792,2.9792,2.9792,2.9792,2.9792,2.9792,2.9792,2.9792,2.9792,2.9792,2.9792,2.9792,2.9792,2.9365,2.9264,2.9591,2.9126,2.8775,2.8574,2.772,2.7052,2.6499,2.6499,2.6713,2.714,2.714,2.7394,2.7921,2.7921,2.8093,2.8473,2.9895,3.101,3.1974,3.2982,3.4071,3.5026,3.4622,3.4848,3.528,3.528,3.5385,3.5504,3.5504,3.5504,3.5504,3.5504,3.5504,3.5639,3.6297,3.6821,3.724,3.7375,3.7404,3.7375,3.724,3.6357,3.5549,3.5684,3.5609,3.5504,3.5504,3.5504,3.5504,3.5504,3.5504,3.5504,3.5504,3.5504,3.5504,3.5504,3.5504,3.5504,3.5504,3.5504,3.5504,3.5504,3.5504,3.5504,3.5504,3.5504,3.5504,3.5504,3.5504,3.5504,3.5504,3.6013,3.6267,3.6267,3.6267,3.6013,3.5504,3.5504,3.5504,3.5504,3.5504,3.5504,3.5504,3.5504,3.5504,3.5504,3.5504,3.5504,3.5504,3.5504,3.5504,3.5504,3.5504,3.5504,3.5392,2.9106,2.9443,2.9624,2.9067,2.9443,2.9792,2.9792,2.9792,2.9792,2.9792,2.9792,2.9792,2.9792,2.9792,2.9792,2.9792,2.9792,2.9792,2.9792,2.9003,2.867,2.8976,2.8707,2.8387,2.813,2.8089,2.7795,2.7278,2.7278,2.7394,2.767,2.767,2.7971,2.8461,2.8461,2.8649,2.9001,3.0236,3.1059,3.1607,3.25,3.3366,3.4081,3.3734,3.3821,3.4124,3.4124,3.4409,3.4758,3.4758,3.51,3.5504,3.5504,3.5729,3.6103,3.6731,3.715,3.7479,3.7793,3.7883,3.7734,3.712,3.6686,3.6342,3.6043,3.5729,3.5504,3.5504,3.5504,3.5504,3.5504,3.5504,3.5504,3.5504,3.5504,3.5504,3.5504,3.5504,3.5504,3.5504,3.5504,3.5504,3.5504,3.5504,3.5504,3.5504,3.5504,3.5504,3.5504,3.5804,3.5968,3.5968,3.6128,3.6085,3.5795,3.5285,3.4931,3.4806,3.5591,3.5968,3.5968,3.5968,3.5968,3.592,3.5119,3.5067,3.5439,3.4491,3.4673,3.5457,3.4986,3.4758,3.4839,3.5326,3.5504,3.5424,2.8307,2.8858,2.9197,2.8255,2.9028,2.9792,2.9792,2.9792,2.9792,2.9792,2.9792,2.9792,2.9792,2.9792,2.9792,2.9792,2.9792,2.9792,2.9792,2.8727,2.8096,2.8096,2.7924,2.7603,2.718,2.8021,2.8362,2.8109,2.8109,2.816,2.8247,2.8247,2.8549,2.9038,2.9038,2.934,2.9869,3.062,3.1044,3.1278,3.2069,3.2464,3.2593,3.2593,3.2593,3.2593,3.2593,3.3101,3.3774,3.3959,3.4543,3.5294,3.5574,3.6043,3.6626,3.736,3.7494,3.7554,3.8212,3.8227,3.7808,3.6746,3.6791,3.6941,3.6432,3.5893,3.5504,3.5504,3.5504,3.5504,3.5504,3.5504,3.5504,3.5504,3.5504,3.5504,3.5504,3.5504,3.5504,3.5504,3.5504,3.5504,3.5504,3.5504,3.5504,3.5504,3.5504,3.5549,3.5669,3.6088,3.629,3.6246,3.5913,3.5461,3.491,3.4022,3.379,3.4225,3.5629,3.6367,3.6492,3.6596,3.65,3.6149,3.4787,3.4496,3.4887,3.3255,3.3547,3.492,3.4075,3.3774,3.3891,3.4887,3.5133,3.5034,2.8136,2.8215,2.8295,2.8136,2.9028,2.9792,2.9792,2.9792,2.9792,2.9792,2.9792,2.9792,2.9792,2.9792,2.9792,2.9792,2.9792,2.9792,2.9792,2.8727,2.8096,2.8096,2.7209,2.6696,2.6617,2.6739,2.725,2.8109,2.8109,2.8348,2.8775,2.8775,2.9126,2.9679,2.9679,2.9716,2.9792,2.9934,3.0457,3.1217,3.1352,3.1888,3.2593,3.2593,3.2593,3.2593,3.2593,3.2664,3.2925,3.3739,3.4095,3.4462,3.5915,3.6417,3.6716,3.7913,3.7853,3.7554,3.8212,3.7584,3.6701,3.6537,3.6133,3.5744,3.5654,3.5564,3.5504,3.5504,3.5504,3.5504,3.5504,3.5504,3.5504,3.5504,3.5504,3.5504,3.5504,3.5504,3.5504,3.5504,3.5504,3.5504,3.5504,3.5504,3.5504,3.5504,3.5504,3.5744,3.6327,3.5893,3.5485,3.5207,3.5154,3.4918,3.4502,3.4353,3.455,3.5135,3.5332,3.584,3.6507,3.7045,3.6532,3.5186,3.4946,3.4135,3.2961,3.2713,3.2749,3.2996,3.2855,3.2784,3.289,3.3856,3.3671,3.3101,2.7377,2.7877,2.8238,2.7377,2.8621,2.9792,2.9792,2.9792,2.9792,2.9792,2.9792,2.9792,2.9792,2.9792,2.9792,2.9792,2.9792,2.9534,2.8897,2.7827,2.6901,2.6273,2.5786,2.5546,2.5546,2.6182,2.6718,2.7223,2.7818,2.8542,2.9415,2.9415,2.9553,2.9792,2.9792,2.9792,2.9792,2.9792,3.0037,3.0419,3.0419,3.0671,3.102,3.102,3.102,3.102,3.102,3.1578,3.2351,3.2741,3.3844,3.5128,3.5501,3.6246,3.7045,3.727,3.736,3.7404,3.7345,3.7165,3.6821,3.6118,3.5998,3.5953,3.5594,3.5504,3.5504,3.5504,3.5504,3.5504,3.5504,3.5504,3.5504,3.5504,3.5504,3.5504,3.5504,3.5019,3.4476,3.3939,3.3871,3.3871,3.3871,3.3871,3.3871,3.3871,3.3871,3.4143,3.4738,3.4838,3.4975,3.5161,3.4934,3.4574,3.4065,3.3172,3.2986,3.3461,3.3551,3.4379,3.584,3.6112,3.5849,3.5096,3.3868,3.3399,3.3418,3.204,3.2319,3.3454,3.2583,3.2391,3.2593,3.25,3.2855,3.3449]}]]